[[[{"header":{"parameterUnit":"kt","parameterCategory":2,"dx":1,"dy":1,"la1":29.587661999999998,"la2":31.0,"lo1":-88.76705300000003,"lo2":-86.6583820000003,"nx":115,"ny":88,"refTime":"2022-10-11T00:00:00:Z","depth":0,"parameterNumber":1,"parameterNumberName":"U-component_of_WINDS"},"data":[0.0,0.0,0.0,0.0,0.0,0.0,0.0,0.0,0.0,0.0,0.0,0.0,0.0,0.0,0.0,0.0,0.0,0.0,0.0,0.0,0.0,0.0,0.0,0.0,0.0,0.0,0.2811,0.3724,0.4634,0.4799,0.375,0.1338,0.0,0.0,0.0,0.0,-0.3073,-0.8219,-1.084,-1.2174,-1.37,-1.2593,-0.9583,-0.6219,0.0,0.0,0.0,0.0,0.0,0.0,-0.6501,-1.1149,-1.4945,-1.848,-2.1023,-2.1875,-2.2014,-2.2586,-2.2758,-2.3153,-2.3378,-2.3496,-2.3918,-2.4287,-2.4301,-2.4314,-2.4604,-2.4986,-2.525,-2.5289,-2.5434,-2.5448,-2.5474,-2.5725,-2.583,-2.5962,-2.6041,-2.6252,-2.6555,-2.6872,-2.7135,-2.7386,-2.7663,-2.7795,-2.7795,-2.7795,-2.7795,-2.7795,-2.7768,-2.7531,-2.728,-2.7122,-2.6951,-2.67,-2.645,-2.6186,-2.612,-2.6081,-2.6041,-2.6041,-2.6041,-2.6041,-2.635,-2.6497,-2.847,-3.1226,-3.3484,-3.4353,-3.3183,-3.0853,-3.057,-2.9612,-2.6074,-2.4301,-2.4301,0.0,0.0,0.0,0.0,0.0,0.0,0.0,0.0,0.0,0.0,0.0,0.0,0.0,0.0,0.0,0.0,0.0,0.0,0.0,0.0,0.0,0.0,0.0,0.0,0.0,0.0,0.0,0.5822,0.7755,0.6652,0.5623,0.4272,0.0,0.0,0.0,0.0,-0.3573,-0.9099,-1.1651,-1.3256,-1.383,-1.3158,-1.1397,-0.819,0.0,0.0,0.0,0.0,0.0,0.0,-0.6642,-1.0727,-1.4532,-1.9181,-2.1303,-2.2586,-2.2586,-2.2586,-2.2705,-2.3114,-2.3338,-2.3589,-2.4037,-2.4274,-2.4301,-2.4432,-2.467,-2.5013,-2.5382,-2.5593,-2.5817,-2.5909,-2.5909,-2.6001,-2.6001,-2.6041,-2.6041,-2.6094,-2.6463,-2.6845,-2.7069,-2.7254,-2.7505,-2.7755,-2.7795,-2.7795,-2.7795,-2.7795,-2.7702,-2.7399,-2.7135,-2.6938,-2.6687,-2.6423,-2.6186,-2.6067,-2.6081,-2.6041,-2.6041,-2.6041,-2.6041,-2.6041,-2.6363,-2.6966,-2.9119,-3.2114,-3.4507,-3.8372,-3.4896,-3.1629,-3.1857,-3.1822,-2.8004,-2.4301,-2.4301,0.0,0.0,0.0,0.0,0.0,0.0,0.0,0.0,0.0,0.0,0.0,0.0,0.0,0.0,0.0,0.0,0.0,0.0,0.0,0.0,0.0,0.0,0.0,0.0,0.0,0.0,0.0,0.7303,0.9514,0.8655,0.6652,0.4749,0.0,0.0,0.0,0.0,-0.3596,-1.062,-1.1185,-1.4638,-1.9301,-1.4735,-1.1397,-0.9123,0.0,0.0,0.0,0.0,0.0,0.0,0.0,-0.8895,-1.4532,-1.9321,-2.2014,-2.2586,-2.2586,-2.2586,-2.2745,-2.3048,-2.3417,-2.3615,-2.3971,-2.4274,-2.4301,-2.4564,-2.4815,-2.5078,-2.5448,-2.5738,-2.5949,-2.6041,-2.6041,-2.6041,-2.6041,-2.6041,-2.6041,-2.6081,-2.6344,-2.6713,-2.6977,-2.7201,-2.7557,-2.7795,-2.7795,-2.7795,-2.7795,-2.7795,-2.7518,-2.7215,-2.6977,-2.674,-2.6423,-2.6133,-2.6215,-2.6202,-2.6685,-2.6363,-2.6041,-2.6846,-2.7797,-2.7007,-2.7287,-2.9906,-3.2222,-3.4175,-3.8067,-4.2959,-4.1086,-3.5167,-3.4206,-3.3892,-2.8883,-2.4301,-2.4738,0.0,0.0,0.0,0.0,0.0,0.0,0.0,0.0,0.0,0.0,0.0,0.0,0.0,0.0,0.0,0.0,0.0,0.0,0.0,0.0,0.0,0.0,0.0,0.0,0.0,0.0,0.4479,0.8469,1.0192,1.0273,0.8652,0.5226,0.0,0.0,0.0,0.0,0.0,-1.0634,-1.1596,-1.4527,-1.8566,-1.4779,-1.0384,-0.7681,0.0,0.0,0.0,0.0,0.0,0.0,0.0,-0.889,-1.5226,-2.0032,-2.2154,-2.2586,-2.2586,-2.2586,-2.2745,-2.3088,-2.3391,-2.3615,-2.3905,-2.4156,-2.4419,-2.4696,-2.496,-2.521,-2.5487,-2.5764,-2.5975,-2.6015,-2.6041,-2.6041,-2.6041,-2.6041,-2.6041,-2.6133,-2.6239,-2.6542,-2.6872,-2.7228,-2.7623,-2.7795,-2.7795,-2.7795,-2.7795,-2.7676,-2.7399,-2.7017,-2.6779,-2.645,-2.612,-2.6189,-2.6538,-2.6833,-2.8571,-2.8571,-2.9997,-2.9853,-2.9693,-2.9067,-2.8731,-3.2086,-3.4512,-3.6115,-3.9202,-4.5096,-4.5081,-3.9495,-3.6983,-3.404,-2.9479,-2.7988,-2.7406,0.0,0.0,0.0,0.0,0.0,0.0,0.0,0.0,0.0,0.0,0.0,0.0,0.0,0.0,0.0,0.0,0.0,0.0,0.0,0.0,0.0,0.0,0.0,0.0,0.0,0.0,0.5767,0.9759,1.0602,1.0437,0.8788,0.522,0.1699,0.0,0.0,0.0,0.0,-0.9883,-1.1804,-1.3314,-1.533,-1.3657,-0.9684,-0.6387,0.0,0.0,0.0,0.0,0.0,0.0,-0.3648,-0.734,-1.2978,-1.806,-2.1315,-2.2447,-2.2586,-2.26,-2.2784,-2.3153,-2.3378,-2.3654,-2.3958,-2.4208,-2.4485,-2.4762,-2.4986,-2.5237,-2.5632,-2.5936,-2.6001,-2.6028,-2.6041,-2.6041,-2.6041,-2.6041,-2.6015,-2.6001,-2.6199,-2.6595,-2.6938,-2.7333,-2.7702,-2.7795,-2.7795,-2.7781,-2.7742,-2.761,-2.728,-2.6819,-2.6489,-2.6133,-2.6109,-2.6176,-2.7003,-2.8774,-3.0384,-3.2804,-3.5201,-3.5219,-3.2217,-3.11,-3.0477,-3.1655,-3.3415,-3.5984,-3.9661,-4.4172,-4.5878,-4.1554,-3.8008,-3.463,-3.3449,-3.3302,-3.271,0.0,0.0,0.0,0.0,0.0,0.0,0.0,0.0,0.0,0.0,0.0,0.0,0.0,0.0,0.0,0.0,0.0,0.0,0.0,0.0,0.0,0.0,0.0,0.0,0.0,0.0,0.6175,1.0647,1.062,1.0234,0.8794,0.5089,0.1699,0.0,0.0,0.0,0.0,-0.865,-1.1893,-1.3643,-1.3962,-1.3151,-0.9425,-0.5776,-0.2078,0.0,0.0,0.0,0.0,0.0,0.0,-0.7344,-1.1572,-1.6077,-1.9601,-2.2447,-2.2586,-2.2652,-2.285,-2.3233,-2.3483,-2.376,-2.4076,-2.4261,-2.4512,-2.4815,-2.5052,-2.5289,-2.5711,-2.6041,-2.6041,-2.6041,-2.6041,-2.6041,-2.6041,-2.6041,-2.5975,-2.5896,-2.6212,-2.6634,-2.703,-2.7412,-2.765,-2.7742,-2.7781,-2.7729,-2.7636,-2.7399,-2.6977,-2.6489,-2.6094,-2.583,-2.5884,-2.6293,-2.8842,-3.0753,-3.2802,-3.5332,-3.8284,-3.8283,-3.4409,-3.2678,-3.11,-3.1481,-3.222,-3.6523,-4.0608,-4.4619,-4.6569,-4.3753,-4.0221,-3.874,-3.8301,-3.8008,-3.7276,0.0,0.0,0.0,0.0,0.0,0.0,0.0,0.0,0.0,0.0,0.0,0.0,0.0,0.0,0.0,0.0,0.0,0.0,0.0,0.0,0.0,0.0,0.0,0.0,0.0,0.0,0.6303,1.0633,1.045,1.043,0.8613,0.4307,0.1046,0.0,0.0,0.0,-0.5679,-0.9806,-1.2386,-1.3449,-1.3538,-1.2291,-0.8072,-0.462,-0.0955,0.0,0.0,0.0,0.0,0.0,0.0,-0.7904,-1.1719,-1.5936,-1.9041,-2.2294,-2.2613,-2.2705,-2.2982,-2.3272,-2.3562,-2.3839,-2.4129,-2.4261,-2.4459,-2.4775,-2.5158,-2.5382,-2.5698,-2.5962,-2.6041,-2.6041,-2.6041,-2.6041,-2.6041,-2.6041,-2.6028,-2.6015,-2.6226,-2.6621,-2.6898,-2.7294,-2.7689,-2.7755,-2.7584,-2.7584,-2.7412,-2.703,-2.6595,-2.6067,-2.5672,-2.5527,-2.5592,-2.588,-2.8404,-3.2309,-3.4814,-3.7679,-4.1193,-4.2493,-3.8715,-3.5342,-3.236,-3.0625,-2.9871,-3.3874,-4.0031,-4.3157,-4.5391,-4.3319,-4.2716,-4.3005,-4.3005,-4.199,-4.124,0.0,0.0,0.0,0.0,0.0,0.0,0.0,0.0,0.0,0.0,0.0,0.0,0.0,0.0,0.0,0.0,0.0,0.0,0.0,0.0,0.0,0.0,0.0,0.0,0.0,0.0,0.5879,0.9419,1.0306,0.9643,0.6393,0.2222,0.0654,0.0,0.0,-0.2797,-0.6677,-1.0633,-1.3088,-1.4131,-1.3288,-1.1457,-0.7714,-0.3634,0.0,0.0,0.0,0.0,0.0,0.0,-0.6692,-0.9701,-1.3408,-1.834,-2.1023,-2.2586,-2.2586,-2.2771,-2.3022,-2.3285,-2.3589,-2.3945,-2.4169,-2.4261,-2.4459,-2.4828,-2.5118,-2.5355,-2.5698,-2.5896,-2.6041,-2.6041,-2.6041,-2.6041,-2.6041,-2.6041,-2.6041,-2.6133,-2.6318,-2.6542,-2.6819,-2.7083,-2.7478,-2.7544,-2.736,-2.7241,-2.6951,-2.6529,-2.5936,-2.5434,-2.5316,-2.5171,-2.53,-2.5611,-2.8854,-3.2983,-3.6083,-3.9103,-4.2955,-4.5294,-4.3046,-3.9716,-3.4321,-2.9958,-2.8209,-3.0,-3.5742,-3.9878,-4.3244,-4.4645,-4.4356,-4.4645,-4.5367,-4.4789,-4.45,0.0,0.0,0.0,0.0,0.0,0.0,0.0,0.0,0.0,0.0,0.0,0.0,0.0,0.0,0.0,0.0,0.0,0.0,0.0,0.0,0.0,0.0,0.0,0.0,0.0,0.0,0.4568,0.7171,0.7431,0.7171,0.5611,0.3135,0.0,0.0,0.0,-0.3828,-0.7408,-1.1235,-1.444,-1.5619,-1.4131,-1.1807,-0.8483,-0.428,0.0,0.0,0.0,0.0,0.0,0.0,-0.6149,-1.1002,-1.34,-1.7489,-2.2014,-2.2586,-2.2626,-2.2837,-2.314,-2.3562,-2.3694,-2.4076,-2.4221,-2.4287,-2.4406,-2.4868,-2.5092,-2.5355,-2.5751,-2.5949,-2.6041,-2.6041,-2.6041,-2.6041,-2.6041,-2.6041,-2.6041,-2.6054,-2.6212,-2.641,-2.6661,-2.6845,-2.7069,-2.7083,-2.6964,-2.6713,-2.645,-2.5817,-2.5184,-2.5039,-2.492,-2.4828,-2.4775,-2.6014,-2.8918,-3.3324,-3.7196,-4.0652,-4.3422,-4.6002,-4.3776,-4.0241,-3.4654,-2.9708,-2.782,-2.7799,-3.2649,-3.7534,-4.2273,-4.4645,-4.5367,-4.6425,-4.7576,-4.7289,-4.6713,0.0,0.0,0.0,0.0,0.0,0.0,0.0,0.0,0.0,0.0,0.0,0.0,0.0,0.0,0.0,0.0,0.0,0.0,0.0,0.0,0.0,0.0,0.0,0.0,0.0,0.0,0.3265,0.5481,0.5089,0.5611,0.535,0.4307,0.0,0.0,0.0,-0.4968,-0.8788,-1.2513,-1.557,-1.7014,-1.5916,-1.3684,-1.025,-0.5293,-0.3042,0.0,0.0,0.0,0.0,0.0,0.0,-1.1008,-1.2416,-1.848,-2.2346,-2.2731,-2.2745,-2.2929,-2.3167,-2.3562,-2.3813,-2.4103,-2.4301,-2.4301,-2.4366,-2.4868,-2.5105,-2.5316,-2.5725,-2.5975,-2.6041,-2.6041,-2.5962,-2.5962,-2.6041,-2.6041,-2.5975,-2.5988,-2.6094,-2.6305,-2.6502,-2.67,-2.6832,-2.6911,-2.6397,-2.6028,-2.55,-2.4907,-2.4762,-2.467,-2.4643,-2.4551,-2.4815,-2.6301,-2.8969,-3.3365,-3.7188,-4.0073,-4.2727,-4.5051,-4.2981,-3.9454,-3.4234,-2.8165,-2.671,-2.5899,-2.9872,-3.4224,-4.006,-4.4934,-4.6256,-4.7458,-4.7745,-4.7889,-4.7889,0.0,0.0,0.0,0.0,0.0,0.0,0.0,0.0,0.0,0.0,0.0,0.0,0.0,0.0,0.0,0.0,0.0,0.0,0.0,0.0,0.0,0.0,0.0,0.0,0.0,0.0,0.2482,0.4176,0.4698,0.4176,0.4437,0.3526,0.0,0.0,0.0,-0.6919,-1.1997,-1.539,-1.8745,-1.8343,-1.6986,-1.5657,-1.155,-0.7469,-0.4856,-0.2521,0.0,0.0,0.0,0.0,0.0,-1.1283,-1.2697,-1.9041,-2.2284,-2.2916,-2.2956,-2.2995,-2.3074,-2.3589,-2.3892,-2.4103,-2.4169,-2.4208,-2.438,-2.4802,-2.534,-2.5237,-2.5711,-2.6001,-2.6041,-2.6028,-2.587,-2.5843,-2.5988,-2.6015,-2.5856,-2.5804,-2.5975,-2.616,-2.6371,-2.6542,-2.6634,-2.6516,-2.5856,-2.5263,-2.463,-2.438,-2.4393,-2.438,-2.4419,-2.438,-2.453,-2.5571,-2.676,-3.2188,-3.6841,-3.926,-4.132,-4.2474,-4.1375,-3.7757,-3.284,-2.742,-2.5705,-2.607,-2.8415,-3.1202,-3.7124,-4.3005,-4.5391,-4.7745,-4.7745,-4.7889,-4.7889,0.0,0.0,0.0,0.0,0.0,0.0,0.0,0.0,0.0,0.0,0.0,0.0,0.0,0.0,0.0,0.0,0.0,0.0,0.0,0.0,0.0,0.0,0.0,0.0,0.0,0.0,0.1308,0.0,0.0,0.0,0.0,0.0,0.0,0.0,0.0,-0.6939,-1.2465,-1.6209,-1.9411,-2.0422,-1.941,-1.7269,-1.3291,-0.9537,-0.6582,-0.3862,0.0,0.0,0.0,-0.4061,-0.8026,-1.2127,-1.5796,-1.9214,-2.2169,-2.289,-2.3022,-2.3101,-2.3338,-2.3641,-2.3813,-2.3852,-2.3931,-2.4037,-2.4208,-2.4722,-2.5184,-2.5263,-2.5698,-2.6041,-2.6041,-2.6028,-2.5909,-2.5619,-2.5777,-2.579,-2.5645,-2.5645,-2.5817,-2.5975,-2.6067,-2.6186,-2.6226,-2.6133,-2.5593,-2.5171,-2.4604,-2.4327,-2.4301,-2.4301,-2.4301,-2.4301,-2.4301,-2.4301,-2.4751,-3.1,-3.6909,-3.9306,-4.1298,-4.1711,-3.9492,-3.5426,-3.0893,-2.7193,-2.5954,-2.6375,-2.8849,-3.2424,-3.6769,-4.1408,-4.45,-4.7745,-4.7889,-4.7889,-4.7889,0.0,0.0,0.0,0.0,0.0,0.0,0.0,0.0,0.0,0.0,0.0,0.0,0.0,0.0,0.0,0.0,0.0,0.0,0.0,0.0,0.0,0.0,0.0,0.0,0.0,0.0,0.0,0.0,0.0,0.0,0.0,0.0,0.0,0.0,0.0,-0.552,-1.1042,-1.5333,-1.9243,-2.1281,-2.0587,-1.8578,-1.5536,-1.115,-0.7833,-0.5107,0.0,0.0,0.0,-0.3947,-0.8467,-1.1431,-1.4383,-1.9612,-2.2374,-2.3127,-2.3193,-2.3272,-2.3457,-2.3681,-2.38,-2.3694,-2.3852,-2.4129,-2.4353,-2.4802,-2.5158,-2.5434,-2.579,-2.5936,-2.5949,-2.5949,-2.5843,-2.5553,-2.5421,-2.5421,-2.5408,-2.5448,-2.558,-2.5711,-2.579,-2.5856,-2.5817,-2.5738,-2.5421,-2.5092,-2.4643,-2.4301,-2.4301,-2.4301,-2.4301,-2.4301,-2.4301,-2.4301,-2.7257,-3.1743,-3.6701,-3.9394,-4.1831,-4.0628,-3.8746,-3.4396,-3.0327,-2.7962,-2.5959,-2.7553,-2.9906,-3.3634,-3.8155,-4.3319,-4.64,-4.7889,-4.7889,-4.7889,-4.7889,0.0,0.0,0.0,0.0,0.0,0.0,0.0,0.0,0.0,0.0,0.0,0.0,0.0,0.0,0.0,0.0,0.0,0.0,0.0,0.0,0.0,0.0,0.0,0.0,0.0,0.0,0.0,0.0,0.0,0.0,0.0,0.0,0.0,0.0,0.0,-0.4213,-0.9223,-1.4119,-1.9076,-2.0744,-2.0783,-2.0031,-1.7085,-1.2055,-0.9876,0.0,0.0,0.0,-0.0842,-0.1981,-0.7772,-1.1853,-1.4383,-1.9332,-2.2528,-2.314,-2.3259,-2.3285,-2.3351,-2.3549,-2.376,-2.3865,-2.3918,-2.3984,-2.4156,-2.4762,-2.5184,-2.5329,-2.5659,-2.579,-2.5751,-2.5738,-2.554,-2.5329,-2.5237,-2.5158,-2.5052,-2.5144,-2.5342,-2.5448,-2.5514,-2.558,-2.5566,-2.5421,-2.5144,-2.4947,-2.4538,-2.4406,-2.438,-2.4301,-2.4301,-2.4301,-2.4301,-2.5924,-2.9165,-3.1777,-3.4708,-3.7417,-3.9515,-3.8706,-3.7133,-3.3255,-2.8869,-2.6697,-2.5682,-2.8471,-3.1229,-3.6689,-4.1677,-4.5968,-4.7889,-4.7889,-4.7889,-4.7889,-4.7889,0.0,0.0,0.0,0.0,0.0,0.0,0.0,0.0,0.0,0.0,0.0,0.0,0.0,0.0,0.0,0.0,0.0,0.0,0.0,0.0,0.0,0.0,0.0,0.0,0.0,0.0,0.0,0.0,0.0,0.0,0.0,0.0,0.0,0.0,0.0,-0.3443,-0.7416,-1.2386,-1.7629,-2.0275,-2.0912,-2.1031,-1.6787,-1.2826,-0.9888,0.0,0.0,0.0,0.0,-0.368,-0.8613,-1.2275,-1.4954,-1.9332,-2.2515,-2.3035,-2.3153,-2.3153,-2.3193,-2.3285,-2.3219,-2.318,-2.3193,-2.3404,-2.3615,-2.4142,-2.4604,-2.4762,-2.5289,-2.55,-2.5434,-2.5553,-2.5303,-2.5118,-2.5039,-2.4788,-2.4657,-2.4933,-2.5144,-2.5158,-2.5171,-2.525,-2.5197,-2.5078,-2.4947,-2.4762,-2.4657,-2.4538,-2.4419,-2.4314,-2.4301,-2.4301,-2.4451,-2.5338,-2.8436,-3.1,-3.2679,-3.4877,-3.665,-3.656,-3.4828,-3.1433,-2.9025,-2.6861,-2.4966,-2.8529,-3.4482,-4.0221,-4.5536,-4.6857,-4.7889,-4.7889,-4.7889,-4.7889,-4.7889,0.0,0.0,0.0,0.0,0.0,0.0,0.0,0.0,0.0,0.0,0.0,0.0,0.0,0.0,0.0,0.0,0.0,0.0,0.0,0.0,0.0,0.0,0.0,0.0,0.0,0.0,0.0,0.0,0.0,0.0,0.0,0.0,0.0,0.0,0.0,0.0,-0.5971,-1.0549,-1.4332,-1.7795,-2.0069,-2.0484,-1.7619,-1.1002,-1.0744,-0.6625,0.0,0.0,0.0,-0.3397,-0.8759,-1.2275,-1.4954,-1.9343,-2.2705,-2.2956,-2.2995,-2.2995,-2.3035,-2.3272,-2.3325,-2.3233,-2.3233,-2.3101,-2.3298,-2.3879,-2.4353,-2.4459,-2.5078,-2.5237,-2.5118,-2.5276,-2.5026,-2.4854,-2.4815,-2.4604,-2.4551,-2.4788,-2.4868,-2.4815,-2.4788,-2.4762,-2.4722,-2.4657,-2.4604,-2.4498,-2.4459,-2.4419,-2.4366,-2.4301,-2.4301,-2.4301,-2.4601,-2.5338,-2.8436,-3.1839,-3.3816,-3.754,-3.918,-3.7448,-3.4498,-3.2346,-3.1253,-2.9553,-2.9111,-3.2467,-3.7443,-4.199,-4.4934,-4.64,-4.7745,-4.7889,-4.7889,-4.7889,-4.7889,0.0,0.0,0.0,0.0,0.0,0.0,0.0,0.0,0.0,0.0,0.0,0.0,0.0,0.0,0.0,0.0,0.0,0.0,0.0,0.0,0.0,0.0,0.0,0.0,0.0,0.0,0.0,0.0,0.0,0.0,0.0,0.0,0.0,0.0,0.0,0.0,0.0,-0.929,-1.0724,-1.4192,-1.9561,-2.0809,-1.6982,-1.2385,-1.0084,-0.7305,0.0,0.0,0.0,-0.1983,-0.7913,-1.1156,-1.2986,-1.8761,-2.1875,-2.2722,-2.2827,-2.284,-2.2879,-2.3364,-2.3575,-2.3364,-2.347,-2.3575,-2.3457,-2.3734,-2.405,-2.4551,-2.4947,-2.4986,-2.4815,-2.4973,-2.4802,-2.4657,-2.4564,-2.4485,-2.4393,-2.4551,-2.4577,-2.4538,-2.4551,-2.4459,-2.4419,-2.4353,-2.4301,-2.4301,-2.4301,-2.4314,-2.4301,-2.4301,-2.4301,-2.4301,-2.4601,-2.6659,-2.9612,-3.3449,-3.6876,-4.1708,-4.1599,-4.0374,-3.7036,-3.4114,-3.3208,-3.3929,-3.5436,-3.7697,-4.1318,-4.3464,-4.45,-4.6112,-4.7432,-4.7889,-4.7863,-4.7889,-4.7889,0.0,0.0,0.0,0.0,0.0,0.0,0.0,0.0,0.0,0.0,0.0,0.0,0.0,0.0,0.0,0.0,0.0,0.0,0.0,0.0,0.0,0.0,0.0,0.0,0.0,0.0,0.0,0.0,0.0,0.0,0.0,0.0,0.0,0.0,0.0,0.0,0.0,-0.8559,-1.0783,-1.4136,-1.9411,-2.0808,-1.7751,-1.1367,-1.0692,-0.7362,0.0,0.0,0.0,-0.4526,-0.8472,-1.2556,-1.5796,-2.0032,-2.2473,-2.2692,-2.2877,-2.2837,-2.289,-2.3233,-2.3457,-2.318,-2.3167,-2.3153,-2.3127,-2.3127,-2.3246,-2.372,-2.4327,-2.4709,-2.4525,-2.467,-2.4617,-2.4406,-2.4353,-2.4366,-2.4314,-2.4314,-2.4366,-2.4366,-2.4327,-2.4327,-2.434,-2.4301,-2.4301,-2.4301,-2.5338,-2.5338,-2.5774,-2.5488,-2.6673,-2.6074,-2.6673,-2.9032,-3.2414,-3.6542,-3.953,-4.3277,-4.2775,-4.2154,-3.9249,-3.6184,-3.6217,-3.6403,-3.8445,-4.0935,-4.4331,-4.7001,-4.6587,-4.6536,-4.7381,-4.7837,-4.7785,-4.7759,-4.7759,0.0,0.0,0.0,0.0,0.0,0.0,0.0,0.0,0.0,0.0,0.0,0.0,0.0,0.0,0.0,0.0,0.0,0.0,0.0,0.0,0.0,0.0,0.0,0.0,0.0,0.0,0.0,0.0,0.0,0.0,0.0,0.0,0.0,0.0,0.0,0.0,0.0,-0.9138,-1.1056,-1.4002,-2.0503,-2.0979,-1.7178,-1.2438,-1.0301,-0.6971,0.0,0.0,0.0,-0.5512,-0.9318,-1.2978,-1.6638,-2.0032,-2.2586,-2.2639,-2.2837,-2.2916,-2.2903,-2.3153,-2.3298,-2.3048,-2.3008,-2.2942,-2.2656,-2.2745,-2.2916,-2.3444,-2.4116,-2.4459,-2.4327,-2.4432,-2.4446,-2.4327,-2.4314,-2.4314,-2.4301,-2.4301,-2.4314,-2.4314,-2.4301,-2.4301,-2.4301,-2.4301,-2.4301,-2.5038,-2.6224,-2.6958,-2.7556,-2.933,-3.1691,-3.1395,-3.1822,-3.4335,-3.7423,-3.947,-4.1586,-4.3373,-4.3703,-4.3651,-4.1694,-3.9115,-3.8723,-3.9399,-4.1591,-4.3982,-4.6596,-4.7163,-4.7331,-4.7305,-4.7551,-4.7629,-4.7629,-4.7603,-4.7603,0.0,0.0,0.0,0.0,0.0,0.0,0.0,0.0,0.0,0.0,0.0,0.0,0.0,0.0,0.0,0.0,0.0,0.0,0.0,0.0,0.0,0.0,0.0,0.0,0.0,0.0,0.0,0.0,0.0,0.0,0.0,0.0,0.0,0.0,0.0,0.0,-0.3661,-0.9882,-1.0803,-1.4314,-1.9604,-2.0587,-1.7553,-1.1374,-0.9621,-0.6139,0.0,0.0,-0.2124,-0.636,-0.96,-1.34,-1.7769,-2.1023,-2.2307,-2.2639,-2.285,-2.2942,-2.2916,-2.3206,-2.3246,-2.3035,-2.2969,-2.2735,-2.2679,-2.2613,-2.2877,-2.3378,-2.3852,-2.4208,-2.4274,-2.4327,-2.4301,-2.4301,-2.4301,-2.4301,-2.4301,-2.4301,-2.4301,-2.4301,-2.4301,-2.4301,-2.4301,-2.4301,-2.5338,-2.6808,-2.7839,-2.8585,-3.0355,-3.3006,-3.5072,-3.5808,-3.6542,-3.9032,-4.124,-4.1486,-4.2437,-4.3987,-4.476,-4.456,-4.3706,-4.1613,-4.1727,-4.2784,-4.4649,-4.5775,-4.6145,-4.6684,-4.6902,-4.6928,-4.7136,-4.7395,-4.7188,-4.7006,-4.7084,0.0,0.0,0.0,0.0,0.0,0.0,0.0,0.0,0.0,0.0,0.0,0.0,0.0,0.0,0.0,0.0,0.0,0.0,0.0,0.0,0.0,0.0,0.0,0.0,0.0,0.0,0.0,0.0,0.0,0.0,0.0,0.0,0.0,0.0,0.0,0.0,-0.3956,-1.0232,-1.1266,-1.4628,-2.0357,-2.0914,-1.7487,-1.1651,-0.8544,-0.4336,0.0,0.0,-0.3114,-0.9741,-1.0868,-1.5094,-1.9752,-2.2447,-2.2586,-2.26,-2.2811,-2.2863,-2.2824,-2.3061,-2.318,-2.2705,-2.2837,-2.2837,-2.2652,-2.2626,-2.289,-2.3272,-2.3575,-2.3826,-2.4235,-2.4301,-2.4301,-2.4301,-2.4301,-2.4301,-2.4301,-2.4301,-2.4301,-2.4301,-2.4301,-2.4301,-2.4301,-2.5188,-2.6958,-2.8436,-2.9463,-3.0949,-3.3597,-3.6102,-3.7129,-3.8008,-3.874,-4.0658,-4.1363,-4.1586,-4.3278,-4.4605,-4.5364,-4.5133,-4.474,-4.3559,-4.3398,-4.5149,-4.5577,-4.57,-4.5933,-4.6253,-4.6331,-4.6356,-4.6486,-4.6642,-4.659,-4.6434,-4.6408,0.0,0.0,0.0,0.0,0.0,0.0,0.0,0.0,0.0,0.0,0.0,0.0,0.0,0.0,0.0,0.0,0.0,0.0,0.0,0.0,0.0,0.0,0.0,0.0,0.0,0.0,0.0,0.0,0.0,0.0,0.0,0.0,0.0,0.0,0.0,-0.2111,-0.5792,-1.0396,-1.2865,-1.6296,-2.0927,-2.1518,-1.855,-1.3953,-0.8338,-0.3795,-0.0425,0.0,0.0,-0.9741,-1.3259,-1.6918,-2.1443,-2.2586,-2.2586,-2.26,-2.2731,-2.2679,-2.2652,-2.2811,-2.2877,-2.2613,-2.2692,-2.2679,-2.2626,-2.2586,-2.2863,-2.3272,-2.3483,-2.3668,-2.4208,-2.4301,-2.4301,-2.4301,-2.4301,-2.4301,-2.4301,-2.4301,-2.4301,-2.4301,-2.4301,-2.4301,-2.5338,-2.7107,-2.8734,-3.1098,-3.2118,-3.6209,-3.8865,-4.0323,-4.0782,-4.0793,-4.1273,-4.1654,-4.1898,-4.2942,-4.4762,-4.5218,-4.5681,-4.5266,-4.5032,-4.4954,-4.4928,-4.4876,-4.4902,-4.5214,-4.5551,-4.5655,-4.5759,-4.5811,-4.5889,-4.5915,-4.5941,-4.5993,-4.5967,0.0,0.0,0.0,0.0,0.0,0.0,0.0,0.0,0.0,0.0,0.0,0.0,0.0,0.0,0.0,0.0,0.0,0.0,0.0,0.0,0.0,0.0,0.0,0.0,0.0,0.0,0.0,0.0,0.0,0.0,0.0,0.0,0.0,0.0,0.0,-0.2509,-0.6471,-1.0944,-1.3627,-1.6983,-2.0805,-2.1809,-1.9869,-1.6003,-1.0184,-0.493,-0.1132,-0.0709,-0.4529,-1.0304,-1.4673,-1.819,-2.1595,-2.2586,-2.2586,-2.2586,-2.26,-2.26,-2.2586,-2.2613,-2.2586,-2.2586,-2.2613,-2.2586,-2.2586,-2.2586,-2.2837,-2.3206,-2.3364,-2.3536,-2.3971,-2.4156,-2.4221,-2.4274,-2.4301,-2.4301,-2.4301,-2.4301,-2.4301,-2.4301,-2.4301,-2.4601,-2.5625,-2.8585,-3.0949,-3.3449,-3.6962,-4.1341,-4.3682,-4.5293,-4.519,-4.4535,-4.4899,-4.4812,-4.5001,-4.5302,-4.5981,-4.6079,-4.5525,-4.4954,-4.472,-4.4591,-4.4642,-4.4565,-4.4435,-4.4642,-4.5032,-4.5162,-4.5188,-4.5318,-4.5422,-4.5344,-4.5318,-4.5551,-4.5688,0.0,0.0,0.0,0.0,0.0,0.0,0.0,0.0,0.0,0.0,0.0,0.0,0.0,0.0,0.0,0.0,0.0,0.0,0.0,0.0,0.0,0.0,0.0,0.0,0.0,0.0,0.0,0.0,0.0,0.0,0.0,0.0,0.0,0.0,0.0,-0.0826,-0.4583,-1.0117,-1.2306,-1.6041,-2.0979,-2.1818,-2.0014,-1.6473,-1.1832,-0.6864,-0.2824,-0.3114,-0.6642,-1.1149,-1.4813,-1.8621,-2.1875,-2.2586,-2.2586,-2.2586,-2.2586,-2.2586,-2.2586,-2.2586,-2.2586,-2.2586,-2.2586,-2.2586,-2.2586,-2.2586,-2.2731,-2.3074,-2.3048,-2.3259,-2.3575,-2.38,-2.3997,-2.4195,-2.4261,-2.4287,-2.4301,-2.4301,-2.4301,-2.4301,-2.4287,-2.6074,-2.8287,-3.0504,-3.2692,-3.6655,-4.0226,-4.3468,-4.5344,-4.644,-4.6686,-4.6798,-4.7084,-4.7577,-4.7176,-4.711,-4.6668,-4.6097,-4.5136,-4.485,-4.4616,-4.4435,-4.4435,-4.4435,-4.4435,-4.4539,-4.472,-4.4642,-4.4616,-4.4746,-4.4928,-4.4772,-4.4668,-4.5006,-4.5271,0.0,0.0,0.0,0.0,0.0,0.0,0.0,0.0,0.0,0.0,0.0,0.0,0.0,0.0,0.0,0.0,0.0,0.0,0.0,0.0,0.0,0.0,0.0,0.0,0.0,0.0,0.0,0.0,0.0,0.0,0.0,0.0,0.0,0.0,0.0,-0.2041,-0.6029,-1.0412,-1.3506,-1.6729,-2.1603,-2.2178,-2.0177,-1.675,-1.3011,-0.8838,-0.4377,-0.4665,-0.7344,-1.1008,-1.4805,-1.861,-2.2014,-2.2586,-2.2586,-2.2586,-2.2586,-2.2586,-2.2586,-2.2586,-2.2586,-2.2586,-2.2586,-2.2586,-2.2586,-2.2586,-2.2705,-2.2942,-2.2995,-2.3153,-2.3391,-2.3549,-2.376,-2.3971,-2.3905,-2.38,-2.38,-2.3826,-2.3813,-2.3852,-2.4241,-2.5522,-2.929,-3.1769,-3.5709,-4.005,-4.3135,-4.4572,-4.5751,-4.6466,-4.672,-4.6512,-4.6642,-4.6094,-4.5698,-4.6218,-4.6123,-4.5396,-4.472,-4.4928,-4.472,-4.4435,-4.4435,-4.4435,-4.4435,-4.4461,-4.4513,-4.4513,-4.4435,-4.4435,-4.4435,-4.4487,-4.4487,-4.4694,-4.4668,0.0,0.0,0.0,0.0,0.0,0.0,0.0,0.0,0.0,0.0,0.0,0.0,0.0,0.0,0.0,0.0,0.0,0.0,0.0,0.0,0.0,0.0,0.0,0.0,0.0,0.0,0.0,0.0,0.0,0.0,0.0,0.0,0.0,0.0,0.0,-0.3495,-0.7291,-1.0948,-1.4753,-1.8311,-2.159,-2.2336,-2.1077,-1.8028,-1.3813,-0.9882,-0.7485,-0.5371,-0.5936,-0.96,-1.4243,-1.8621,-2.2014,-2.2586,-2.2586,-2.2586,-2.2586,-2.2586,-2.2586,-2.2586,-2.2586,-2.2586,-2.2586,-2.2586,-2.2586,-2.2586,-2.2679,-2.2824,-2.289,-2.2969,-2.3167,-2.3272,-2.3417,-2.3589,-2.347,-2.3391,-2.3457,-2.3444,-2.3444,-2.3457,-2.3641,-2.6342,-3.0097,-3.355,-3.6874,-4.1433,-4.35,-4.4321,-4.3257,-4.3257,-4.125,-4.2518,-4.4234,-4.4032,-4.4366,-4.5005,-4.5396,-4.4616,-4.4487,-4.4642,-4.4487,-4.4305,-4.4357,-4.4383,-4.4331,-4.4383,-4.4409,-4.4331,-4.4435,-4.4435,-4.4383,-4.4279,-4.4305,-4.4201,-4.4149,0.0,0.0,0.0,0.0,0.0,0.0,0.0,0.0,0.0,0.0,0.0,0.0,0.0,0.0,0.0,0.0,0.0,0.0,0.0,0.0,0.0,0.0,0.0,0.0,0.0,0.0,0.0,0.0,0.0,0.0,0.0,0.0,0.0,0.0,0.0,-0.358,-0.7197,-1.1193,-1.4556,-1.8157,-2.1799,-2.2165,-2.202,-2.1697,-1.5366,-1.129,-0.96,-0.5092,-0.3114,-0.6497,-1.34,-1.861,-2.1735,-2.2586,-2.2586,-2.2586,-2.2586,-2.2586,-2.2586,-2.2586,-2.2586,-2.2586,-2.2586,-2.2586,-2.2586,-2.2586,-2.2613,-2.2652,-2.2652,-2.2652,-2.2718,-2.2877,-2.3022,-2.3048,-2.3048,-2.314,-2.3378,-2.3404,-2.3338,-2.3378,-2.3865,-2.6035,-3.2569,-3.3651,-3.7771,-4.1857,-4.1994,-4.0714,-3.9659,-3.8231,-3.56,-3.6741,-3.9357,-3.9889,-4.0971,-4.2149,-4.4461,-4.3889,-4.3863,-4.4019,-4.4019,-4.4071,-4.4123,-4.4175,-4.4201,-4.4438,-4.4438,-4.4255,-4.4097,-4.4045,-4.3993,-4.4071,-4.3941,-4.3708,-4.3943,0.0,0.0,0.0,0.0,0.0,0.0,0.0,0.0,0.0,0.0,0.0,0.0,0.0,0.0,0.0,0.0,0.0,0.0,0.0,0.0,0.0,0.0,0.0,0.0,0.0,0.0,0.0,0.0,0.0,0.0,0.0,0.0,0.0,0.0,-0.3398,-0.4725,-0.8275,-1.3274,-1.5418,-1.786,-2.0834,-2.1954,-2.2191,-2.1606,-1.7407,-1.3813,-1.129,-0.8759,-0.7772,-0.9741,-1.3962,-1.861,-2.2014,-2.2573,-2.2586,-2.2586,-2.2586,-2.2573,-2.2586,-2.2573,-2.2586,-2.2586,-2.2586,-2.2586,-2.2586,-2.2586,-2.2586,-2.2586,-2.2586,-2.2586,-2.26,-2.2692,-2.2731,-2.2745,-2.2745,-2.2784,-2.2863,-2.2903,-2.2916,-2.2969,-2.3074,-2.5826,-2.9417,-3.1001,-3.289,-3.6811,-3.6813,-3.5366,-3.5015,-3.4061,-3.3713,-3.4031,-3.5403,-3.6523,-3.7697,-4.0077,-4.2824,-4.3318,-4.324,-4.3344,-4.3526,-4.3604,-4.363,-4.3656,-4.363,-4.3812,-4.3786,-4.3578,-4.3604,-4.3396,-4.324,-4.3396,-4.3396,-4.3084,-4.4771,0.0,0.0,0.0,0.0,0.0,0.0,0.0,0.0,0.0,0.0,0.0,0.0,0.0,0.0,0.0,0.0,0.0,0.0,0.0,0.0,0.0,0.0,0.0,0.0,0.0,0.0,0.0,0.0,0.0,0.0,0.0,0.0,0.0,0.0,-0.4959,-0.6519,-0.9507,-1.5102,-1.6824,-1.8671,-2.0925,-2.1677,-2.1914,-2.1611,-1.8646,-1.5657,-1.2965,-1.2826,-1.227,-1.1005,-1.4631,-1.8392,-2.1468,-2.231,-2.231,-2.2323,-2.2389,-2.2441,-2.2455,-2.2521,-2.2586,-2.2586,-2.2586,-2.2586,-2.2586,-2.2586,-2.2586,-2.2586,-2.2586,-2.2586,-2.2586,-2.2586,-2.26,-2.2586,-2.2586,-2.26,-2.2639,-2.2613,-2.2586,-2.2613,-2.2758,-2.4474,-2.7416,-2.8363,-2.9891,-3.3249,-3.2283,-3.1067,-3.0653,-2.9622,-2.9156,-2.9382,-3.2096,-3.3199,-3.5023,-3.7286,-4.0389,-4.2054,-4.231,-4.2643,-4.2851,-4.298,-4.2928,-4.2928,-4.2902,-4.2876,-4.2851,-4.2876,-4.2954,-4.2876,-4.2927,-4.2797,-4.264,-4.3976,-4.6041,0.0,0.0,0.0,0.0,0.0,0.0,0.0,0.0,0.0,0.0,0.0,0.0,0.0,0.0,0.0,0.0,0.0,0.0,0.0,0.0,0.0,0.0,0.0,0.0,0.0,0.0,0.0,0.0,0.0,0.0,0.0,0.0,0.0,-0.3135,-0.5611,-0.9123,-1.2241,-1.5749,-1.8897,-2.0601,-2.111,-2.1189,-2.1479,-2.1434,-1.8653,-1.6619,-1.6169,-1.6169,-1.4699,-1.21,-1.4681,-1.7912,-2.123,-2.1782,-2.1877,-2.1957,-2.2006,-2.2138,-2.2191,-2.2415,-2.2534,-2.2586,-2.2586,-2.2586,-2.2586,-2.2586,-2.2586,-2.2586,-2.2586,-2.2586,-2.2586,-2.2586,-2.2586,-2.2586,-2.2586,-2.2586,-2.2586,-2.2586,-2.2586,-2.2586,-2.26,-2.3967,-2.6433,-2.6986,-2.7784,-2.9912,-2.9053,-2.7068,-2.6639,-2.4695,-2.2202,-2.254,-2.6408,-3.0579,-3.2487,-3.455,-3.8031,-4.101,-4.1664,-4.1942,-4.2175,-4.2279,-4.2227,-4.2227,-4.2201,-4.2227,-4.2201,-4.2201,-4.2305,-4.2305,-4.2562,-4.251,-4.3357,-4.4653,-4.6859,0.0,0.0,0.0,0.0,0.0,0.0,0.0,0.0,0.0,0.0,0.0,0.0,0.0,0.0,0.0,0.0,0.0,0.0,0.0,0.0,0.0,0.0,0.0,0.0,0.0,0.0,0.0,0.0,-0.3265,-0.3526,-0.4829,-0.691,-0.7171,-0.8863,-1.1844,-1.327,-1.562,-1.8615,-2.0188,-2.0872,-2.0861,-2.1045,-2.1334,-2.1148,-2.0294,-1.9616,-1.9544,-1.9846,-1.9247,-1.8429,-1.9247,-2.0469,-2.1569,-2.1837,-2.1837,-2.1837,-2.193,-2.1927,-2.2112,-2.223,-2.2375,-2.256,-2.2586,-2.2586,-2.2586,-2.2586,-2.2586,-2.2586,-2.2586,-2.2586,-2.2586,-2.2586,-2.2586,-2.2586,-2.2586,-2.2586,-2.2586,-2.2586,-2.2586,-2.2586,-2.2586,-2.2858,-2.3685,-2.3838,-2.4234,-2.4585,-2.4013,-2.3107,-2.2892,-2.1776,-2.1097,-2.1407,-2.5471,-2.8915,-3.1656,-3.4794,-3.8232,-4.0377,-4.1422,-4.137,-4.1422,-4.1474,-4.15,-4.1526,-4.1552,-4.1578,-4.1578,-4.1578,-4.1552,-4.1526,-4.1682,-4.2563,-4.4197,-4.5413,-4.8198,0.0,0.0,0.0,0.0,0.0,0.0,0.0,0.0,0.0,0.0,0.0,0.0,0.0,0.0,0.0,0.0,0.0,0.0,0.0,0.0,0.0,0.0,0.0,0.0,0.0,0.0,-0.1307,-0.3657,-0.6784,-0.7171,-0.8342,-1.0293,-1.056,-1.2241,-1.4963,-1.5481,-1.7312,-2.0446,-2.0833,-2.078,-2.0714,-2.0965,-2.0887,-2.0833,-2.082,-2.082,-2.0691,-2.1083,-2.1228,-2.1228,-2.1334,-2.1387,-2.1387,-2.1387,-2.1387,-2.14,-2.1492,-2.1637,-2.1822,-2.2019,-2.223,-2.2415,-2.2521,-2.2586,-2.2586,-2.2586,-2.2586,-2.2586,-2.2586,-2.2586,-2.2586,-2.2586,-2.2586,-2.2586,-2.2586,-2.2586,-2.2586,-2.2586,-2.2586,-2.2586,-2.2573,-2.2468,-2.2288,-2.1795,-2.1492,-2.1176,-2.1189,-2.1057,-2.0925,-2.0991,-2.1564,-2.3049,-2.6283,-2.9924,-3.1814,-3.5588,-3.8119,-4.0145,-4.1033,-4.1059,-4.1085,-4.1162,-4.1188,-4.1266,-4.1214,-4.1214,-4.1292,-4.1266,-4.124,-4.1188,-4.1188,-4.2394,-4.4813,-4.4996,-4.8179,0.0,0.0,0.0,0.0,0.0,0.0,0.0,0.0,0.0,0.0,0.0,0.0,0.0,0.0,0.0,0.0,0.0,0.0,0.0,0.0,0.0,0.0,-0.0384,-0.0389,0.0,0.0,-0.4179,-0.7171,-1.004,-1.0553,-1.0813,-1.121,-1.1592,-1.289,-1.561,-1.6137,-1.757,-2.0446,-2.0806,-2.0675,-2.0477,-2.0661,-2.053,-2.0068,-2.0002,-2.0055,-2.0055,-2.0253,-2.0398,-2.0385,-2.0675,-2.0833,-2.0833,-2.0846,-2.0872,-2.0899,-2.111,-2.1136,-2.1241,-2.1782,-2.2085,-2.2151,-2.2375,-2.256,-2.2521,-2.256,-2.2573,-2.2586,-2.2521,-2.2507,-2.2521,-2.2468,-2.2481,-2.256,-2.256,-2.2521,-2.2547,-2.2481,-2.2534,-2.2507,-2.2468,-2.2336,-2.2112,-2.1624,-2.1347,-2.1202,-2.1031,-2.0872,-2.0872,-2.1131,-2.2549,-2.48,-2.6775,-2.8787,-3.484,-3.8367,-4.0268,-4.1033,-4.1033,-4.1033,-4.1033,-4.1033,-4.1033,-4.1033,-4.1033,-4.1007,-4.1007,-4.1007,-4.0981,-4.0843,-4.0791,-4.2691,-4.5455,-4.519,-4.8166,0.0,0.0,0.0,0.0,0.0,0.0,0.0,0.0,0.0,0.0,0.0,0.0,0.0,0.0,0.0,0.0,0.0,-0.2415,-0.3504,-0.3761,-0.5877,-0.6939,-0.7162,-0.7139,-0.7356,-0.7812,-0.8597,-0.9513,-1.0553,-1.289,-1.549,-1.771,-1.7969,-1.8486,-1.926,-1.9401,-1.9917,-2.0691,-2.0622,-2.0477,-2.0385,-2.0279,-2.0042,-1.9725,-1.987,-2.0099,-2.0113,-2.0055,-2.0094,-2.0108,-2.0371,-2.0516,-2.053,-2.0714,-2.0833,-2.0846,-2.0925,-2.0927,-2.1136,-2.1294,-2.1611,-2.1809,-2.2099,-2.227,-2.2296,-2.2468,-2.2573,-2.2521,-2.2191,-2.2033,-2.2191,-2.2072,-2.2151,-2.2494,-2.2178,-2.2046,-2.2204,-2.2059,-2.1954,-2.194,-2.1967,-2.1901,-2.1782,-2.1532,-2.1215,-2.107,-2.1083,-2.0979,-2.1041,-2.318,-2.502,-2.5822,-3.0303,-3.4444,-3.8638,-4.0438,-4.0761,-4.1033,-4.0955,-4.0929,-4.1033,-4.1007,-4.1007,-4.0695,-4.0929,-4.0929,-4.0539,-4.0721,-4.0851,-4.0484,-4.1542,-4.3991,-4.6714,-4.9054,-5.1665,-0.2066,-0.1797,-0.0514,0.0,0.0,0.0,0.0,0.0,0.0,0.0,0.0,-0.2865,-0.3919,-0.3954,-0.3866,-0.3866,-0.4071,-0.5862,-0.6717,-0.7,-0.863,-0.9589,-0.9731,-0.9821,-0.9899,-1.011,-1.1724,-1.2398,-1.3057,-1.5967,-1.8744,-2.0575,-2.0833,-2.0833,-2.0833,-2.0833,-2.078,-2.0661,-2.0477,-2.0279,-2.0042,-1.9765,-1.9527,-1.9276,-1.9527,-1.962,-1.962,-1.9738,-1.9804,-1.9818,-2.0081,-2.0226,-2.0226,-2.0503,-2.0661,-2.0661,-2.0767,-2.0912,-2.0966,-2.1097,-2.1045,-2.1334,-2.1624,-2.1729,-2.1637,-2.1888,-2.1993,-2.1861,-2.1558,-2.14,-2.1558,-2.1453,-2.1479,-2.1729,-2.1571,-2.1413,-2.1584,-2.1453,-2.14,-2.1518,-2.1532,-2.1532,-2.1505,-2.1479,-2.1334,-2.111,-2.2432,-2.3065,-2.3163,-2.5825,-2.8404,-3.0215,-3.397,-3.8026,-3.9554,-4.0357,-4.0305,-4.0305,-4.0331,-4.0331,-4.0279,-4.0331,-4.0331,-4.0305,-4.0254,-4.0098,-3.989,-4.0098,-4.0202,-4.0263,-4.1755,-4.494,-4.8936,-5.013,-5.2202,-0.544,-0.488,-0.2257,-0.0878,0.0,0.0,0.0,0.0,0.0,0.0,0.0,-0.6959,-0.9326,-0.9569,-0.9324,-0.9205,-0.9199,-0.9794,-0.9975,-0.9964,-1.0227,-1.0426,-1.0814,-1.0581,-1.0463,-1.1129,-1.4042,-1.5673,-1.584,-1.8986,-2.0678,-2.0833,-2.0833,-2.082,-2.0793,-2.0793,-2.0648,-2.0371,-2.0332,-2.0055,-1.9394,-1.9224,-1.9092,-1.9092,-1.9092,-1.9092,-1.9132,-1.9236,-1.9367,-1.9394,-1.9778,-1.9936,-1.9976,-2.02,-2.0358,-2.0371,-2.0595,-2.0754,-2.0754,-2.0754,-2.0754,-2.078,-2.1031,-2.1097,-2.0872,-2.1004,-2.0874,-2.0806,-2.0754,-2.078,-2.0793,-2.078,-2.082,-2.0965,-2.0846,-2.0767,-2.082,-2.078,-2.0859,-2.1005,-2.1097,-2.1149,-2.111,-2.1242,-2.1453,-2.1756,-2.4226,-2.5956,-2.6176,-2.8855,-3.1965,-3.5373,-3.7708,-3.9094,-3.9304,-3.9227,-3.9356,-3.933,-3.9253,-3.933,-3.9526,-3.9474,-3.9253,-3.9656,-3.9356,-3.9448,-3.9319,-3.9319,-3.9345,-4.0084,-4.1974,-4.5158,-4.9517,-5.0158,-5.0708,-0.8514,-0.8486,-0.7743,-0.7369,-0.7369,-0.7394,-0.734,-0.738,-0.7379,-0.7306,-0.7482,-0.8867,-0.9568,-0.9563,-0.9563,-0.9563,-0.9914,-1.2166,-1.3262,-1.3537,-1.582,-1.7042,-1.7153,-1.7165,-1.7403,-1.7713,-1.854,-1.9049,-1.9236,-2.0071,-2.0609,-2.082,-2.0833,-2.0714,-2.0503,-2.049,-2.0358,-2.0081,-1.9844,-1.9554,-1.9092,-1.9014,-1.9092,-1.9092,-1.9079,-1.9092,-1.9092,-1.9027,-1.9185,-1.9198,-1.9475,-1.9646,-1.9646,-1.991,-2.0068,-2.0081,-2.0134,-2.0174,-2.0174,-2.0174,-2.0174,-2.0174,-2.0437,-2.0569,-2.0477,-2.016,-1.9774,-1.9747,-2.0042,-2.0266,-2.0411,-2.0305,-2.0358,-2.0754,-2.045,-2.0266,-2.0437,-2.0305,-2.0213,-2.0253,-2.0279,-2.0292,-2.0279,-2.0332,-2.1379,-2.3548,-2.6469,-2.824,-2.8729,-3.1289,-3.47,-3.746,-3.8908,-3.9149,-3.9227,-3.9175,-3.9267,-3.9227,-3.9175,-3.9215,-3.9241,-3.9293,-3.9201,-3.9241,-3.9267,-3.9085,-3.8799,-3.8981,-3.9692,-4.0964,-4.2324,-4.4802,-4.9795,-5.1654,-5.3915,-1.1802,-1.1609,-1.0147,-0.9544,-0.9544,-0.9544,-0.9499,-0.9796,-1.2549,-1.3927,-1.3856,-1.3832,-1.3942,-1.3847,-1.3965,-1.3847,-1.3965,-1.5744,-1.727,-1.8673,-1.8948,-1.9883,-2.1211,-1.9914,-1.9409,-1.958,-1.9712,-1.9857,-1.9878,-2.0147,-2.0292,-2.045,-2.0569,-2.0556,-2.0411,-2.0398,-2.0187,-1.9778,-2.1875,-2.2813,-2.2552,-2.2459,-2.225,-2.2199,-2.2358,-2.2552,-2.2552,-2.2552,-2.2552,-2.2552,-2.195,-2.1433,-2.1008,-2.0608,-2.024,-1.9765,-1.991,-1.9923,-1.9791,-1.991,-1.9923,-1.9791,-1.991,-1.9949,-1.9804,-1.9501,-1.933,-1.921,-1.9475,-1.9646,-1.9765,-1.9659,-1.9699,-2.0015,-1.9778,-1.9646,-1.9752,-1.9659,-1.9633,-1.9752,-1.9778,-1.9831,-1.9963,-2.0099,-2.1196,-2.4099,-2.5792,-2.8325,-3.1122,-3.4017,-3.652,-3.8077,-3.8565,-3.8565,-3.854,-3.8565,-3.8565,-3.8565,-3.8565,-3.8565,-3.8565,-3.854,-3.854,-3.8565,-3.854,-3.841,-3.8202,-3.8384,-3.9599,-4.1299,-4.3027,-4.5847,-4.9595,-5.3021,-5.5069,-1.5679,-1.4786,-1.2056,-1.0866,-1.0866,-1.0866,-1.0866,-1.1342,-1.7176,-1.9447,-1.9079,-1.9053,-1.9053,-1.9092,-1.904,-1.9053,-1.9092,-1.9092,-2.048,-2.2929,-2.0334,-2.054,-2.285,-2.0381,-1.9312,-1.9678,-1.9924,-2.0221,-2.0678,-2.1052,-2.1249,-2.1348,-2.1573,-2.17,-2.156,-2.1658,-2.1305,-2.0868,-2.5126,-2.7211,-2.6802,-2.6616,-2.6357,-2.6013,-2.6588,-2.6893,-2.6556,-2.6873,-2.6873,-2.6337,-2.5184,-2.4146,-2.3314,-2.2172,-2.1244,-2.051,-2.0548,-2.0361,-2.0022,-2.0011,-1.9943,-1.9488,-1.9354,-1.9343,-1.9184,-1.9066,-1.9092,-1.9092,-1.9106,-1.9092,-1.9092,-1.9119,-1.9132,-1.9132,-1.9106,-1.9092,-1.9132,-1.9132,-1.9211,-1.9328,-1.9354,-1.958,-1.9887,-2.0308,-2.1854,-2.453,-2.6585,-2.822,-3.3455,-3.6479,-3.7595,-3.7769,-3.7769,-3.7769,-3.7874,-3.7769,-3.7848,-3.7769,-3.7734,-3.79,-3.79,-3.79,-3.8126,-3.8333,-3.8213,-3.8047,-3.8558,-3.8306,-3.985,-4.246,-4.5142,-4.7883,-5.0982,-5.352,-5.5325,-2.0626,-1.8252,-1.7661,-1.7413,-1.7294,-1.7306,-1.7413,-1.7649,0.0,0.0,0.0,-1.8855,-1.8881,-1.9066,-1.8855,-1.8868,-1.9079,-1.9092,-1.9329,-1.9891,-1.9541,-1.9663,-2.0227,-1.9971,-2.0733,-2.2523,-2.2588,-2.3941,-2.6384,-2.6574,-2.694,-2.744,-2.755,-2.7586,-2.7568,-2.736,-2.7312,-2.7507,-2.836,-2.8455,-2.7881,-2.7848,-2.7568,-2.6809,-2.8102,-2.7969,-2.6423,-2.8252,-2.8098,-2.5422,-2.6207,-2.6178,-2.4664,-2.4799,-2.5093,-2.5253,-2.4122,-2.3042,-2.235,-2.1067,-2.0029,-1.9158,-1.9053,-1.9406,-2.0154,-1.943,-1.9092,-1.9092,-1.9092,-1.9092,-1.9092,-1.9092,-1.9092,-1.9092,-1.9092,-1.9092,-1.9092,-1.9092,-1.9106,-1.9158,-1.9185,-1.9198,-1.9264,-2.139,-2.4298,-2.7214,-2.9606,-3.3015,-3.6157,-3.7446,-3.7769,-3.7769,-3.7769,-3.7769,-3.7769,-3.7769,-3.7769,-3.7769,-3.7769,-3.7769,-3.7769,-3.7769,-3.8729,-4.0547,-3.9151,-3.9066,-4.0658,-4.1102,-4.229,-4.5002,-4.7817,-5.084,-5.3514,-5.5191,-5.5999,-2.5131,-2.3865,-2.3748,-2.3633,0.0,-2.3666,-2.3418,-2.2961,-2.4539,-2.3531,-2.0687,-2.0655,-1.9771,-1.8644,-1.8512,-1.9313,-2.0687,-2.0702,-2.2275,-2.5089,-2.3501,-2.3537,-2.4963,-2.3271,-2.3082,-2.4058,-2.4148,-2.4909,-2.6381,-2.6381,-2.6818,-2.7454,-2.7665,-2.755,-2.7358,-2.8241,-3.0809,-3.495,-3.4566,-3.4126,-3.3625,-3.3509,-3.2696,-3.1123,-3.3041,0.0,0.0,0.0,0.0,0.0,0.0,0.0,0.0,0.0,0.0,-2.6374,-2.5027,-2.4035,-2.3572,-2.2757,-2.2021,-2.1314,-2.1246,-2.1656,-2.2637,-2.1991,-2.2125,-2.3205,-2.2544,-2.1926,-2.1523,-2.142,-2.0833,-1.921,-1.9092,-1.9092,-1.9092,-1.9092,-1.9092,-1.9092,-1.9092,-1.9092,-1.9092,-2.1773,-2.4898,-2.7916,-3.1141,-3.4157,-3.7066,-3.7769,-3.7769,-3.7769,-3.7769,-3.7769,-3.7769,-3.7769,-3.7769,-3.7769,-3.7769,-3.8306,-3.9598,-3.9906,-4.0241,-4.1517,-4.218,-4.1878,-4.229,-4.3252,-4.5111,-4.7924,-4.9743,-5.1616,-5.4387,-5.5658,-5.6303,-2.874,-2.8008,-2.8028,-2.7812,-2.7499,-2.9123,-2.8908,-2.7382,-2.7462,-2.5848,-2.3204,-2.3136,-2.193,-1.9896,-1.9839,-2.1054,-2.3092,-2.3204,-2.57,-3.0219,-2.7266,-2.7237,-2.9276,-2.6478,-2.5321,-2.5632,-2.5632,-2.5984,-2.6481,-2.6481,-2.6829,-2.7577,-2.7732,-2.7624,-2.7639,0.0,0.0,0.0,-4.0257,-3.9973,-3.9497,-3.9508,-3.8432,-3.6319,-3.8579,0.0,-3.7063,-3.8936,-3.9771,-3.9013,-3.8055,0.0,0.0,0.0,0.0,0.0,0.0,0.0,0.0,0.0,0.0,0.0,-2.4409,-2.4981,-2.5151,-2.4938,-2.546,-2.708,-2.6092,-2.5029,-2.431,-2.4229,-2.3103,-2.016,-1.9822,-1.9615,-1.9079,-1.9092,-1.9092,-1.9092,-1.9551,-1.9905,-2.0376,-2.3264,-2.6525,-2.9186,-3.1943,-3.4839,-3.7405,-3.7769,-3.7769,-3.7769,-3.7769,-3.7769,-3.7769,-3.7769,-3.7856,-3.8531,-3.8531,-3.971,-4.218,-4.2842,-4.2842,-4.391,-4.5111,-4.5437,-4.4238,-4.5437,-4.7817,-5.0203,-5.1158,-5.2213,-5.437,-5.581,-5.6892,-3.0193,-2.6905,-2.6886,-2.6867,-2.7251,-3.2654,-3.3128,-3.0015,-3.0523,-2.8951,-2.605,-2.5799,-2.5747,-2.5608,-2.5273,-2.5529,-2.605,-2.6069,-2.6189,-2.6599,-2.6291,-2.6104,-2.593,-2.579,-2.6787,-2.8579,-2.8579,-2.9905,-3.2294,-3.2395,-3.29,-3.3741,-3.3405,-3.3817,-3.5048,-3.8065,-3.961,-3.9661,-4.1774,-4.2468,-4.1653,-4.2585,-4.2192,-4.0542,-4.261,-4.2849,-4.1062,-4.3135,-4.2839,-3.9286,-4.0325,-3.9945,-3.7699,-3.6603,-3.5491,0.0,-3.1605,0.0,0.0,0.0,0.0,0.0,0.0,0.0,0.0,-2.6877,-2.6968,-2.6118,-2.6266,-2.6385,-2.622,-2.622,-2.5253,-2.2781,-2.2485,-2.1572,-1.9406,-1.9092,-1.9092,-1.9092,-2.142,-2.3163,-2.3264,-2.8243,-3.1828,-3.24,-3.4904,-3.7076,-3.7743,-3.7717,-3.7717,-3.7769,-3.7769,-3.7882,-3.7969,-3.7969,-3.8842,-4.088,-4.1435,-4.2511,-4.522,-4.5763,-4.6522,-4.8568,-4.7817,-4.7278,-4.9317,-4.9743,-5.031,-5.084,-5.2633,-5.4116,-5.4343,-5.6362,-5.8406,-3.4269,-3.2229,-3.2229,-3.3682,-3.6083,-3.8361,-3.7591,-3.4798,-3.5034,-3.3465,-3.0725,-2.9021,-2.756,-2.6227,-2.6051,-2.6922,-2.8493,-2.8493,-2.9083,-3.0072,-2.9792,-2.9406,-2.8895,-2.8985,-2.9511,-3.0486,-3.0745,-3.2079,-3.4213,-3.4335,-3.5186,-3.7035,-3.6747,-3.6789,-3.7064,-3.9731,-4.0972,-4.069,-4.3602,-4.4753,-4.4031,-4.4329,-4.3631,-4.2025,-4.4293,-4.4631,-4.256,-4.509,-4.5673,-4.3628,-4.4002,-4.3678,-4.2256,-4.0397,-3.8758,0.0,0.0,0.0,0.0,0.0,0.0,0.0,0.0,0.0,0.0,0.0,-3.105,-2.892,-3.0044,-3.0465,-2.9536,-2.9756,-2.8702,-2.5644,-2.5332,-2.4831,-2.3431,-2.3648,-2.3698,-2.327,-2.4792,-2.5833,-2.5947,-2.9711,-3.2651,-3.3062,-3.6119,-3.8641,-3.8941,-3.847,-3.8026,-3.8053,-3.7871,-3.8194,-3.9906,-4.1435,-4.2952,-4.4019,-4.4347,-4.5329,-4.8139,-4.8675,-4.9103,-5.0416,-5.0982,-5.1193,-5.084,-5.1933,-5.3021,-5.312,-5.3431,-5.3936,-5.4871,-5.7078,-5.9416,-3.9271,-3.8558,-3.7904,-3.9547,-4.2648,-4.207,-4.0761,-3.9125,-3.9025,-3.7865,-3.5639,-3.3433,-3.1051,-2.8473,-2.8362,-2.9708,-3.2216,-3.2216,-3.3223,-3.4935,-3.4469,-3.3865,-3.3151,-3.308,-3.3041,-3.3041,-3.3405,-3.4346,-3.5578,-3.5668,-3.6477,-3.8066,-3.9323,-3.985,-3.9731,-4.1726,-4.2978,-4.3594,-4.6368,-4.7644,-4.7356,-4.7191,-4.6064,-4.3931,-4.6657,-4.7261,-4.5235,-4.7731,-4.8776,-4.7964,-4.7226,-4.6394,-4.5291,-4.2399,0.0,0.0,0.0,0.0,0.0,0.0,0.0,0.0,0.0,-3.7278,-3.2976,0.0,-3.4599,0.0,-3.3495,-3.3919,-3.2367,-3.2694,0.0,0.0,-2.79,-2.7668,-2.6747,-2.7172,-2.7369,-2.6814,-2.7722,-2.8449,-2.8449,-3.1347,-3.375,-3.478,-3.7689,-3.9907,-4.0367,-3.9885,-3.9532,-3.9155,-3.9161,-3.9906,-4.204,-4.4443,-4.6113,-4.7138,-4.7278,-4.8354,-5.1264,-5.1722,-5.1827,-5.1933,-5.3581,-5.3925,-5.1996,-5.3181,-5.4736,-5.5007,-5.4092,-5.3792,-5.603,-5.8312,-6.0336,-4.4896,-4.371,-4.1209,-4.0525,-4.0979,-4.0947,-4.1266,-4.1873,-4.1873,-4.1326,-4.0336,-4.0046,-3.8607,-3.6181,-3.5306,0.0,-3.892,-3.892,-3.8952,-3.9485,-3.9454,-3.8726,-3.746,-3.7365,-3.7454,-3.7334,-3.7454,-3.7543,-3.7689,-3.7689,-3.7169,-3.649,-4.1045,-4.4205,-4.5846,-4.7012,-4.8143,-4.9151,-5.0695,-5.1807,-5.2089,-5.2777,-5.1242,-4.7403,-5.1112,-5.2389,-5.0788,-5.2389,-5.2481,-5.0498,-4.884,-4.6675,-4.3953,0.0,0.0,0.0,0.0,0.0,0.0,0.0,0.0,0.0,0.0,0.0,0.0,0.0,0.0,0.0,-3.5006,0.0,-3.3902,-3.3688,0.0,0.0,0.0,-2.9366,-2.7095,-2.7016,-2.7205,-2.7185,0.0,0.0,-3.0986,-3.4597,-3.7767,-3.982,-4.0686,-4.1288,-4.1318,-4.2442,-4.2755,-4.1423,-4.2294,-4.3266,-4.381,-4.4642,-4.6492,-4.9608,-5.0416,-5.1334,-5.3858,-5.4521,-5.4662,-5.4379,-5.4766,-5.4643,-5.3783,-5.3835,-5.4416,-5.5752,-5.5211,-5.5278,-5.7698,-6.0158,-6.2241,-4.7123,-5.0485,-4.7889,-4.7497,-4.8339,-4.6798,-4.5679,-4.4923,-4.3852,-4.1283,-3.7786,-3.7786,-3.6708,-3.4886,-3.4385,0.0,0.0,0.0,-3.7098,-3.7941,-3.7778,-3.7225,-3.6539,-3.7151,-3.7291,-3.6904,-3.767,-3.8359,-3.8945,-3.8945,-3.931,-4.0108,0.0,0.0,-4.5083,-4.7358,-4.9038,-5.0041,-5.1594,-5.2535,-5.2692,-5.2963,-5.2355,-5.0782,-5.2877,-5.3629,-5.2982,-5.4123,-5.3619,-5.125,-4.9992,-4.7534,0.0,0.0,0.0,0.0,0.0,0.0,0.0,0.0,0.0,0.0,0.0,-4.014,-3.7288,0.0,0.0,0.0,-3.6139,-3.5921,-3.5999,-3.703,0.0,0.0,0.0,0.0,0.0,0.0,0.0,-3.4691,-3.4618,-3.4641,-3.5056,-3.7077,-3.8996,-4.0308,-4.1246,-4.2221,-4.3438,0.0,-4.4087,-4.3782,-4.3757,-4.4427,-4.6585,-4.6924,-4.8054,-5.1314,-5.22,-5.3047,-5.415,-5.4671,-5.4784,-5.4507,-5.4253,-5.3987,-5.3152,-5.5024,-5.6639,-5.6655,-5.6423,-5.7029,-5.9225,-6.1185,-6.2975,-4.9073,0.0,0.0,0.0,0.0,-5.0399,-4.8958,-4.8307,-4.6284,-4.3038,-3.8995,-3.8899,0.0,0.0,0.0,0.0,0.0,0.0,-3.8615,-3.9431,-3.9711,-3.9426,-3.8812,-3.9833,-3.988,-3.914,-4.0411,-4.1042,-4.1151,-4.0643,-4.1108,-4.2443,0.0,0.0,0.0,0.0,-5.0886,-5.1901,-5.367,-5.4822,-5.5181,-5.4725,-5.4865,-5.5682,-5.602,-5.5911,-5.5363,-5.5551,-5.4508,-5.2138,-5.0379,0.0,0.0,0.0,0.0,0.0,0.0,0.0,0.0,0.0,0.0,0.0,0.0,0.0,0.0,0.0,0.0,0.0,0.0,0.0,-3.8183,-3.9069,-3.8924,0.0,0.0,0.0,0.0,0.0,0.0,0.0,0.0,0.0,-3.8707,-3.97,-4.059,0.0,0.0,-4.3488,-4.5239,-4.6466,-4.696,-4.6491,-4.6965,0.0,-4.9904,-5.0028,-5.0715,-5.278,-5.387,-5.4675,-5.501,-5.4707,-5.4323,-5.4573,-5.4495,-5.4223,-5.36,-5.5639,-5.7356,-5.7627,-5.7535,-5.8309,-6.0369,-6.1274,-6.2432,0.0,0.0,0.0,0.0,0.0,0.0,0.0,0.0,-4.9624,-4.7802,0.0,-4.5868,0.0,0.0,0.0,0.0,0.0,-4.5008,0.0,0.0,-4.7567,-4.7886,-4.6575,-4.6799,-4.6806,-4.623,-4.7071,-4.6606,-4.4664,-4.3197,0.0,0.0,0.0,0.0,0.0,0.0,-5.4818,-5.5749,-5.7953,-5.99,-6.0962,-5.9502,-6.0039,-6.2747,-6.1638,-6.02,-5.8583,-5.6961,-5.528,-5.3304,-4.9705,0.0,0.0,0.0,0.0,0.0,0.0,0.0,0.0,0.0,0.0,0.0,0.0,0.0,0.0,0.0,0.0,0.0,0.0,0.0,0.0,-3.8859,0.0,0.0,0.0,0.0,0.0,0.0,0.0,0.0,0.0,0.0,-4.1707,-4.263,-4.3481,-4.4102,0.0,0.0,0.0,0.0,-5.2418,-4.9521,-5.3033,-5.5281,-5.3021,-5.3598,-5.4382,-5.4473,0.0,0.0,-5.7803,-5.5126,-5.3569,-5.5664,-5.5975,-5.5839,-5.5091,-5.5522,-5.6515,-5.833,-5.8795,-5.9221,-6.1001,-6.1206,-6.1481,0.0,0.0,0.0,0.0,0.0,0.0,0.0,0.0,0.0,-4.7623,0.0,-4.4407,0.0,0.0,0.0,0.0,0.0,0.0,0.0,0.0,-4.4912,-4.4744,-4.3343,-4.4509,-4.3931,0.0,-4.3488,-4.434,0.0,0.0,0.0,0.0,0.0,0.0,0.0,0.0,-5.4879,-5.5902,-5.8245,-6.0126,-6.1382,-6.0856,-6.1455,-6.3302,-6.2924,-6.1416,-5.8914,-5.8749,-5.6675,0.0,0.0,0.0,0.0,0.0,0.0,0.0,0.0,0.0,0.0,0.0,0.0,0.0,0.0,0.0,0.0,0.0,0.0,0.0,0.0,0.0,0.0,0.0,-4.0831,0.0,0.0,0.0,0.0,0.0,0.0,0.0,0.0,0.0,-4.6468,-4.5805,-4.5217,-4.6018,-4.5854,-4.6055,-4.71,0.0,0.0,0.0,0.0,0.0,0.0,0.0,-5.4923,-5.5261,-5.6007,-5.697,-5.8091,-5.6981,-5.6196,-5.7174,0.0,0.0,-5.6729,-5.8802,-6.0529,-6.127,-6.2691,-6.3734,-6.3641,-6.4637,-6.5648,0.0,0.0,0.0,0.0,0.0,0.0,0.0,0.0,0.0,-4.8031,-4.4735,0.0,0.0,0.0,0.0,0.0,0.0,0.0,0.0,0.0,0.0,0.0,-4.4058,-4.5282,0.0,0.0,0.0,0.0,0.0,0.0,0.0,0.0,0.0,0.0,0.0,0.0,-5.587,-5.6808,-5.9407,-6.1575,-6.3318,-6.3832,-6.4517,-6.5302,-6.5432,-6.3825,-6.0419,0.0,0.0,0.0,0.0,0.0,0.0,0.0,0.0,0.0,0.0,0.0,0.0,0.0,0.0,0.0,0.0,0.0,0.0,0.0,0.0,0.0,0.0,0.0,0.0,0.0,-4.3145,0.0,0.0,0.0,0.0,0.0,0.0,0.0,0.0,0.0,0.0,0.0,-4.8325,-4.8387,-4.8251,-4.8534,-4.9246,-5.1761,-5.3545,0.0,0.0,0.0,0.0,0.0,0.0,0.0,0.0,0.0,0.0,0.0,0.0,0.0,0.0,-5.7766,-5.8913,-6.0773,-6.2081,-6.204,0.0,0.0,0.0,0.0,0.0,0.0,0.0,0.0,0.0,0.0,0.0,0.0,0.0,0.0,0.0,-4.7207,0.0,0.0,-4.4636,0.0,0.0,0.0,0.0,0.0,0.0,0.0,0.0,0.0,0.0,0.0,0.0,0.0,0.0,0.0,0.0,0.0,0.0,0.0,0.0,0.0,0.0,-5.7856,-5.8464,-6.1641,-6.4612,-6.7155,-6.8615,-6.9264,-6.9227,-6.9573,-6.7723,-6.3165,0.0,0.0,0.0,0.0,0.0,0.0,0.0,0.0,0.0,0.0,0.0,0.0,0.0,0.0,0.0,0.0,0.0,0.0,0.0,0.0,0.0,0.0,0.0,0.0,0.0,0.0,-4.4997,-4.4741,-4.4536,0.0,0.0,0.0,0.0,0.0,0.0,0.0,0.0,0.0,0.0,-5.2118,-5.2744,-5.2843,-5.5669,-5.7307,-5.6175,-5.897,-6.0537,-5.8585,-5.8522,-5.9517,0.0,0.0,0.0,0.0,0.0,0.0,0.0,0.0,0.0,0.0,0.0,0.0,0.0,0.0,0.0,0.0,0.0,0.0,0.0,0.0,0.0,0.0,0.0,0.0,0.0,0.0,0.0,0.0,0.0,0.0,0.0,0.0,0.0,0.0,0.0,0.0,0.0,0.0,0.0,0.0,0.0,0.0,0.0,0.0,0.0,0.0,0.0,0.0,0.0,0.0,0.0,0.0,0.0,0.0,-5.887,-5.8895,-6.277,-6.5768,-6.8072,-6.9549,-7.075,-7.149,-7.172,-6.9912,0.0,0.0,0.0,0.0,0.0,0.0,0.0,0.0,0.0,0.0,0.0,0.0,0.0,0.0,0.0,0.0,0.0,0.0,0.0,0.0,0.0,0.0,0.0,0.0,0.0,0.0,0.0,0.0,-4.6046,-4.6045,-4.7616,0.0,0.0,0.0,0.0,0.0,0.0,0.0,0.0,0.0,0.0,-5.6155,-5.7652,-5.8284,-5.8419,-5.7952,-6.0703,-6.2643,-6.1881,-6.2336,-6.2784,-6.2956,0.0,0.0,0.0,0.0,0.0,0.0,0.0,0.0,0.0,0.0,0.0,0.0,0.0,0.0,0.0,0.0,0.0,0.0,0.0,0.0,0.0,0.0,0.0,0.0,0.0,0.0,0.0,0.0,0.0,0.0,0.0,0.0,0.0,0.0,0.0,0.0,0.0,0.0,0.0,0.0,0.0,0.0,0.0,0.0,0.0,0.0,0.0,0.0,0.0,0.0,0.0,0.0,0.0,-5.9667,-5.9966,-6.4364,-6.7971,-7.0598,-7.2248,-7.3479,-7.4241,-7.3643,-7.1154,0.0,0.0,0.0,0.0,0.0,0.0,0.0,0.0,0.0,0.0,0.0,0.0,0.0,0.0,0.0,0.0,0.0,0.0,0.0,0.0,0.0,0.0,0.0,0.0,0.0,0.0,0.0,0.0,-4.6367,-4.6319,-4.8627,0.0,0.0,0.0,0.0,0.0,0.0,0.0,0.0,0.0,0.0,-6.0112,-6.1205,-6.1381,0.0,0.0,-6.2885,-6.4309,-6.3848,-6.3786,-6.4111,-6.5053,-6.4913,0.0,0.0,0.0,0.0,0.0,0.0,0.0,0.0,0.0,0.0,0.0,0.0,0.0,0.0,0.0,0.0,0.0,0.0,0.0,0.0,0.0,0.0,0.0,0.0,0.0,0.0,0.0,0.0,0.0,0.0,0.0,0.0,0.0,0.0,0.0,0.0,0.0,0.0,0.0,0.0,0.0,0.0,0.0,0.0,0.0,0.0,0.0,0.0,0.0,0.0,0.0,0.0,0.0,-6.1408,-6.6433,-7.0833,-7.427,-7.612,-7.7102,-7.7209,-7.5659,-7.1969,0.0,0.0,0.0,0.0,0.0,0.0,0.0,0.0,0.0,0.0,0.0,0.0,0.0,0.0,0.0,0.0,0.0,0.0,0.0,0.0,0.0,0.0,0.0,0.0,0.0,0.0,0.0,0.0,0.0,0.0,0.0,0.0,0.0,0.0,0.0,0.0,0.0,0.0,0.0,0.0,0.0,-6.4439,-6.3838,-6.478,-6.5299,0.0,-6.5421,-6.6051,-6.5421,-6.4155,-6.4387,-6.8186,0.0,0.0,0.0,0.0,0.0,0.0,0.0,0.0,0.0,0.0,0.0,0.0,0.0,0.0,0.0,0.0,0.0,0.0,0.0,0.0,0.0,0.0,0.0,0.0,0.0,0.0,0.0,0.0,0.0,0.0,0.0,0.0,0.0,0.0,0.0,0.0,0.0,0.0,0.0,0.0,0.0,0.0,0.0,0.0,0.0,0.0,0.0,0.0,0.0,0.0,0.0,0.0,0.0,0.0,-6.1925,-6.857,-7.3118,-7.5411,-7.8605,-8.0012,-7.9611,-7.8779,0.0,0.0,0.0,0.0,0.0,0.0,0.0,0.0,0.0,0.0,0.0,0.0,0.0,0.0,0.0,0.0,0.0,0.0,0.0,0.0,0.0,0.0,0.0,0.0,0.0,0.0,0.0,-4.863,0.0,0.0,0.0,0.0,0.0,0.0,0.0,0.0,0.0,0.0,0.0,0.0,0.0,0.0,-6.7033,-6.7371,-6.8177,-6.8466,0.0,0.0,-7.0724,-7.3036,-7.048,-6.8635,0.0,0.0,0.0,0.0,0.0,0.0,0.0,0.0,0.0,0.0,0.0,0.0,0.0,0.0,0.0,0.0,0.0,0.0,0.0,0.0,0.0,0.0,0.0,0.0,0.0,0.0,0.0,0.0,0.0,0.0,0.0,0.0,0.0,0.0,0.0,0.0,0.0,0.0,0.0,0.0,0.0,0.0,0.0,0.0,0.0,0.0,0.0,0.0,0.0,0.0,0.0,0.0,0.0,0.0,-6.083,-6.3742,-6.9785,-7.4912,-7.8784,-8.1064,-8.2461,-8.3187,-8.1165,-7.745,0.0,0.0,0.0,0.0,0.0,0.0,0.0,0.0,0.0,0.0,0.0,0.0,0.0,0.0,0.0,0.0,0.0,0.0,0.0,0.0,0.0,0.0,0.0,0.0,0.0,0.0,0.0,0.0,0.0,0.0,0.0,0.0,0.0,0.0,0.0,0.0,0.0,0.0,0.0,0.0,0.0,0.0,-6.9882,-7.0493,0.0,0.0,0.0,-7.277,-7.4539,0.0,0.0,0.0,0.0,0.0,0.0,0.0,0.0,0.0,0.0,0.0,0.0,0.0,0.0,0.0,0.0,0.0,0.0,0.0,0.0,0.0,0.0,0.0,0.0,0.0,0.0,0.0,0.0,0.0,0.0,0.0,0.0,0.0,0.0,0.0,0.0,0.0,0.0,0.0,0.0,0.0,0.0,0.0,0.0,0.0,0.0,0.0,0.0,0.0,0.0,0.0,0.0,0.0,0.0,0.0,0.0,0.0,-6.5682,-7.0927,-7.6657,-8.2657,-8.3437,-8.4653,-8.6571,-8.2843,-7.8676,0.0,0.0,0.0,0.0,0.0,0.0,0.0,0.0,0.0,0.0,0.0,0.0,0.0,0.0,0.0,0.0,0.0,0.0,0.0,0.0,0.0,0.0,0.0,0.0,0.0,0.0,0.0,0.0,0.0,0.0,0.0,0.0,0.0,0.0,0.0,0.0,0.0,0.0,0.0,0.0,0.0,-6.9329,-7.1338,-7.2073,-7.2917,0.0,0.0,-7.3756,-7.3309,-7.2837,0.0,0.0,0.0,0.0,0.0,0.0,0.0,0.0,0.0,0.0,0.0,0.0,0.0,0.0,0.0,0.0,0.0,0.0,0.0,0.0,0.0,0.0,0.0,0.0,0.0,0.0,0.0,0.0,0.0,0.0,0.0,0.0,0.0,0.0,0.0,0.0,0.0,0.0,0.0,0.0,0.0,0.0,0.0,0.0,0.0,0.0,0.0,0.0,0.0,0.0,0.0,0.0,0.0,0.0,0.0,0.0,-6.5982,-7.3561,-7.9379,-8.3034,-8.5133,-8.6351,-8.6769,-8.2948,-7.94,0.0,0.0,0.0,0.0,0.0,0.0,0.0,0.0,0.0,0.0,0.0,0.0,0.0,0.0,0.0,0.0,0.0,0.0,0.0,0.0,0.0,0.0,0.0,0.0,0.0,0.0,0.0,0.0,0.0,0.0,0.0,0.0,0.0,0.0,0.0,0.0,0.0,0.0,0.0,0.0,0.0,-7.1059,-7.0093,-7.216,0.0,0.0,0.0,0.0,-7.6806,-7.7503,0.0,0.0,0.0,0.0,0.0,0.0,0.0,0.0,0.0,0.0,0.0,0.0,0.0,0.0,0.0,0.0,0.0,0.0,0.0,0.0,0.0,0.0,0.0,0.0,0.0,0.0,0.0,0.0,0.0,0.0,0.0,0.0,0.0,0.0,0.0,0.0,0.0,0.0,0.0,0.0,0.0,0.0,0.0,0.0,0.0,0.0,0.0,0.0,0.0,0.0,0.0,0.0,0.0,0.0,0.0,0.0,-6.8217,-7.389,-7.9378,-8.4715,-8.6229,-8.7236,-8.7804,-8.3478,-7.9619,0.0,0.0,0.0,0.0,0.0,0.0,0.0,0.0,0.0,0.0,0.0,0.0,0.0,0.0,0.0,0.0,0.0,0.0,0.0,0.0,0.0,0.0,0.0,0.0,0.0,0.0,0.0,0.0,0.0,0.0,0.0,0.0,0.0,0.0,0.0,0.0,0.0,0.0,0.0,0.0,-7.2393,-7.3133,-7.2236,0.0,0.0,0.0,0.0,0.0,0.0,-7.9559,-8.0037,0.0,0.0,0.0,0.0,0.0,0.0,0.0,0.0,0.0,0.0,0.0,0.0,0.0,0.0,0.0,0.0,0.0,0.0,0.0,0.0,0.0,0.0,0.0,0.0,0.0,0.0,0.0,0.0,0.0,0.0,0.0,0.0,0.0,0.0,0.0,0.0,0.0,0.0,0.0,0.0,0.0,0.0,0.0,0.0,0.0,0.0,0.0,0.0,0.0,0.0,0.0,0.0,0.0,0.0,0.0,-7.0496,-7.3732,-7.8875,-8.6132,-8.6856,-8.7709,-8.8819,-8.3788,-7.9625,-7.6723,0.0,0.0,0.0,0.0,0.0,0.0,0.0,0.0,0.0,0.0,0.0,0.0,0.0,0.0,0.0,0.0,0.0,0.0,0.0,0.0,0.0,0.0,0.0,0.0,0.0,0.0,0.0,0.0,0.0,0.0,0.0,0.0,0.0,0.0,0.0,0.0,0.0,0.0,0.0,-7.4164,-7.5599,0.0,0.0,0.0,0.0,0.0,0.0,0.0,0.0,-8.1704,0.0,0.0,0.0,0.0,0.0,0.0,0.0,0.0,0.0,0.0,0.0,0.0,0.0,0.0,0.0,0.0,0.0,0.0,0.0,0.0,0.0,0.0,0.0,0.0,0.0,0.0,0.0,0.0,0.0,0.0,0.0,0.0,0.0,0.0,0.0,0.0,0.0,0.0,0.0,0.0,0.0,0.0,0.0,0.0,0.0,0.0,0.0,0.0,0.0,0.0,0.0,0.0,0.0,0.0,0.0,0.0,-7.5097,-8.041,-8.4864,-8.702,-8.8374,-8.8919,-8.2897,-7.9357,-7.8785,0.0,0.0,0.0,0.0,0.0,0.0,0.0,0.0,0.0,0.0,0.0,0.0,0.0,0.0,0.0,0.0,0.0,0.0,0.0,0.0,0.0,0.0,0.0,0.0,0.0,0.0,0.0,0.0,0.0,0.0,0.0,0.0,0.0,0.0,0.0,0.0,0.0,0.0,-7.6495,-7.7957,0.0,0.0,0.0,0.0,0.0,0.0,0.0,0.0,-8.1823,0.0,0.0,0.0,0.0,0.0,0.0,0.0,0.0,0.0,0.0,0.0,0.0,0.0,0.0,0.0,0.0,0.0,0.0,0.0,0.0,0.0,0.0,0.0,0.0,0.0,0.0,0.0,0.0,0.0,0.0,0.0,0.0,0.0,0.0,0.0,0.0,0.0,0.0,0.0,0.0,0.0,0.0,0.0,0.0,0.0,0.0,0.0,0.0,0.0,0.0,0.0,0.0,0.0,0.0,0.0,0.0,0.0,0.0,-7.9486,-8.3561,-8.6662,-8.8577,-8.912,-8.3905,-8.0544,0.0,0.0,0.0,0.0,0.0,0.0,0.0,0.0,0.0,0.0,0.0,0.0,0.0,0.0,0.0,0.0,0.0,0.0,0.0,0.0,0.0,0.0,0.0,0.0,0.0,0.0,0.0,0.0,0.0,0.0,0.0,0.0,0.0,0.0,0.0,0.0,0.0,0.0,0.0,0.0,0.0,0.0,0.0,0.0,0.0,0.0,0.0,0.0,0.0,0.0,0.0,0.0,0.0,0.0,0.0,0.0,0.0,0.0,0.0,0.0,0.0,0.0,0.0,0.0,0.0,0.0,0.0,0.0,0.0,0.0,0.0,0.0,0.0,0.0,0.0,0.0,0.0,0.0,0.0,0.0,0.0,0.0,0.0,0.0,0.0,0.0,0.0,0.0,0.0,0.0,0.0,0.0,0.0,0.0,0.0,0.0,0.0,0.0,0.0,0.0,0.0,0.0,0.0,0.0,0.0,0.0,0.0,0.0,-7.8511,-8.2172,-8.6235,-8.8756,-8.9525,-8.4634,-8.1238,0.0,0.0,0.0,0.0,0.0,0.0,0.0,0.0,0.0,0.0,0.0,0.0,0.0,0.0,0.0,0.0,0.0,0.0,0.0,0.0,0.0,0.0,0.0,0.0,0.0,0.0,0.0,0.0,0.0,0.0,0.0,0.0,0.0,0.0,0.0,0.0,0.0,0.0,0.0,0.0,0.0,0.0,0.0,0.0,0.0,0.0,0.0,0.0,-8.5238,0.0,0.0,0.0,0.0,0.0,0.0,0.0,0.0,0.0,0.0,0.0,0.0,0.0,0.0,0.0,0.0,0.0,0.0,0.0,0.0,0.0,0.0,0.0,0.0,0.0,0.0,0.0,0.0,0.0,0.0,0.0,0.0,0.0,0.0,0.0,0.0,0.0,0.0,0.0,0.0,0.0,0.0,0.0,0.0,0.0,0.0,0.0,0.0,0.0,0.0,0.0,0.0,0.0,0.0,0.0,0.0,0.0,0.0,0.0,-7.8756,-8.0864,-8.5944,-8.8926,-8.9381,-8.3572,-8.0084,0.0,0.0,0.0,0.0,0.0,0.0,0.0,0.0,0.0,0.0,0.0,0.0,0.0,0.0,0.0,0.0,0.0,0.0,0.0,0.0,0.0,0.0,0.0,0.0,0.0,0.0,0.0,0.0,0.0,0.0,0.0,0.0,0.0,0.0,0.0,0.0,0.0,0.0,0.0,0.0,0.0,0.0,0.0,0.0,0.0,0.0,0.0,0.0,0.0,0.0,0.0,0.0,0.0,0.0,0.0,0.0,0.0,0.0,0.0,0.0,0.0,0.0,0.0,0.0,0.0,0.0,0.0,0.0,0.0,0.0,0.0,0.0,0.0,0.0,0.0,0.0,0.0,0.0,0.0,0.0,0.0,0.0,0.0,0.0,0.0,0.0,0.0,0.0,0.0,0.0,0.0,0.0,0.0,0.0,0.0,0.0,0.0,0.0,0.0,0.0,0.0,0.0,0.0,0.0,0.0,0.0,0.0,0.0,-7.5661,-7.9208,-8.3588,-8.6172,-8.6709,-8.1311,-7.7333,0.0,0.0,0.0,0.0,0.0,0.0,0.0,0.0,0.0,0.0,0.0,0.0,0.0,0.0,0.0,0.0,0.0,0.0,0.0,0.0,0.0,0.0,0.0,0.0,0.0,0.0,0.0,0.0,0.0,0.0,0.0,0.0,0.0,0.0,0.0,0.0,0.0,0.0,0.0,0.0,0.0,0.0,0.0,0.0,0.0,0.0,0.0,0.0,0.0,0.0,0.0,0.0,0.0,0.0,0.0,0.0,0.0,0.0,0.0,0.0,0.0,0.0,0.0,0.0,0.0,0.0,0.0,0.0,0.0,0.0,0.0,0.0,0.0,0.0,0.0,0.0,0.0,0.0,0.0,0.0,0.0,0.0,0.0,0.0,0.0,0.0,0.0,0.0,0.0,0.0,0.0,0.0,0.0,0.0,0.0,0.0,0.0,0.0,0.0,0.0,0.0,0.0,0.0,0.0,0.0,0.0,0.0,0.0,0.0,-7.8053,-8.0606,-8.2359,-8.3116,-7.9345,-7.5576,0.0,0.0,0.0,0.0,0.0,0.0,0.0,0.0,0.0,0.0,0.0,0.0,0.0,0.0,0.0,0.0,0.0,0.0,0.0,0.0,0.0,0.0,0.0,0.0,0.0,0.0,0.0,0.0,0.0,0.0,0.0,0.0,0.0,0.0,0.0,0.0,0.0,0.0,0.0,0.0,0.0,0.0,0.0,0.0,0.0,0.0,0.0,0.0,0.0,0.0,0.0,0.0,0.0,0.0,0.0,0.0,0.0,0.0,0.0,0.0,0.0,0.0,0.0,0.0,0.0,0.0,0.0,0.0,0.0,0.0,0.0,0.0,0.0,0.0,0.0,0.0,0.0,0.0,0.0,0.0,0.0,0.0,0.0,0.0,0.0,0.0,0.0,0.0,0.0,0.0,0.0,0.0,0.0,0.0,0.0,0.0,0.0,0.0,0.0,0.0,0.0,0.0,0.0,0.0,0.0,0.0,0.0,0.0,0.0,-7.8246,-7.7187,-7.7749,-7.9872,-7.8283,-7.566,0.0,0.0,0.0,0.0,0.0,0.0,0.0,0.0,0.0,0.0,0.0,0.0,0.0,0.0,0.0,0.0,0.0,0.0,0.0,0.0,0.0,0.0,0.0,0.0,0.0,0.0,0.0,0.0,0.0,0.0,0.0,0.0,0.0,0.0,0.0,0.0,0.0,0.0,0.0,0.0,0.0,0.0,0.0,0.0,0.0,0.0,0.0,0.0,0.0,0.0,0.0,0.0,0.0,0.0,0.0,0.0,0.0,0.0,0.0,0.0,0.0,0.0,0.0,0.0,0.0,0.0,0.0,0.0,0.0,0.0,0.0,0.0,0.0,0.0,0.0,0.0,0.0,0.0,0.0,0.0,0.0,0.0,0.0,0.0,0.0,0.0,0.0,0.0,0.0,0.0,0.0,0.0,0.0,0.0,0.0,0.0,0.0,0.0,0.0,0.0,0.0,0.0,0.0,0.0,0.0,0.0,0.0,0.0,0.0,-7.7078,-7.5466,-7.5581,-7.8089,-7.5398,-7.1947,-6.7731,0.0,0.0,0.0,0.0,0.0,0.0,0.0,0.0,0.0,0.0,0.0,0.0,0.0,0.0,0.0,0.0,0.0,0.0,0.0,0.0,0.0,0.0,0.0,0.0,0.0,0.0,0.0,0.0,0.0,0.0,0.0,0.0,0.0,0.0,0.0,0.0,0.0,0.0,0.0,0.0,0.0,0.0,0.0,0.0,0.0,0.0,0.0,0.0,0.0,0.0,0.0,0.0,0.0,0.0,0.0,0.0,0.0,0.0,0.0,0.0,0.0,0.0,0.0,0.0,0.0,0.0,0.0,0.0,0.0,0.0,0.0,0.0,0.0,0.0,0.0,0.0,0.0,0.0,0.0,0.0,0.0,0.0,0.0,0.0,0.0,0.0,0.0,0.0,0.0,0.0,0.0,0.0,0.0,0.0,0.0,0.0,0.0,0.0,0.0,0.0,0.0,0.0,0.0,0.0,0.0,0.0,0.0,0.0,-7.3508,-7.2977,-7.3625,-7.5508,-7.4333,-7.1282,0.0,0.0,0.0,0.0,0.0,0.0,0.0,0.0,0.0,0.0,0.0,0.0,0.0,0.0,0.0,0.0,0.0,0.0,0.0,0.0,0.0,0.0,0.0,0.0,0.0,0.0,0.0,0.0,0.0,0.0,0.0,0.0,0.0,0.0,0.0,0.0,0.0,0.0,0.0,0.0,0.0,0.0,0.0,0.0,0.0,0.0,0.0,0.0,0.0,0.0,0.0,0.0,0.0,0.0,0.0,0.0,0.0,0.0,0.0,0.0,0.0,0.0,0.0,0.0,0.0,0.0,0.0,0.0,0.0,0.0,0.0,0.0,0.0,0.0,0.0,0.0,0.0,0.0,0.0,0.0,0.0,0.0,0.0,0.0,0.0,0.0,0.0,0.0,0.0,0.0,0.0,0.0,0.0,0.0,0.0,0.0,0.0,0.0,0.0,0.0,0.0,0.0,0.0,0.0,0.0,0.0,0.0,0.0,-6.5084,-6.6734,-6.978,-7.1767,-7.2452,-7.5384,-7.4716,0.0,0.0,0.0,0.0,0.0,0.0,0.0,0.0,0.0,0.0,0.0,0.0,0.0,0.0,0.0,0.0,0.0,0.0,0.0,0.0,0.0,0.0,0.0,0.0,0.0,0.0,0.0,0.0,0.0,0.0,0.0,0.0,0.0,0.0,0.0,0.0,0.0,0.0,0.0,0.0,0.0,0.0,0.0,0.0,0.0,0.0,0.0,0.0,0.0,0.0,0.0,0.0,0.0,0.0,0.0,0.0,0.0,0.0,0.0,0.0,0.0,0.0,0.0,0.0,0.0,0.0,0.0,0.0,0.0,0.0,0.0,0.0,0.0,0.0,0.0,0.0,0.0,0.0,0.0,0.0,0.0,0.0,0.0,0.0,0.0,0.0,0.0,0.0,0.0,0.0,0.0,0.0,0.0,0.0,0.0,0.0,0.0,0.0,0.0,0.0,0.0,0.0,0.0,0.0,0.0,0.0,0.0,0.0,0.0,-7.0225,0.0,-7.3409,0.0,-7.3312,-7.0882,0.0,0.0,0.0,0.0,0.0,0.0,0.0,0.0,0.0,0.0,0.0,0.0,0.0,0.0,0.0,0.0,0.0,0.0,0.0,0.0,0.0,0.0,0.0,0.0,0.0,0.0,0.0,0.0,0.0,0.0,0.0,0.0,0.0,0.0,0.0,0.0,0.0,0.0,0.0,0.0,0.0,0.0,0.0,0.0,0.0,0.0,0.0,0.0,0.0,0.0,0.0,0.0,0.0,0.0,0.0,0.0,0.0,0.0,0.0,0.0,0.0,0.0,0.0,0.0,0.0,0.0,0.0,0.0,0.0,0.0,0.0,0.0,0.0,0.0,0.0,0.0,0.0,0.0,0.0,0.0,0.0,0.0,0.0,0.0,0.0,0.0,0.0,0.0,0.0,0.0,0.0,0.0,0.0,0.0,0.0,0.0,0.0,0.0,0.0,0.0,0.0,0.0,0.0,0.0,0.0,0.0,0.0,0.0,0.0,-6.8918,-7.072,-7.251,-7.4062,-7.3397,-7.0789,0.0,0.0,0.0,0.0,0.0,0.0,0.0,0.0,0.0,0.0,0.0,0.0,0.0,0.0,0.0,0.0,0.0,0.0,0.0,0.0,0.0,0.0,0.0,0.0,0.0,0.0,0.0,0.0,0.0,0.0,0.0,0.0,0.0,0.0,0.0,0.0,0.0,0.0,0.0,0.0,0.0,0.0,0.0,0.0,0.0,0.0,0.0,0.0,0.0,0.0,0.0,0.0,0.0,0.0,0.0,0.0,0.0,0.0,0.0,0.0,0.0,0.0,0.0,0.0,0.0,0.0,0.0,0.0,0.0,0.0,0.0,0.0,0.0,0.0,0.0,0.0,0.0,0.0,0.0,0.0,0.0,0.0,0.0,0.0,0.0,0.0,0.0,0.0,0.0,0.0,0.0,0.0,0.0,0.0,0.0,0.0,0.0,0.0,0.0,0.0,0.0,0.0,0.0,0.0,0.0,0.0,0.0,0.0,0.0,0.0,-6.7626,-6.9472,-6.9639,-7.5249,-7.4113,0.0,0.0,0.0,0.0,0.0,0.0,0.0,0.0,0.0,0.0,0.0,0.0,0.0,0.0,0.0,0.0,0.0,0.0,0.0,0.0,0.0,0.0,0.0,0.0,0.0,0.0,0.0,0.0,0.0,0.0,0.0,0.0,0.0,0.0,0.0,0.0,0.0,0.0,0.0,0.0,0.0,0.0,0.0,0.0,0.0,0.0,0.0,0.0,0.0,0.0,0.0,0.0,0.0,0.0,0.0,0.0,0.0,0.0,0.0,0.0,0.0,0.0,0.0,0.0,0.0,0.0,0.0,0.0,0.0,0.0,0.0,0.0,0.0,0.0,0.0,0.0,0.0,0.0,0.0,0.0,0.0,0.0,0.0,0.0,0.0,0.0,0.0,0.0,0.0,0.0,0.0,0.0,0.0,0.0,0.0,0.0,0.0,0.0,0.0,0.0,0.0,0.0,0.0,0.0,0.0,0.0,0.0,0.0,0.0,0.0,-7.2806,0.0,-7.1771,-7.1642,-6.9857,-6.6097,0.0,0.0,0.0,0.0,0.0,0.0,0.0,0.0,0.0,0.0,0.0,0.0,0.0,0.0,0.0,0.0,0.0,0.0,0.0,0.0,0.0,0.0,0.0,0.0,0.0,0.0,0.0,0.0,0.0,0.0,0.0,0.0,0.0,0.0,0.0,0.0,0.0,0.0,0.0,0.0,0.0,0.0,0.0,0.0,0.0,0.0,0.0,0.0,0.0,0.0,0.0,0.0,0.0,0.0,0.0,0.0,0.0,0.0,0.0,0.0,0.0,0.0,0.0,0.0,0.0,0.0,0.0,0.0,0.0,0.0,0.0,0.0,0.0,0.0,0.0,0.0,0.0,0.0,0.0,0.0,0.0,0.0,0.0,0.0,0.0,0.0,0.0,0.0,0.0,0.0,0.0,0.0,0.0,0.0,0.0,0.0,0.0,0.0,0.0,0.0,0.0,0.0,0.0,0.0,0.0,0.0,0.0,0.0,0.0,0.0,0.0,-7.2757,-7.074,-6.8015,0.0,0.0,0.0,0.0,0.0,0.0,0.0,0.0,0.0,0.0,0.0,0.0,0.0,0.0,0.0,0.0,0.0,0.0,0.0,0.0,0.0,0.0,0.0,0.0,0.0,0.0,0.0,0.0,0.0,0.0,0.0,0.0,0.0,0.0,0.0,0.0,0.0,0.0,0.0,0.0,0.0,0.0,0.0,0.0,0.0,0.0,0.0,0.0,0.0,0.0,0.0,0.0,0.0,0.0,0.0,0.0,0.0,0.0,0.0,0.0,0.0,0.0,0.0,0.0,0.0,0.0,0.0,0.0,0.0,0.0,0.0,0.0,0.0,0.0,0.0,0.0,0.0,0.0,0.0,0.0,0.0,0.0,0.0,0.0,0.0,0.0,0.0,0.0,0.0,0.0,0.0,0.0,0.0,0.0,0.0,0.0,0.0,0.0,0.0,0.0,0.0,0.0,0.0,0.0,0.0,0.0,0.0,0.0,0.0,0.0,0.0,-7.2369,-7.2684,-7.1223,0.0,-6.2553,0.0,0.0,0.0,0.0,0.0,0.0,0.0,0.0,0.0,0.0,0.0,0.0,0.0,0.0,0.0,0.0,0.0,0.0,0.0,0.0,0.0,0.0,0.0,0.0,0.0,0.0,0.0,0.0,0.0,0.0,0.0,0.0,0.0,0.0,0.0,0.0,0.0,0.0,0.0,0.0,0.0,0.0,0.0,0.0,0.0,0.0,0.0,0.0,0.0,0.0,0.0,0.0,0.0,0.0,0.0,0.0,0.0,0.0,0.0,0.0,0.0,0.0,0.0,0.0,0.0,0.0,0.0,0.0,0.0,0.0,0.0,0.0,0.0,0.0,0.0,0.0,0.0,0.0,0.0,0.0,0.0,0.0,0.0,0.0,0.0,0.0,0.0,0.0,0.0,0.0,0.0,0.0,0.0,0.0,0.0,0.0,0.0,0.0,0.0,0.0,0.0,0.0,0.0,0.0,0.0,0.0,0.0,0.0,0.0,0.0,0.0,0.0,-6.8721,-6.7149,-6.8112,0.0,0.0,0.0,0.0,0.0,0.0,0.0,0.0,0.0,0.0,0.0,0.0,0.0,0.0,0.0,0.0,0.0,0.0,0.0,0.0,0.0,0.0,0.0,0.0,0.0,0.0,0.0,0.0,0.0,0.0,0.0,0.0,0.0,0.0,0.0,0.0,0.0,0.0,0.0,0.0,0.0,0.0,0.0,0.0,0.0,0.0,0.0,0.0,0.0,0.0,0.0,0.0,0.0,0.0,0.0,0.0,0.0,0.0,0.0,0.0,0.0,0.0,0.0,0.0,0.0,0.0,0.0,0.0,0.0,0.0,0.0,0.0,0.0,0.0,0.0,0.0,0.0,0.0,0.0,0.0,0.0,0.0,0.0,0.0,0.0,0.0,0.0,0.0,0.0,0.0,0.0,0.0,0.0,0.0,0.0,0.0,0.0,0.0,0.0,0.0,0.0,0.0,0.0,0.0,0.0,0.0,0.0,0.0,0.0,0.0,-6.8947,-7.2072,-6.8396,-6.7615,-7.0139,0.0,0.0,0.0,0.0,0.0,0.0,0.0,0.0,0.0,0.0,0.0,0.0,0.0,0.0,0.0,0.0,0.0,0.0,0.0,0.0,0.0,0.0,0.0,0.0,0.0,0.0,0.0,0.0,0.0,0.0,0.0,0.0,0.0,0.0,0.0,0.0,0.0,0.0,0.0,0.0,0.0,0.0,0.0,0.0,0.0,0.0,0.0,0.0,0.0,0.0,0.0,0.0,0.0,0.0,0.0,0.0,0.0,0.0,0.0,0.0,0.0,0.0,0.0,0.0,0.0,0.0,0.0,0.0,0.0,0.0,0.0,0.0,0.0,0.0,0.0,0.0,0.0,0.0,0.0,0.0,0.0,0.0,0.0,0.0,0.0,0.0,0.0,0.0,0.0,0.0,0.0,0.0,0.0,0.0,0.0,0.0,0.0,0.0,0.0,0.0,0.0,0.0,0.0,0.0,0.0,0.0,0.0,0.0,0.0,0.0,0.0,0.0,0.0,0.0,-6.9229,0.0,0.0,0.0,0.0,0.0,0.0,0.0,0.0,0.0,0.0,0.0,0.0,0.0,0.0,0.0,0.0,0.0,0.0,0.0,0.0,0.0,0.0,0.0,0.0,0.0,0.0,0.0,0.0,0.0,0.0,0.0,0.0,0.0,0.0,0.0,0.0,0.0,0.0,0.0,0.0,0.0,0.0,0.0,0.0,0.0,0.0,0.0,0.0,0.0,0.0,0.0,0.0,0.0,0.0,0.0,0.0,0.0,0.0,0.0,0.0,0.0,0.0,0.0,0.0,0.0,0.0,0.0,0.0,0.0,0.0,0.0,0.0,0.0,0.0,0.0,0.0,0.0,0.0,0.0,0.0,0.0,0.0,0.0,0.0,0.0,0.0,0.0,0.0,0.0,0.0,0.0,0.0,0.0,0.0,0.0,0.0,0.0,0.0,0.0,0.0,0.0,0.0,0.0,0.0,0.0,0.0,0.0,0.0,0.0,0.0,0.0,0.0,0.0,0.0,0.0,0.0,0.0,0.0,0.0,0.0,0.0,0.0,0.0,0.0,0.0,0.0,0.0,0.0,0.0,0.0,0.0,0.0,0.0,0.0,0.0,0.0,0.0,0.0,0.0,0.0,0.0,0.0,0.0,0.0,0.0,0.0,0.0,0.0,0.0,0.0,0.0,0.0,0.0,0.0,0.0,0.0,0.0,0.0,0.0,0.0,0.0,0.0,0.0,0.0,0.0,0.0,0.0,0.0,0.0,0.0,0.0,0.0,0.0,0.0,0.0,0.0,0.0,0.0,0.0,0.0,0.0,0.0,0.0,0.0,0.0,0.0,0.0,0.0,0.0,0.0,0.0,0.0,0.0,0.0,0.0,0.0,0.0,0.0,0.0,0.0,0.0,0.0,0.0,0.0,0.0,0.0,0.0,0.0,0.0,0.0,0.0,0.0,0.0,0.0,0.0,0.0,0.0,0.0,0.0,0.0,0.0,0.0,0.0,0.0,0.0,0.0,0.0,0.0,0.0,0.0,0.0,0.0,0.0,0.0,0.0,0.0,0.0,0.0,0.0,0.0,0.0,0.0,0.0,0.0,0.0,0.0,0.0,0.0,0.0,0.0,0.0,0.0,0.0,0.0,0.0,0.0,0.0,0.0,0.0,0.0,0.0,0.0,0.0,0.0,0.0,0.0,0.0,0.0,0.0,0.0,0.0,0.0,0.0,0.0,0.0,0.0,0.0,0.0,0.0,0.0,0.0,0.0,0.0,0.0,0.0,0.0,0.0,0.0,0.0,0.0,0.0,0.0,0.0,0.0,0.0,0.0,0.0,0.0,0.0,0.0,0.0,0.0,0.0,0.0,0.0,0.0,0.0,0.0,0.0,0.0,0.0,0.0,0.0,0.0,0.0,0.0,0.0,0.0,0.0,0.0,0.0,0.0,0.0,0.0,0.0,0.0,0.0,0.0,0.0,0.0,0.0,0.0,0.0,0.0,0.0,0.0,0.0,0.0,0.0,0.0,0.0,0.0,0.0,0.0,0.0,0.0,0.0,0.0,0.0,0.0,0.0,0.0,0.0,0.0,0.0,0.0,0.0,0.0,0.0,0.0,0.0,0.0,0.0,0.0,0.0,0.0,0.0,0.0,0.0,0.0,0.0,0.0,0.0,0.0,0.0,0.0,0.0,0.0,0.0,0.0,0.0,0.0,0.0,0.0,0.0,0.0,0.0,0.0,0.0,0.0,0.0,0.0,0.0,0.0,0.0,0.0,0.0,0.0,0.0,0.0,0.0,0.0,0.0,0.0,0.0,0.0,0.0,0.0,0.0,0.0,0.0,0.0,0.0,0.0,0.0,0.0,0.0,0.0,0.0,0.0,0.0,0.0,0.0,0.0,0.0,0.0,0.0,0.0,0.0,0.0,0.0,0.0,0.0,0.0,0.0,0.0,0.0,0.0,0.0,0.0,0.0,0.0,0.0,0.0,0.0,0.0,0.0,0.0,0.0,0.0,0.0,0.0,0.0,0.0,0.0,0.0,0.0,0.0,0.0,0.0,0.0,0.0,0.0,0.0,0.0,0.0,0.0,0.0,0.0,0.0,0.0,0.0,0.0,0.0,0.0,0.0,0.0,0.0,0.0,0.0,0.0,0.0,0.0,0.0,0.0,0.0,0.0,0.0,0.0,0.0,0.0,0.0,0.0,0.0,0.0,0.0,0.0,0.0,0.0,0.0,0.0,0.0,0.0,0.0,0.0,0.0,0.0,0.0,0.0,0.0,0.0,0.0,0.0,0.0,0.0,0.0,0.0,0.0,0.0,0.0,0.0,0.0,0.0,0.0,0.0,0.0,0.0,0.0,0.0,0.0,0.0,0.0,0.0,0.0,0.0,0.0,0.0,0.0,0.0,0.0,0.0,0.0,0.0,0.0,0.0,0.0,0.0,0.0,0.0,0.0,0.0,0.0,0.0,0.0,0.0,0.0,0.0,0.0,0.0,0.0,0.0,0.0,0.0,0.0,0.0,0.0,0.0,0.0,0.0,0.0,0.0,0.0,0.0,0.0,0.0,0.0,0.0,0.0,0.0,0.0,0.0,0.0,0.0,0.0,0.0,0.0,0.0,0.0,0.0,0.0,0.0,0.0,0.0,0.0,0.0,0.0,0.0,0.0,0.0,0.0,0.0,0.0,0.0,0.0,0.0,0.0,0.0,0.0,0.0,0.0,0.0,0.0,0.0,0.0,0.0,0.0,0.0,0.0,0.0,0.0,0.0,0.0,0.0,0.0,0.0,0.0,0.0,0.0,0.0,0.0,0.0,0.0,0.0,0.0,0.0,0.0,0.0,0.0,0.0,0.0,0.0,0.0,0.0,0.0,0.0,0.0,0.0,0.0,0.0,0.0,0.0,0.0,0.0,0.0,0.0,0.0,0.0,0.0,0.0,0.0,0.0,0.0,0.0,0.0,0.0,0.0,0.0,0.0,0.0,0.0,0.0,0.0,0.0,0.0,0.0,0.0,0.0,0.0,0.0,0.0,0.0,0.0,0.0,0.0,0.0,0.0,0.0,0.0,0.0,0.0,0.0,0.0,0.0,0.0,0.0,0.0,0.0,0.0,0.0,0.0,0.0,0.0,0.0,0.0,0.0,0.0,0.0,0.0,0.0,0.0,0.0,0.0,0.0,0.0,0.0,0.0,0.0,0.0,0.0,0.0,0.0,0.0,0.0,0.0,0.0,0.0,0.0,0.0,0.0,0.0,0.0,0.0,0.0,0.0,0.0,0.0,0.0,0.0,0.0,0.0,0.0,0.0,0.0,0.0,0.0,0.0,0.0,0.0,0.0,0.0,0.0,0.0,0.0,0.0,0.0,0.0,0.0,0.0,0.0,0.0,0.0,0.0,0.0,0.0,0.0,0.0,0.0,0.0,0.0,0.0,0.0,0.0,0.0,0.0,0.0,0.0,0.0,0.0,0.0,0.0,0.0,0.0,0.0,0.0,0.0,0.0,0.0,0.0,0.0,0.0,0.0,0.0,0.0,0.0,0.0,0.0,0.0,0.0,0.0,0.0,0.0,0.0,0.0,0.0,0.0,0.0,0.0,0.0,0.0,0.0,0.0,0.0,0.0,0.0,0.0,0.0,0.0,0.0,0.0,0.0,0.0,0.0,0.0,0.0,0.0,0.0,0.0,0.0,0.0,0.0,0.0,0.0,0.0,0.0,0.0,0.0,0.0,0.0,0.0,0.0,0.0,0.0,0.0,0.0,0.0,0.0,0.0,0.0,0.0,0.0,0.0,0.0,0.0,0.0,0.0,0.0,0.0,0.0,0.0,0.0,0.0,0.0,0.0,0.0,0.0,0.0,0.0,0.0,0.0,0.0,0.0,0.0,0.0,0.0,0.0,0.0,0.0,0.0,0.0,0.0,0.0,0.0,0.0,0.0,0.0,0.0,0.0,0.0,0.0,0.0,0.0,0.0,0.0,0.0,0.0,0.0,0.0,0.0,0.0,0.0,0.0,0.0,0.0,0.0,0.0,0.0,0.0,0.0,0.0,0.0,0.0,0.0,0.0,0.0,0.0,0.0,0.0,0.0,0.0,0.0,0.0,0.0,0.0,0.0,0.0,0.0,0.0,0.0,0.0,0.0,0.0,0.0,0.0,0.0,0.0,0.0,0.0,0.0,0.0,0.0,0.0,0.0,0.0,0.0,0.0,0.0,0.0,0.0,0.0,0.0,0.0,0.0,0.0,0.0,0.0,0.0,0.0,0.0,0.0,0.0,0.0,0.0,0.0,0.0,0.0,0.0,0.0,0.0,0.0,0.0,0.0,0.0,0.0,0.0,0.0,0.0,0.0,0.0,0.0,0.0,0.0,0.0,0.0,0.0,0.0,0.0,0.0,0.0]}],[{"header":{"parameterUnit":"kt","parameterCategory":2,"dx":1,"dy":1,"la1":29.587661999999998,"la2":31.0,"lo1":-88.76705300000003,"lo2":-86.6583820000003,"nx":115,"ny":88,"refTime":"2022-10-11T00:00:00:Z","depth":0,"parameterNumber":2,"parameterNumberName":"V-component_of_WINDS"},"data":[11.0024,11.0024,11.0024,11.0024,11.0024,11.0024,11.0024,11.0024,11.0024,11.0024,11.0024,11.0024,11.0024,11.0024,11.0024,11.0024,11.0024,11.0024,11.0024,11.0252,11.0632,11.253,11.4808,11.6934,12.0123,12.187,12.2673,12.1889,12.1326,12.2155,12.2724,12.2622,12.4072,12.4375,12.4148,12.3236,12.2439,12.3343,12.3902,12.4999,12.6368,12.7857,12.8955,12.9465,12.9842,12.9994,13.007,13.007,13.007,12.9842,12.9451,12.9058,12.8674,12.8444,12.8206,12.8141,12.8117,12.8094,12.9066,13.131,13.2581,13.3254,13.5647,13.774,13.7815,13.789,13.9535,14.1704,14.3199,14.3424,14.4246,14.4321,14.447,14.5891,14.6489,14.7237,14.7686,14.8882,15.0602,15.2397,15.3892,15.5313,15.6884,15.7631,15.7631,15.7631,15.7631,15.7631,15.7482,15.6136,15.4715,15.3818,15.2846,15.1425,15.0004,14.8508,14.8135,14.791,14.7686,14.7686,14.7686,14.7686,14.7554,14.745,14.6464,14.458,14.2203,13.9729,13.8216,13.7043,13.6484,13.6384,13.7336,13.7815,13.7815,11.0024,11.0024,11.0024,11.0024,11.0024,11.0024,11.0024,11.0024,11.0024,11.0024,11.0176,11.0176,11.0024,11.0024,11.0024,11.0024,11.0024,11.0024,11.0024,11.0404,11.1391,11.3138,11.496,11.6706,11.8832,12.0427,12.1718,12.1198,12.0329,12.184,12.2652,12.2327,12.2477,12.2781,12.2249,12.149,12.1286,12.2443,12.3828,12.4812,12.6278,12.7876,12.8655,12.928,12.9691,12.9994,13.007,13.007,13.007,12.9767,12.9444,12.9094,12.8797,12.8341,12.816,12.8094,12.8094,12.8094,12.8767,13.1085,13.2356,13.3777,13.632,13.7666,13.7815,13.8563,13.9909,14.1853,14.3947,14.5143,14.6415,14.6938,14.6938,14.7462,14.7462,14.7686,14.7686,14.7985,15.0079,15.2247,15.3519,15.4565,15.5986,15.7407,15.7631,15.7631,15.7631,15.7631,15.7108,15.5388,15.3892,15.2771,15.135,14.9854,14.8508,14.7835,14.791,14.7686,14.7686,14.7686,14.7686,14.7686,14.7629,14.7288,14.5562,14.3374,14.102,13.8364,13.7402,13.632,13.5955,13.5807,13.6878,13.7815,13.7815,11.0024,11.0024,11.0024,11.0024,11.0024,11.0024,11.0024,11.0024,11.0024,11.0556,11.1315,11.1391,11.086,11.0024,11.0024,11.0024,11.0024,11.0024,11.0024,11.0556,11.1619,11.3441,11.5036,11.6706,11.8301,11.9895,12.1186,12.1575,12.0888,12.1866,12.184,12.0865,12.0883,12.1034,12.111,12.1566,12.2045,12.293,12.471,12.6034,12.7248,12.8086,12.8655,12.8456,12.8779,12.9235,12.9387,12.9615,12.9767,12.9842,12.9539,12.9233,12.8797,12.832,12.8117,12.8094,12.8094,12.8094,12.8991,13.0711,13.2805,13.3927,13.5946,13.7666,13.7815,13.9311,14.0732,14.2227,14.4321,14.5966,14.7162,14.7686,14.7686,14.7686,14.7686,14.7686,14.7686,14.791,14.9406,15.15,15.2995,15.4266,15.6285,15.7631,15.7631,15.7631,15.7631,15.7631,15.6061,15.4341,15.2995,15.1649,14.9854,14.8209,14.7732,14.7657,14.7571,14.7629,14.7686,14.7542,14.7288,14.7512,14.7229,14.6177,14.4595,14.2351,13.9629,13.677,13.5441,13.5372,13.5305,13.5305,13.6618,13.7815,13.766,11.0024,11.0024,11.0024,11.0024,11.0024,11.0024,11.0252,11.0632,11.0252,11.0708,11.1771,11.1771,11.1087,11.01,11.0024,11.0024,11.0024,11.0024,11.0024,11.0556,11.1771,11.3441,11.5112,11.663,11.8301,11.982,12.0724,12.1118,12.1062,12.0445,11.9964,11.9705,11.9971,12.0655,12.1034,12.1794,12.316,12.4682,12.6198,12.7499,12.8048,12.8464,12.836,12.7866,12.7792,12.8248,12.7868,12.84,12.9159,12.9539,12.9387,12.9157,12.8641,12.8288,12.8093,12.8094,12.8094,12.8094,12.8991,13.0936,13.2656,13.3927,13.5572,13.6993,13.8488,14.0059,14.1554,14.2975,14.4545,14.6116,14.7312,14.7536,14.7686,14.7686,14.7686,14.7686,14.7686,14.8209,14.8808,15.0527,15.2397,15.4416,15.6659,15.7631,15.7631,15.7631,15.7631,15.6958,15.5388,15.3219,15.1873,15.0004,14.8135,14.7583,14.7675,14.7467,14.6985,14.6985,14.6623,14.673,14.6763,14.6966,14.6954,14.5481,14.3753,14.1557,13.8999,13.5761,13.4245,13.4411,13.4494,13.5268,13.649,13.6804,13.6999,11.0024,11.0024,11.0024,11.0024,11.0024,11.0024,11.086,11.2075,11.0784,11.0176,11.0404,11.0404,11.0404,11.0176,11.0328,11.0328,11.01,11.0328,11.048,11.01,11.1771,11.3441,11.5112,11.663,11.8301,11.9288,12.0061,12.064,12.1179,12.0812,12.003,11.9554,11.9807,12.0427,12.1414,12.2325,12.392,12.5582,12.6941,12.8013,12.8323,12.8588,12.8415,12.7176,12.7185,12.7033,12.6122,12.6577,12.7716,12.8172,12.8576,12.9255,12.8887,12.8504,12.8235,12.8119,12.8094,12.8169,12.9216,13.131,13.2581,13.4151,13.5871,13.7292,13.8862,14.0432,14.1704,14.3124,14.5368,14.7088,14.7462,14.7611,14.7686,14.7686,14.7686,14.7686,14.7536,14.7462,14.8583,15.0827,15.2771,15.5014,15.7108,15.7631,15.7631,15.7557,15.7332,15.6584,15.4715,15.2098,15.0228,14.8209,14.7134,14.6582,14.6587,14.6327,14.6078,14.571,14.5227,14.5301,14.6074,14.6316,14.6524,14.5031,14.3311,14.1042,13.8316,13.4946,13.277,13.3311,13.4207,13.5119,13.5416,13.5452,13.5596,11.0024,11.0024,11.0024,11.0024,11.0024,11.0024,11.0936,11.2302,11.1847,11.1543,11.1543,11.1467,11.1011,11.0328,11.1011,11.1011,11.0328,11.086,11.086,11.0784,11.1771,11.3441,11.5036,11.6706,11.8301,11.9668,12.0345,12.0184,11.9882,11.9991,12.0105,11.9559,11.9807,12.0351,12.1338,12.2857,12.4679,12.5673,12.6399,12.7138,12.7486,12.7801,12.6835,12.5989,12.7016,12.5742,12.4224,12.6426,12.7337,12.7716,12.8779,12.933,12.9021,12.8614,12.8278,12.8119,12.8094,12.8468,12.959,13.1758,13.3179,13.4749,13.6544,13.7591,13.9012,14.0732,14.2078,14.3424,14.5816,14.7686,14.7686,14.7686,14.7686,14.7686,14.7686,14.7686,14.7312,14.6863,14.8658,15.1051,15.3294,15.5463,15.6809,15.7332,15.7557,15.7257,15.6734,15.5388,15.2995,15.0228,14.7985,14.6489,14.5863,14.5404,14.4997,14.4682,14.4231,14.371,14.3503,14.4131,14.5417,14.5894,14.6316,14.4991,14.3117,13.9962,13.7091,13.3839,13.1965,13.2686,13.364,13.3998,13.4124,13.4207,13.4413,11.0024,11.0024,11.0024,11.0024,11.0024,11.0024,11.0708,11.1695,11.1847,11.1847,11.1847,11.1847,11.1391,11.086,11.1999,11.1695,11.1619,11.1619,11.1315,11.0936,11.1087,11.3062,11.4732,11.6175,11.7997,11.944,12.0262,12.0033,11.9439,11.9212,11.9433,11.959,11.9815,12.0351,12.1414,12.2933,12.3866,12.4598,12.4368,12.5326,12.6157,12.6208,12.5254,12.4517,12.5131,12.4072,12.316,12.4983,12.635,12.7109,12.84,12.9221,12.9084,12.8631,12.8362,12.8068,12.8244,12.8767,13.0337,13.1983,13.3628,13.5198,13.6843,13.7591,13.8713,14.0507,14.2676,14.3947,14.5742,14.7237,14.7686,14.7686,14.7686,14.7686,14.7686,14.7686,14.7611,14.7536,14.8733,15.0976,15.2546,15.479,15.7033,15.7407,15.6435,15.6435,15.5463,15.3294,15.0827,14.7835,14.5592,14.477,14.4218,14.4013,14.3614,14.2786,14.2274,14.1856,14.1904,14.2313,14.3859,14.5115,14.5965,14.564,14.4401,14.1095,13.6786,13.4317,13.2295,13.2828,13.2944,13.285,13.285,13.3175,13.3329,11.0024,11.0024,11.0024,11.0024,11.0024,11.0024,11.01,11.0252,11.0252,11.0252,11.0252,11.0404,11.1163,11.2226,11.2682,11.2682,11.2682,11.2606,11.1771,11.086,11.086,11.2682,11.4352,11.5567,11.7542,11.8984,11.9675,11.9677,11.9299,11.9202,11.9497,11.9799,11.9894,12.0503,12.1186,12.2065,12.2295,12.3082,12.3227,12.4029,12.5114,12.4685,12.3908,12.3335,12.3236,12.2401,12.2553,12.3616,12.4983,12.635,12.7693,12.8642,12.8919,12.8464,12.8206,12.8094,12.8094,12.9141,13.0562,13.2057,13.3777,13.5796,13.7067,13.7591,13.8713,14.0806,14.2451,14.3797,14.5742,14.6863,14.7686,14.7686,14.7686,14.7686,14.7686,14.7686,14.7686,14.8209,14.9256,15.0527,15.2098,15.3593,15.5837,15.6211,15.5164,15.4491,15.2846,15.0453,14.7088,14.4246,14.3573,14.2751,14.2574,14.2518,14.182,14.0761,14.0155,13.9815,13.9952,14.0968,14.2464,14.3822,14.5048,14.5624,14.5122,14.2668,13.8204,13.5169,13.3092,13.2469,13.2566,13.2469,13.2223,13.242,13.2517,11.0024,11.0024,11.0024,11.0024,11.0024,11.0024,11.0708,11.1543,11.1619,11.1011,11.048,11.1239,11.215,11.3062,11.4428,11.5415,11.4201,11.4125,11.3289,11.1847,11.1619,11.3062,11.4732,11.6251,11.7769,11.9136,11.958,11.9377,11.9361,11.9377,11.9536,11.9703,11.9895,12.0427,12.0503,12.0974,12.1112,12.2266,12.2005,12.2778,12.4029,12.4042,12.3249,12.2554,12.2173,12.2249,12.2401,12.3616,12.5514,12.6805,12.8024,12.8994,12.8844,12.8506,12.8117,12.8094,12.8319,12.9515,13.1235,13.278,13.4375,13.6544,13.7367,13.774,13.8413,14.1031,14.2302,14.3797,14.6041,14.7162,14.7686,14.7686,14.7686,14.7686,14.7686,14.7686,14.7686,14.7761,14.8658,14.978,15.12,15.2247,15.3519,15.3593,15.292,15.15,15.0004,14.6415,14.2825,14.2003,14.133,14.0806,14.0507,14.036,13.9791,13.8807,13.8213,13.779,13.8773,14.0019,14.1526,14.3282,14.4344,14.521,14.396,14.2185,13.8655,13.5917,13.3563,13.2469,13.2223,13.2016,13.1606,13.1709,13.1914,11.0024,11.0024,11.0024,11.0024,11.0024,11.0024,11.1011,11.2302,11.1923,11.1391,11.1163,11.1923,11.291,11.4504,11.6251,11.6403,11.5264,11.5036,11.3517,11.1999,11.2226,11.3593,11.5036,11.6554,11.8225,11.944,11.9699,11.9542,11.9559,11.9536,11.9548,11.959,11.982,11.9971,11.9895,11.9792,12.003,12.1607,12.133,12.106,12.297,12.2474,12.1743,12.1223,12.1224,12.1718,12.2401,12.392,12.5666,12.7261,12.8324,12.907,12.8942,12.8444,12.8368,12.8917,12.8991,13.0038,13.1384,13.3628,13.5048,13.6694,13.7815,13.7815,13.8189,14.1031,14.2377,14.3573,14.5891,14.7312,14.7686,14.7686,14.7237,14.7237,14.7686,14.7686,14.7312,14.7387,14.7985,14.9181,15.0303,15.1425,15.2173,15.2621,14.9705,14.7611,14.462,14.1255,14.0432,13.9909,13.9759,13.9236,13.8958,13.853,13.7764,13.7,13.6405,13.7485,13.8671,13.969,14.1135,14.287,14.3976,14.4898,14.3243,14.1462,13.9047,13.6631,13.4164,13.2371,13.1995,13.1729,13.1625,13.1573,13.1573,11.0024,11.0024,11.0024,11.0024,11.0024,11.0024,11.1011,11.2302,11.1011,11.086,11.1923,11.2682,11.4352,11.6403,11.7314,11.7162,11.6099,11.5264,11.3973,11.2226,11.291,11.3821,11.534,11.6934,11.8681,11.9592,11.9718,11.9595,11.9575,11.9595,11.9585,11.9692,11.982,12.0047,12.0047,11.9544,11.9141,11.8904,11.919,11.9175,11.9913,11.9941,11.9948,11.9967,12.0253,12.1616,12.2933,12.4679,12.6274,12.7716,12.8779,12.897,12.8915,12.8362,12.8841,12.9964,13.0188,13.0412,13.0861,13.3777,13.5497,13.6694,13.7067,13.7292,13.8264,14.0657,14.2798,14.3124,14.5816,14.7462,14.7686,14.7611,14.6714,14.6564,14.7387,14.7536,14.6639,14.634,14.7312,14.8359,14.9555,15.0527,15.1051,15.0378,14.6639,14.3274,13.9685,13.8264,13.8339,13.8264,13.8488,13.8264,13.8237,13.7971,13.7668,13.6033,13.5713,13.7483,13.8939,14.0019,14.1377,14.2778,14.3677,14.4423,14.3041,14.0659,13.8887,13.7197,13.5006,13.285,13.2295,13.1625,13.1625,13.1573,13.1573,11.0024,11.0024,11.0024,11.0024,11.0024,11.0024,11.0936,11.2075,11.0784,11.0404,11.0936,11.3365,11.496,11.6175,11.7845,11.8605,11.7693,11.6175,11.534,11.4808,11.4504,11.5264,11.6782,11.8149,11.9212,11.9668,11.9888,11.982,11.982,11.982,11.982,11.982,11.9971,12.0807,12.1414,12.2204,12.2452,12.2089,12.1698,12.1225,12.0006,12.0026,12.015,11.9516,12.0551,12.2036,12.4072,12.5666,12.7261,12.8336,12.8909,12.8894,12.8649,12.8566,12.9015,12.9814,13.0562,13.101,13.2356,13.4076,13.5048,13.5273,13.5721,13.632,13.7292,14.0208,14.2825,14.3274,14.5742,14.7686,14.7686,14.7611,14.6938,14.5293,14.619,14.6265,14.5443,14.5443,14.6415,14.7312,14.7835,14.8508,14.8733,14.8209,14.5143,14.2751,13.9535,13.7965,13.7815,13.7815,13.7815,13.7815,13.7815,13.7815,13.7735,13.6309,13.538,13.7075,13.8311,13.9694,14.1205,14.2749,14.3798,14.3229,14.1761,13.9752,13.7944,13.6367,13.4867,13.3357,13.2517,13.1625,13.1573,13.1573,13.1573,11.0024,11.0024,11.0024,11.0024,11.0024,11.0024,11.1011,11.2075,11.0784,11.0328,11.1239,11.3745,11.5415,11.663,11.8756,11.9668,11.8681,11.663,11.6251,11.6175,11.6403,11.663,11.7542,11.8832,11.9971,11.9971,11.9971,11.9971,11.9971,11.9895,11.9971,12.0275,12.0731,12.1566,12.2477,12.3341,12.3122,12.2662,12.1494,12.0691,11.981,11.9831,12.0033,11.991,12.1542,12.3131,12.5666,12.7033,12.8248,12.9175,12.9186,12.9033,12.8738,12.8353,12.9365,13.116,13.1534,13.1983,13.3029,13.4301,13.4974,13.4375,13.5273,13.6843,13.8114,14.0657,14.2676,14.4246,14.6265,14.7088,14.7162,14.7162,14.6564,14.4919,14.4171,14.4171,14.4097,14.4321,14.5069,14.5816,14.6265,14.6639,14.6415,14.5966,14.4171,14.2302,13.9759,13.7815,13.7815,13.7815,13.7815,13.7815,13.7815,13.7815,13.7029,13.6138,13.52,13.6259,13.7358,13.8826,14.0309,14.1907,14.2676,14.1379,14.0062,13.8518,13.7019,13.5527,13.4166,13.2828,13.1944,13.1573,13.1573,13.1573,13.1573,11.0024,11.0024,11.0024,11.0024,11.0024,11.0024,11.0936,11.1999,11.0632,11.086,11.1999,11.3897,11.5188,11.7086,11.8377,11.8832,11.7769,11.7542,11.6934,11.6554,11.663,11.739,11.8225,11.9136,11.9971,11.9971,11.9971,11.9971,11.9971,11.9971,12.0047,12.0275,12.149,12.2325,12.3464,12.4532,12.4109,12.2731,12.0444,11.9166,11.862,11.8903,11.9669,12.1043,12.2078,12.3692,12.7185,12.7792,12.8625,12.9675,12.9381,12.8995,12.8738,12.8395,12.9415,13.1235,13.1908,13.2057,13.2431,13.3553,13.4749,13.5348,13.5647,13.6021,13.6993,14.0432,14.2825,14.3648,14.5517,14.6265,14.6041,14.5966,14.4844,14.3648,14.3124,14.2676,14.2078,14.2601,14.3723,14.4321,14.4695,14.5069,14.4994,14.4171,14.2601,14.1479,13.9161,13.8413,13.8264,13.7815,13.7815,13.7815,13.7815,13.7365,13.648,13.6286,13.6039,13.6658,13.7805,13.898,13.9802,14.054,14.1894,14.0619,13.9418,13.7635,13.5945,13.4574,13.3194,13.2096,13.1573,13.1573,13.1573,13.1573,13.1573,11.0024,11.0024,11.0024,11.0024,11.0024,11.0024,11.0328,11.0632,11.0176,11.0252,11.0708,11.1315,11.3138,11.5491,11.739,11.8756,11.9136,11.7997,11.7921,11.8073,11.8073,11.8225,11.8984,11.9364,11.982,11.9971,11.9971,11.9971,11.9971,12.0047,12.0579,12.187,12.2401,12.3768,12.5514,12.6227,12.5751,12.4368,12.1585,11.9555,11.8597,11.927,12.0401,12.2033,12.3906,12.6046,12.7489,12.8552,12.9083,12.9714,12.9252,12.8956,12.8749,12.8395,12.934,13.0637,13.131,13.131,13.1534,13.2057,13.1684,13.1459,13.1534,13.273,13.3927,13.6918,13.9535,14.0432,14.3424,14.462,14.4246,14.4919,14.3498,14.2451,14.2003,14.0582,13.9834,14.1405,14.2601,14.2676,14.2751,14.3199,14.29,14.2227,14.1479,14.0432,13.9834,13.9161,13.8488,13.789,13.7815,13.7815,13.7789,13.7551,13.6712,13.6309,13.6775,13.7328,13.8594,13.9482,13.9689,14.0337,14.0312,13.9814,13.8931,13.7158,13.5156,13.364,13.2245,13.1863,13.1573,13.1573,13.1573,13.1573,13.1573,11.0024,11.0024,11.0024,11.0024,11.0024,11.0024,11.0024,11.0024,11.0024,11.0024,11.01,11.0784,11.253,11.5264,11.7542,11.8984,11.9516,11.8984,11.9136,11.9364,11.8377,11.8377,11.944,11.9288,11.944,11.9668,11.9971,11.9971,11.9971,12.0123,12.0807,12.2249,12.3312,12.4983,12.6881,12.7944,12.7197,12.5299,12.3394,12.0871,11.9128,11.9211,12.0589,12.2668,12.4368,12.6404,12.8172,12.9691,12.9842,12.9722,12.9318,12.8956,12.8749,12.847,12.8767,13.0188,13.0412,13.0412,13.0637,13.1983,13.2282,13.1758,13.1758,13.101,13.2132,13.5422,13.8114,13.8713,14.2227,14.3124,14.2451,14.3349,14.1928,14.0956,14.0732,13.9535,13.9236,14.0582,14.1031,14.0732,14.0582,14.0432,14.0208,13.9834,13.9535,13.8937,13.8713,13.8488,13.8189,13.7815,13.7815,13.7815,13.7762,13.7551,13.6712,13.5881,13.6263,13.5364,13.6637,13.7358,13.8363,13.8726,13.812,13.7562,13.6958,13.5889,13.4445,13.3175,13.2371,13.1944,13.1625,13.1573,13.1573,13.1573,13.1573,11.0024,11.0024,11.0024,11.0024,11.0024,11.0024,11.0024,11.0024,11.0024,11.0024,11.01,11.1695,11.3213,11.5112,11.7921,11.9516,11.9895,11.9744,11.9744,11.9592,11.8301,11.8301,11.944,11.8225,11.8605,11.9744,11.9971,11.9971,11.9971,11.9971,12.0883,12.2781,12.4299,12.6046,12.802,12.9083,12.802,12.5018,12.4141,12.2187,11.9289,11.877,12.0834,12.2994,12.4652,12.6214,12.9311,12.9842,12.9994,12.9827,12.9373,12.9134,12.8962,12.8403,12.8988,12.9689,13.0288,13.0362,13.0587,13.2506,13.3702,13.2506,13.3104,13.3702,13.3029,13.46,13.6394,13.9236,14.1479,14.1704,14.0732,14.1629,14.0657,13.9834,13.9311,13.8862,13.8339,13.9236,13.9386,13.9161,13.9236,13.8713,13.8488,13.8114,13.7815,13.7815,13.7815,13.789,13.7815,13.7815,13.7815,13.7815,13.7762,13.7147,13.6384,13.5416,13.468,13.2786,13.3456,13.4149,13.5266,13.6189,13.571,13.5453,13.4595,13.3664,13.3067,13.2781,13.2517,13.2045,13.1658,13.1573,13.1502,13.1573,13.1573,11.0024,11.0024,11.0024,11.0024,11.0024,11.0024,11.0024,11.0024,11.0024,11.0024,11.0252,11.1771,11.2758,11.3897,11.6327,11.8756,11.9971,11.9971,11.9971,11.9592,11.8149,11.8301,11.906,11.8605,11.8225,11.9668,11.9971,11.9971,11.9971,11.9971,12.1718,12.3692,12.4679,12.6426,12.8779,12.9767,12.8324,12.6364,12.4822,12.2882,12.0852,12.0311,12.1491,12.3702,12.5363,12.72,12.9691,13.007,12.9918,12.9612,12.9261,12.8929,12.8649,12.8288,12.8268,12.8692,12.9739,12.9515,12.9814,13.1758,13.3029,13.1459,13.1384,13.131,13.116,13.116,13.1833,13.4525,13.7965,14.0133,13.9086,13.9909,13.961,13.8413,13.8114,13.8189,13.789,13.789,13.8189,13.8189,13.7965,13.7965,13.804,13.7815,13.7815,13.7815,13.7551,13.7551,13.7393,13.7523,13.7221,13.7336,13.7221,13.6586,13.5667,13.4614,13.345,13.1724,13.1648,13.1689,13.2504,13.3295,13.3994,13.4101,13.2977,13.1834,13.2013,13.1812,13.1557,13.1413,13.1515,13.143,13.1288,13.1216,13.1216,11.0024,11.0024,11.0024,11.048,11.1011,11.0404,11.048,11.1011,11.0404,11.0024,11.0556,11.1771,11.2986,11.4277,11.6403,11.8301,11.9592,11.9971,11.9971,11.9288,11.7693,11.7466,11.9516,11.7314,11.7997,11.9364,11.9971,11.9971,11.9971,11.9971,12.1794,12.4224,12.4983,12.6729,12.9311,12.9994,12.8703,12.6704,12.4798,12.2897,12.0903,11.9742,12.1266,12.3523,12.5624,12.7678,12.9539,13.007,12.9842,12.9497,12.9203,12.8887,12.8542,12.8288,12.8094,12.8393,12.9515,12.9964,12.9889,13.131,13.2132,13.0711,13.0487,13.0113,12.9315,12.8991,12.9964,13.2955,13.6768,13.8713,13.7965,13.8563,13.8638,13.7965,13.789,13.789,13.7815,13.7815,13.789,13.789,13.7815,13.7815,13.7815,13.7815,13.7815,13.7606,13.7308,13.7088,13.6969,13.6522,13.5916,13.5985,13.5807,13.5194,13.4372,13.3785,13.2904,13.1052,13.0142,12.9518,12.9763,12.9453,13.0205,13.1429,13.0912,12.9567,12.978,13.0463,13.0483,13.0412,13.0646,13.086,13.086,13.0788,13.0788,11.0024,11.0024,11.0328,11.1239,11.2226,11.1391,11.1619,11.2226,11.1087,11.0328,11.0404,11.215,11.3821,11.5188,11.6858,11.8529,11.9668,11.9971,11.9971,11.944,11.739,11.7238,11.906,11.739,11.739,11.9288,11.9971,11.9971,11.9971,12.0123,12.149,12.392,12.4755,12.635,12.8703,12.9842,12.9031,12.7334,12.5049,12.3243,12.1206,11.981,12.0139,12.3778,12.5754,12.7797,12.9463,12.9994,12.9825,12.9459,12.9183,12.8844,12.8468,12.8206,12.8143,12.8393,12.959,13.0113,12.9964,13.1609,13.1833,13.0637,13.0263,12.9764,12.8618,12.8244,12.9739,13.2581,13.5273,13.7292,13.7666,13.7965,13.7815,13.7815,13.7815,13.7815,13.7815,13.7815,13.7815,13.7815,13.7815,13.7815,13.7815,13.7815,13.7551,13.7117,13.6834,13.668,13.622,13.5524,13.5005,13.4811,13.4614,13.3913,13.3329,13.3094,13.2076,13.0046,12.8174,12.7601,12.6933,12.6196,12.6078,12.7407,12.7409,12.7493,12.8086,12.8699,12.8862,12.8933,12.9504,13.0217,12.9647,12.9147,12.9361,11.0024,11.01,11.1543,11.2302,11.2682,11.3745,11.3593,11.2758,11.2302,11.1315,11.0784,11.3365,11.4504,11.5643,11.8073,11.9516,11.9895,11.9971,11.9744,11.9516,11.7542,11.8073,11.8832,11.8225,11.8149,11.9744,11.9971,11.9971,11.9971,12.0123,12.111,12.2781,12.4148,12.6122,12.7868,12.9159,12.9478,12.822,12.5618,12.3589,12.2467,12.0139,12.0608,12.3828,12.6137,12.8175,12.9539,12.9994,12.9729,12.9172,12.9082,12.8733,12.8331,12.8119,12.8094,12.8169,12.9365,12.9665,12.944,13.0786,13.1459,12.8767,12.9515,12.9515,12.8468,12.8319,12.9814,13.1983,13.3702,13.5123,13.7441,13.7815,13.7815,13.7815,13.7815,13.7815,13.7815,13.7815,13.7815,13.7815,13.7815,13.7815,13.7815,13.7579,13.7088,13.6712,13.6416,13.6087,13.5379,13.4733,13.4453,13.4207,13.3998,13.3508,13.3212,13.2904,13.0764,12.863,12.635,12.5706,12.5041,12.4733,12.4709,12.4894,12.5223,12.5986,12.6629,12.7078,12.7292,12.7363,12.772,12.8148,12.8006,12.7577,12.7506,11.0024,11.0252,11.1847,11.3062,11.3973,11.4732,11.4656,11.3821,11.2986,11.2075,11.1847,11.2834,11.4732,11.6479,11.7845,11.9212,11.9744,11.9895,11.944,11.8453,11.7921,11.7845,11.8377,11.8681,11.906,11.9744,11.9971,11.9971,11.9971,12.0047,12.0731,12.2477,12.4148,12.5742,12.7489,12.899,12.9409,12.8511,12.638,12.4835,12.422,12.2037,12.2293,12.4889,12.7216,12.8799,12.9918,13.007,12.9691,12.9172,12.8858,12.8506,12.8137,12.8094,12.8094,12.8169,12.8917,12.8618,12.8468,12.9365,12.9739,12.8244,12.8692,12.8618,12.8319,12.8094,12.9665,13.1983,13.3179,13.4226,13.7292,13.7815,13.7815,13.7815,13.7815,13.7815,13.7815,13.7815,13.7815,13.7815,13.7815,13.7815,13.7551,13.7059,13.6649,13.6053,13.5738,13.4547,13.3883,13.3451,13.3391,13.2911,13.2922,13.3121,13.2885,13.1673,12.954,12.7691,12.5508,12.4367,12.3724,12.351,12.3439,12.3296,12.3368,12.4224,12.5151,12.5437,12.5722,12.5865,12.6079,12.615,12.6222,12.6364,12.6293,11.0176,11.0708,11.2378,11.4049,11.5491,11.5947,11.5947,11.5491,11.4201,11.3593,11.3289,11.3517,11.5188,11.7314,11.7466,11.8073,11.9212,11.8681,11.8225,11.701,11.7162,11.7314,11.7238,11.8453,11.944,11.9971,11.9971,11.9971,11.9971,12.0047,12.0655,12.1946,12.3388,12.5135,12.6426,12.7768,12.8845,12.8314,12.6987,12.5816,12.5164,12.3682,12.3701,12.5791,12.7614,12.9065,12.9762,12.9992,12.9687,12.9128,12.8781,12.8409,12.8188,12.8094,12.8094,12.8094,12.8169,12.8169,12.8094,12.8244,12.8094,12.8094,12.8244,12.8094,12.8094,12.8094,12.9515,13.1609,13.2506,13.3478,13.5946,13.6993,13.7367,13.7666,13.7815,13.7815,13.7815,13.7815,13.7815,13.7815,13.7815,13.7762,13.7421,13.668,13.6087,13.5416,13.442,13.3139,13.2469,13.2008,13.124,13.0261,13.0858,13.2011,13.1626,13.0639,12.8951,12.7464,12.508,12.351,12.2868,12.2511,12.2654,12.244,12.2083,12.2654,12.3724,12.4081,12.4153,12.4509,12.4795,12.4581,12.4509,12.5151,12.5102,11.0936,11.2454,11.4125,11.5719,11.7238,11.8681,11.8301,11.7314,11.6706,11.5947,11.5264,11.6251,11.6934,11.739,11.7542,11.7466,11.7693,11.6706,11.5795,11.5947,11.6251,11.6554,11.5871,11.739,11.8681,11.9592,11.9895,11.9895,11.9744,11.9895,12.0123,12.0731,12.2097,12.2933,12.3996,12.6195,12.7254,12.6782,12.6359,12.6093,12.5366,12.4529,12.4601,12.619,12.7243,12.8292,12.9432,12.9729,12.9444,12.9058,12.8765,12.8424,12.8141,12.8094,12.8094,12.8094,12.8094,12.8094,12.8094,12.8094,12.8094,12.8094,12.8094,12.8094,12.8094,12.8094,12.8917,13.0861,13.0711,13.1908,13.3702,13.4974,13.6095,13.7217,13.7591,13.774,13.7815,13.7815,13.7815,13.7815,13.774,13.7336,13.6742,13.6187,13.5522,13.3875,13.2608,13.134,13.0303,13.0239,12.9586,12.8576,12.9361,13.0717,13.0055,12.9433,12.822,12.665,12.401,12.3225,12.2583,12.2083,12.2083,12.2083,12.2083,12.2369,12.2868,12.2654,12.2583,12.294,12.3439,12.3011,12.2725,12.3653,12.3961,11.1923,11.2758,11.534,11.6782,11.7542,11.9212,11.8984,11.7618,11.739,11.701,11.6706,11.7162,11.7921,11.8681,11.7845,11.739,11.7162,11.5795,11.5112,11.5036,11.4732,11.4808,11.5719,11.7769,11.8681,11.8681,11.944,11.9364,11.8832,11.9516,11.9895,12.0199,12.1642,12.2401,12.2553,12.4738,12.5521,12.531,12.5855,12.6003,12.5722,12.5776,12.6497,12.7226,12.7815,12.84,12.9389,12.9531,12.933,12.907,12.869,12.8348,12.8117,12.8094,12.8094,12.8094,12.8094,12.8094,12.8094,12.8094,12.8094,12.8094,12.8094,12.8094,12.8094,12.8094,12.8767,13.0113,13.0412,13.131,13.2656,13.3553,13.4749,13.5946,13.5572,13.4974,13.4974,13.5123,13.5048,13.5273,13.5744,13.6049,13.49,13.426,13.3266,13.2026,13.0811,12.9445,12.8308,12.8535,12.8362,12.7792,12.8148,12.7943,12.7279,12.7414,12.6721,12.4723,12.2868,12.3439,12.2868,12.2083,12.2083,12.2083,12.2083,12.2155,12.2297,12.2297,12.2083,12.2083,12.2083,12.2226,12.2226,12.2797,12.2725,11.2834,11.3517,11.6251,11.7693,11.8301,11.9364,11.9212,11.8149,11.8073,11.8149,11.8073,11.8073,11.8832,11.9668,11.8149,11.7162,11.6327,11.5036,11.4352,11.3593,11.2378,11.291,11.4732,11.7618,11.8832,11.8453,11.9364,11.9288,11.8225,11.944,11.9895,11.9971,12.111,12.1718,12.2022,12.3187,12.3629,12.3588,12.4644,12.5323,12.5647,12.6673,12.7659,12.8278,12.8724,12.9161,12.9322,12.9503,12.9479,12.9183,12.8753,12.8424,12.8117,12.8094,12.8094,12.8094,12.8094,12.8094,12.8094,12.8094,12.8094,12.8094,12.8094,12.8094,12.8094,12.8094,12.8618,12.944,12.9814,13.0263,13.1384,13.1983,13.2805,13.3777,13.3104,13.2656,13.3029,13.2955,13.2955,13.3029,13.4076,13.3959,13.301,13.2103,13.1293,12.9926,12.8608,12.7363,12.6525,12.6525,12.6954,12.6615,12.5784,12.5211,12.4852,12.5349,12.4723,12.2583,12.2226,12.2654,12.2226,12.1727,12.1869,12.1941,12.1798,12.1941,12.2012,12.1798,12.2083,12.2083,12.1941,12.1655,12.1727,12.1441,12.1298,11.3517,11.5112,11.6782,11.8377,11.9668,11.9895,11.982,11.9744,11.9668,11.9592,11.9668,11.9516,11.9744,11.9516,11.8149,11.6782,11.5188,11.3745,11.2302,11.1239,11.0632,11.1467,11.3365,11.6175,11.8149,11.9136,11.9744,11.9744,11.9212,11.9744,11.9971,11.9971,12.0199,12.0123,12.0579,12.1513,12.2037,12.1812,12.2985,12.4271,12.5226,12.5701,12.6497,12.794,12.8624,12.9046,12.9183,12.9591,12.9729,12.9376,12.8844,12.8348,12.8164,12.8094,12.8094,12.8094,12.8094,12.8094,12.8094,12.8094,12.8094,12.8094,12.8094,12.8094,12.8094,12.8094,12.8244,12.8468,12.8468,12.8468,12.8842,12.9739,13.0562,13.0711,13.0711,13.1235,13.2581,13.273,13.2356,13.2581,13.2803,13.2394,13.0627,13.0117,12.9061,12.7874,12.735,12.5771,12.4833,12.4563,12.5182,12.4536,12.3415,12.2765,12.2008,12.2409,12.2155,12.0585,12.0514,12.0942,12.0942,12.1084,12.1227,12.137,12.1441,12.1678,12.1678,12.1179,12.1156,12.1013,12.087,12.1084,12.0728,12.0085,11.9514,11.5036,11.6706,11.8301,11.9364,11.9895,11.9971,11.9971,11.9971,11.9971,11.9971,11.9971,11.9971,11.9971,11.9592,11.8149,11.7086,11.6327,11.3669,11.2226,11.1543,11.0632,11.1543,11.4125,11.5491,11.6782,11.8225,11.944,11.9364,11.8453,11.9364,11.9971,11.9971,11.9971,11.9895,11.9771,12.0258,12.0218,11.9999,12.1197,12.2242,12.2849,12.4505,12.5851,12.6569,12.7904,12.8724,12.9046,12.9318,12.9381,12.9172,12.8784,12.8348,12.8117,12.8019,12.8094,12.8094,12.8094,12.8019,12.8094,12.8019,12.8094,12.8094,12.8094,12.8094,12.8094,12.8094,12.8094,12.8094,12.8094,12.8094,12.8169,12.8692,12.8917,12.8991,12.8991,12.9216,12.9665,12.9889,12.9964,13.0263,13.0861,13.0578,12.9349,12.851,12.7177,12.5781,12.4277,12.2327,12.2112,12.2303,12.2084,12.168,12.0972,12.04,11.956,11.9345,11.9275,11.9015,11.8801,11.9087,11.9586,11.98,11.9871,11.9943,11.9871,11.9966,11.9895,11.9729,11.98,11.9229,11.8801,11.8825,11.8825,11.8373,11.7014,11.6403,11.7542,11.9212,11.9971,11.9971,11.9971,11.9971,11.9971,11.9971,11.9971,11.9971,11.9971,11.9971,11.9668,11.8756,11.7921,11.7162,11.4656,11.3365,11.3062,11.1619,11.2378,11.4732,11.5567,11.663,11.8149,11.944,11.9288,11.8681,11.9364,11.9971,11.9971,11.9971,11.982,11.9565,11.9414,11.9137,11.8711,11.9706,12.0431,12.0985,12.2935,12.4281,12.495,12.6655,12.7518,12.7362,12.7376,12.7431,12.7394,12.7181,12.6846,12.6592,12.6524,12.6524,12.6599,12.6973,12.7272,12.7346,12.772,12.8094,12.8094,12.8094,12.8094,12.8094,12.8094,12.8094,12.8094,12.8094,12.8094,12.8094,12.8094,12.8169,12.8094,12.8094,12.8169,12.8393,12.8244,12.8094,12.8244,12.9066,12.8907,12.7614,12.6629,12.5106,12.3548,12.2077,12.0668,12.0147,12.0484,12.0285,12.0073,11.8747,11.8207,11.8234,11.8257,11.7715,11.7131,11.7039,11.716,11.7731,11.8088,11.7945,11.7945,11.7874,11.7802,11.7731,11.7802,11.8016,11.7802,11.7541,11.7185,11.6757,11.5692,11.4313,11.739,11.7769,11.9212,11.9971,11.9971,11.9971,11.9971,11.9971,11.9971,11.9971,11.9895,11.982,11.9744,11.9895,11.9516,11.8756,11.7086,11.534,11.4504,11.4428,11.3062,11.3365,11.5112,11.6479,11.7997,11.9668,11.9895,11.9895,11.9668,11.982,11.9895,11.9895,11.9895,11.9703,11.9536,11.9243,11.8964,11.8627,11.8474,11.9114,12.049,12.0939,12.1813,12.3131,12.4812,12.5175,12.3856,12.3856,12.4192,12.4243,12.4041,12.3539,12.3552,12.3533,12.3285,12.3733,12.4804,12.5552,12.5851,12.7122,12.7795,12.8094,12.8094,12.8094,12.8094,12.8094,12.8094,12.8094,12.8094,12.8094,12.8094,12.8094,12.8094,12.8094,12.8094,12.8094,12.8094,12.8094,12.8094,12.8094,12.8169,12.6993,12.5029,12.4289,12.3413,12.1664,12.1013,12.085,11.9545,12.0039,12.0525,12.0153,11.8507,11.7186,11.7145,11.7107,11.6183,11.5407,11.5253,11.5234,11.5876,11.6161,11.6018,11.6018,11.5947,11.6018,11.5947,11.5947,11.6232,11.6232,11.6543,11.64,11.5196,11.3721,11.2089,11.8073,11.9136,11.9668,11.9971,11.9971,11.9971,11.9971,11.9971,11.9971,11.9971,11.9668,11.8681,11.8908,11.9668,11.8756,11.7314,11.5719,11.4125,11.3365,11.3289,11.2834,11.3441,11.5112,11.6706,11.8301,11.9744,11.9971,11.982,11.9699,11.9692,11.957,11.9392,11.9377,11.9263,11.8927,11.8777,11.8644,11.8365,11.8261,11.8373,11.9069,12.0116,12.099,12.1485,12.2093,12.2127,12.1677,12.2705,12.3261,12.331,12.3261,12.3141,12.3108,12.306,12.306,12.306,12.3584,12.4355,12.5402,12.6075,12.6898,12.7945,12.8094,12.8094,12.8094,12.8094,12.8094,12.8094,12.8094,12.8094,12.8094,12.8094,12.8094,12.8094,12.8094,12.8094,12.8094,12.8094,12.8094,12.8094,12.8094,12.7198,12.5501,12.4081,12.2533,12.0837,12.072,12.0278,11.9159,11.9677,12.0415,11.9126,11.7314,11.6513,11.6113,11.5608,11.4678,11.402,11.3806,11.3664,11.3806,11.3949,11.4021,11.4092,11.4163,11.4235,11.4235,11.4235,11.4163,11.4092,11.452,11.4601,11.2921,11.17,10.9864,11.8377,11.9895,11.9971,11.9971,11.9971,11.9971,11.9971,11.9971,11.9971,11.9592,11.8984,11.8529,11.8301,11.8073,11.6403,11.5415,11.496,11.3289,11.291,11.3441,11.3441,11.4352,11.5947,11.7542,11.8984,11.982,11.9812,11.9688,11.9475,11.9377,11.93,11.9148,11.9201,11.8964,11.8652,11.8586,11.8486,11.8216,11.8149,11.785,11.7476,11.8897,11.9218,11.8149,11.8074,11.8074,11.8097,11.957,12.0392,12.0392,12.099,12.1289,12.1289,12.1289,12.1289,12.1364,12.1888,12.271,12.3757,12.4879,12.6075,12.7122,12.772,12.8094,12.8094,12.8094,12.8094,12.8094,12.8094,12.8094,12.8094,12.8094,12.8094,12.8094,12.8094,12.8094,12.8094,12.8094,12.8094,12.8094,12.8019,12.7421,12.5602,12.3608,12.1888,12.0864,12.0168,11.942,11.8672,11.9046,11.9252,11.7891,11.6746,11.5709,11.5204,11.4174,11.3514,11.2975,11.2736,11.2808,11.2879,11.3093,11.3164,11.3378,11.3236,11.3236,11.345,11.3378,11.3307,11.3164,11.3164,11.2637,11.0223,10.9984,10.8212,11.8453,11.9895,11.9971,11.982,11.982,11.9895,11.9895,11.9668,11.9895,11.8984,11.7845,11.8832,11.7845,11.4808,11.3517,11.3441,11.4352,11.2986,11.2986,11.4277,11.458,11.5643,11.7313,11.8984,11.9744,11.982,11.9671,11.9377,11.9246,11.9125,11.9102,11.9141,11.9029,11.8895,11.8569,11.8575,11.8448,11.8216,11.7999,11.7251,11.613,11.7177,11.6429,11.3812,11.3438,11.3737,11.3737,11.4859,11.5681,11.5606,11.7251,11.8149,11.8149,11.8224,11.8373,11.8523,11.9719,12.064,12.1238,12.3533,12.5253,12.5627,12.6898,12.7945,12.772,12.7945,12.8019,12.8094,12.772,12.7646,12.772,12.7421,12.7496,12.7945,12.7945,12.772,12.787,12.7496,12.7795,12.7646,12.7421,12.6673,12.5402,12.2635,12.1065,12.0243,11.927,11.8373,11.8373,11.8327,11.8065,11.7303,11.6556,11.5997,11.4404,11.3431,11.2931,11.2736,11.2736,11.2736,11.2736,11.2736,11.2736,11.2736,11.2736,11.2665,11.2665,11.2665,11.2594,11.1836,11.1693,11.0492,10.8067,10.8096,10.6304,11.9516,11.9895,11.9971,11.9212,11.8225,11.9364,11.9288,11.8301,11.944,11.8984,11.739,11.6706,11.458,11.1771,11.2226,11.2075,11.1391,11.0681,11.0728,11.1176,11.2148,11.3457,11.5041,11.6716,11.8148,11.9184,11.9206,11.9213,11.9125,11.8895,11.8661,11.8503,11.8464,11.8385,11.8261,11.8315,11.8229,11.8097,11.6952,11.613,11.5606,11.5008,11.3662,11.1867,11.269,11.3266,11.3341,11.3737,11.3961,11.4036,11.5532,11.6354,11.6429,11.7476,11.8149,11.8224,11.8672,11.9443,12.064,12.1537,12.2561,12.3682,12.5327,12.63,12.6449,12.7421,12.8019,12.772,12.5851,12.4954,12.5851,12.5178,12.5627,12.7571,12.5776,12.5028,12.5926,12.5103,12.4505,12.443,12.458,12.4206,12.3533,12.2112,12.0317,11.9495,11.957,11.9742,11.8575,11.8562,11.8343,11.7082,11.561,11.4445,11.3419,11.2628,11.2754,11.2736,11.2522,11.2451,11.2736,11.2665,11.2665,11.1809,11.2451,11.2451,11.1381,11.188,11.2237,11.0107,10.8575,10.7195,10.5539,10.4304,10.2781,11.8359,11.768,11.7844,11.739,11.6782,11.8225,11.7997,11.6782,11.8908,11.8149,11.5491,11.4165,11.2234,10.9801,11.0716,11.0716,10.9721,10.9564,10.9819,11.0486,11.1209,11.2426,11.409,11.5149,11.6057,11.703,11.7719,11.7955,11.8036,11.8291,11.8344,11.8194,11.8149,11.8149,11.8149,11.8149,11.785,11.7177,11.613,11.5008,11.3662,11.2092,11.0746,11.0019,11.0746,11.1269,11.1269,11.1942,11.2316,11.2391,11.3886,11.4709,11.4709,11.6279,11.7177,11.7177,11.7775,11.8597,11.9667,11.9644,12.0116,12.099,12.2635,12.3234,12.271,12.4131,12.4729,12.3981,12.2262,12.1364,12.2262,12.1663,12.1813,12.3234,12.2336,12.1439,12.2411,12.1663,12.1364,12.2037,12.2112,12.2112,12.1962,12.1813,12.099,11.9719,11.886,11.8662,11.7791,11.7703,11.7186,11.579,11.3319,11.1622,11.0928,11.0881,11.0738,11.0738,11.081,11.081,11.0667,11.081,11.081,11.0738,11.0596,11.0168,10.9597,11.0168,11.0453,10.9137,10.7027,10.5234,10.2596,10.1933,10.0546,11.5895,11.4628,11.4938,11.5032,11.5188,11.6479,11.6175,11.5188,11.7997,11.6706,11.253,11.1782,11.0771,10.9379,10.9324,10.9334,10.9258,10.9206,10.9876,11.1097,11.1302,11.2122,11.3611,11.3786,11.3873,11.4267,11.54,11.6109,11.6393,11.7383,11.8022,11.8149,11.8149,11.8074,11.7924,11.7924,11.7102,11.5532,11.5307,11.3737,11.0692,10.9026,10.8278,10.8278,10.8278,10.8278,10.8502,10.9795,11.0543,11.0692,11.2167,11.3064,11.3288,11.4559,11.5457,11.5532,11.6803,11.77,11.77,11.77,11.77,11.785,11.927,11.9644,11.8373,11.9121,11.9144,11.7999,11.77,11.785,11.7924,11.785,11.8074,11.8897,11.8224,11.7775,11.8074,11.785,11.8298,11.9892,11.9644,11.9943,11.9719,12.0467,12.0892,11.8831,11.7112,11.5885,11.568,11.5197,11.4295,11.3048,11.0687,10.8512,10.8355,10.8141,10.8498,10.8427,10.8213,10.8427,10.8598,10.8455,10.8213,10.8955,10.8498,10.8384,10.8027,10.8027,10.8098,10.6854,10.588,10.4479,10.0965,10.0054,9.9521,11.4568,11.4189,11.4318,11.4343,11.4343,11.4722,11.3888,11.2592,11.4495,11.3358,11.0455,11.1114,11.0751,10.9303,10.9303,10.9303,10.9196,10.8891,10.8993,10.9265,10.9111,10.9926,11.1446,11.1521,11.2252,11.3433,11.384,11.4602,11.5726,11.6046,11.6878,11.8074,11.8149,11.7476,11.6279,11.6205,11.5457,11.3886,11.254,11.0895,10.8972,10.8523,10.8278,10.8278,10.8203,10.8278,10.8278,10.8598,10.8802,10.8876,11.0447,11.1419,11.1419,11.2914,11.3812,11.3886,11.4186,11.441,11.441,11.441,11.441,11.441,11.5905,11.6653,11.613,11.4335,11.2861,11.2712,11.3662,11.4933,11.5756,11.5158,11.5457,11.77,11.598,11.4933,11.5905,11.5158,11.4634,11.4859,11.5008,11.5083,11.5008,11.5307,11.5349,11.4461,11.2963,11.2221,11.2096,11.1409,11.0474,10.9568,10.874,10.7927,10.8141,10.7998,10.7884,10.8141,10.7998,10.7742,10.7813,10.7956,10.807,10.7813,10.7884,10.7385,10.66,10.7099,10.6514,10.3994,10.3776,10.273,9.8792,9.7661,9.6518,11.2291,11.1624,11.1767,11.1896,11.1896,11.1896,11.1366,11.0578,11.1217,11.0441,10.8919,10.9687,10.9597,10.8843,10.8828,10.8843,10.8828,10.8585,10.8276,10.7966,10.8149,10.8599,10.9121,10.9442,11.0073,11.1045,11.1793,11.2615,11.346,11.426,11.5083,11.598,11.6653,11.6578,11.5756,11.5681,11.4485,11.2167,10.7518,10.5071,10.4972,10.3438,10.3017,10.3882,10.4625,10.4972,10.4972,10.4972,10.4972,10.4972,10.6107,10.7142,10.8077,10.9854,11.1235,11.2092,11.2914,11.2989,11.2241,11.2914,11.2989,11.2241,11.2914,11.3139,11.2316,11.0596,10.9624,10.9645,11.0447,11.1419,11.2092,11.1494,11.1718,11.3513,11.2167,11.1419,11.2017,11.1494,11.1344,11.2017,11.2167,11.2466,11.3213,11.3266,11.2989,11.2173,11.1718,11.1024,11.0351,10.83,10.6439,10.6054,10.5958,10.5958,10.5886,10.5958,10.5958,10.5958,10.5958,10.5958,10.5958,10.5886,10.5886,10.5958,10.5886,10.553,10.4959,10.5458,10.4521,10.1897,10.1674,10.0602,9.8128,9.6146,9.5865,10.9822,10.8643,10.898,10.9105,10.9105,10.9105,10.9105,10.9057,10.8445,10.8215,10.8203,10.8054,10.8054,10.8278,10.7979,10.8054,10.8278,10.8278,10.787,10.7298,10.7743,10.7549,10.6927,10.7348,10.7468,10.7479,10.8823,10.9772,11.0228,11.1548,11.2593,11.3115,11.4309,11.498,11.4929,11.4756,11.2891,10.9264,10.2197,9.9381,10.0907,9.8048,9.7095,9.8367,10.0099,10.0804,10.0422,10.0731,10.0731,10.048,10.1009,10.2043,10.356,10.5441,10.7412,10.9332,11.087,11.1213,11.004,11.1354,11.1675,11.0521,11.0468,10.9699,10.8108,10.8129,10.8278,10.8278,10.8353,10.8278,10.8278,10.8428,10.8502,10.8502,10.8353,10.8278,10.8502,10.8502,10.8951,11.0318,11.0468,11.1045,11.207,11.2303,11.178,11.1224,11.0204,11.011,10.8158,10.557,10.3644,10.3419,10.3419,10.3419,10.3705,10.3419,10.3633,10.3419,10.3675,10.3776,10.3776,10.3776,10.3693,10.3212,10.358,10.3479,10.3128,10.3141,10.2473,10.1255,9.9921,9.8721,9.7157,9.6304,9.6068,10.7996,10.8346,10.8444,10.8407,10.8426,10.8501,10.8407,10.8369,0.0,0.0,0.0,10.6932,10.7082,10.8129,10.6932,10.7007,10.8203,10.8278,10.8236,10.798,10.6732,10.6092,10.5908,10.4566,10.3643,10.3191,10.3488,10.4741,10.6814,10.708,10.8554,11.109,11.1532,11.1679,11.1606,11.0249,10.7051,10.2212,10.0559,10.0058,10.0535,9.9993,9.8573,9.6262,9.8817,9.917,9.692,9.8932,9.9213,9.7423,9.8236,9.8558,9.8009,9.9462,10.1111,10.2714,10.3453,10.4476,10.5713,10.6518,10.7414,10.8652,10.8748,10.7991,10.6154,10.7447,10.8278,10.8278,10.8278,10.8278,10.8278,10.8278,10.8278,10.8278,10.8278,10.8278,10.8278,10.8278,10.8353,10.8652,10.8802,10.8876,10.925,10.8776,10.793,10.7154,10.6755,10.5511,10.4637,10.394,10.3419,10.3419,10.3419,10.3419,10.3419,10.3419,10.3419,10.3419,10.3419,10.3419,10.3419,10.3419,10.2901,10.1954,10.266,10.2774,10.191,10.1731,10.1161,9.9901,9.8584,9.7145,9.6047,9.632,9.6994,10.6726,10.7094,10.712,10.6601,0.0,10.6749,10.6182,10.465,10.4213,10.4523,10.52,10.4433,10.4758,10.5736,10.4988,10.4843,10.52,10.5275,10.4798,10.4004,10.2817,10.1952,10.1534,10.0299,9.9485,9.9253,9.9153,9.9904,10.1096,10.1096,10.2316,10.474,10.5548,10.5578,10.4843,10.5395,10.2772,9.7011,9.5293,9.5048,9.5951,9.4301,9.3299,9.3356,9.4948,0.0,0.0,0.0,0.0,0.0,0.0,0.0,0.0,0.0,0.0,9.8428,9.7211,9.7305,9.9136,9.956,10.0891,10.3603,10.3849,10.2988,10.1066,10.3461,10.5218,10.5762,10.606,10.6578,10.7589,10.7687,10.7802,10.8257,10.8278,10.8278,10.8278,10.8278,10.8278,10.8278,10.8278,10.8278,10.8278,10.7616,10.678,10.6031,10.513,10.4348,10.3593,10.3419,10.3419,10.3419,10.3419,10.3419,10.3419,10.3419,10.3419,10.3419,10.3419,10.3141,10.2489,10.2288,10.2157,10.1481,10.1207,10.1414,10.1161,10.0671,9.9852,9.8532,9.7627,9.6821,9.5642,9.6402,9.752,10.5418,10.4986,10.5059,10.4252,10.3078,10.413,10.2929,10.0436,10.0729,10.1312,10.2028,10.1732,10.2076,10.2956,10.2658,10.2338,10.2053,10.2028,10.1193,9.9619,9.8736,9.7798,9.689,9.5881,9.5329,9.5246,9.5246,9.5308,9.5486,9.5486,9.6335,9.7782,9.9158,9.9188,9.8001,0.0,0.0,0.0,8.9629,8.9257,9.0298,8.8218,8.7863,8.9332,9.0612,0.0,9.1734,9.145,9.0924,9.0261,9.0751,0.0,0.0,0.0,0.0,0.0,0.0,0.0,0.0,0.0,0.0,0.0,9.7446,9.6596,9.5531,9.8644,10.1175,10.2404,10.3209,10.4253,10.5825,10.6,10.6406,10.7466,10.7606,10.7799,10.8203,10.8278,10.8278,10.8278,10.8119,10.8054,10.7967,10.7148,10.6388,10.5689,10.4889,10.4123,10.3471,10.3419,10.3419,10.3419,10.3419,10.3419,10.3419,10.3419,10.3307,10.3057,10.3057,10.2445,10.1207,10.0929,10.0929,10.0386,9.9852,9.9703,10.0241,9.9703,9.8584,9.7476,9.6978,9.6415,9.5127,9.5699,9.6825,10.3588,10.1743,10.167,10.1596,10.1258,10.0127,9.901,9.8173,9.9447,10.0548,10.1182,9.9757,10.0005,10.1295,9.997,10.0061,10.1182,10.1255,10.0361,9.8839,9.727,9.5748,9.4299,9.2605,9.153,9.0987,9.0987,9.1359,9.2153,9.2118,9.2906,9.4299,9.466,9.4513,9.374,8.9675,8.592,8.2455,8.5649,8.6832,8.5877,8.8041,8.7472,8.4053,8.7607,8.8588,8.633,8.8196,8.7833,8.4731,8.5502,8.5177,8.3203,8.4685,8.5157,0.0,8.4813,0.0,0.0,0.0,0.0,0.0,0.0,0.0,0.0,9.4508,9.7242,9.9203,10.0655,10.1566,10.1844,10.1844,10.2714,10.4922,10.5219,10.603,10.7991,10.8278,10.8278,10.8278,10.7687,10.7248,10.7148,10.5866,10.4923,10.4748,10.3941,10.3266,10.3348,10.3277,10.3277,10.3419,10.3419,10.3378,10.3265,10.3265,10.2859,10.1821,10.1596,10.1068,9.9802,9.9554,9.9202,9.8216,9.8584,9.8844,9.7843,9.7627,9.7421,9.7145,9.6186,9.4923,9.3653,9.334,9.3242,10.2792,10.1062,10.1062,9.9224,9.619,9.4649,9.4222,9.4642,9.5284,9.6167,9.7078,9.6808,9.7313,9.831,9.7649,9.7491,9.7756,9.7756,9.6631,9.4656,9.3071,9.1521,8.993,8.8224,8.7249,8.6993,8.6822,8.6662,8.6577,8.661,8.7088,8.805,8.817,8.667,8.3737,8.3767,8.3083,8.1612,8.3536,8.4389,8.3911,8.5383,8.5401,8.3831,8.6,8.6424,8.4667,8.5929,8.5448,8.2923,8.3412,8.3239,8.2266,8.0146,7.9686,0.0,0.0,0.0,0.0,0.0,0.0,0.0,0.0,0.0,0.0,0.0,9.0495,9.2074,9.6018,9.8114,9.7367,9.8093,9.9277,10.0972,10.1129,10.1957,10.4078,10.5041,10.5264,10.4426,10.4777,10.5073,10.5045,10.4043,10.3556,10.4462,10.1996,10.0335,10.1115,10.1539,10.1705,10.1777,10.2654,10.3182,10.2288,10.1596,10.0882,10.0338,10.0193,9.9753,9.8427,9.8163,9.795,9.7366,9.7157,9.7046,9.7145,9.6652,9.6146,9.5831,9.4439,9.2485,9.087,9.1565,9.2151,10.1313,9.9472,9.8422,9.5476,9.1458,9.0219,9.0485,9.1617,9.166,9.1981,9.2541,9.3118,9.3139,9.2769,9.2406,9.2461,9.2904,9.2904,9.1903,9.0126,8.8923,8.7365,8.5525,8.4248,8.3611,8.3611,8.3466,8.2919,8.2315,8.2276,8.217,8.1865,8.0847,7.8209,7.4332,7.7656,7.9569,7.9666,8.0109,8.0682,8.1203,8.1738,8.2465,8.3278,8.3526,8.3534,8.3096,8.3091,8.2394,8.1022,8.0575,8.0357,8.0461,7.5902,0.0,0.0,0.0,0.0,0.0,0.0,0.0,0.0,0.0,7.8376,7.4503,0.0,8.4047,0.0,9.0186,9.3508,9.3012,9.3622,0.0,0.0,9.611,9.6888,9.8956,10.0965,10.1698,10.0511,10.1681,10.2584,10.2584,10.1736,10.1604,10.246,9.9479,9.7545,9.867,9.9029,9.9089,9.9401,10.0378,10.0983,9.9948,9.9236,9.889,9.8827,9.8844,9.8322,9.6923,9.6765,9.6709,9.6652,9.5922,9.5555,9.6014,9.545,9.4567,9.3617,9.1601,8.9304,8.7737,8.8519,8.9452,9.7947,9.4815,9.0949,8.8925,8.8382,8.8313,8.9002,9.0311,9.0311,8.9643,8.851,8.8642,8.6458,8.2716,8.144,0.0,8.6651,8.6651,8.647,8.6144,8.6075,8.4487,8.1726,8.1519,8.1478,8.145,8.1478,8.1438,8.1287,8.1287,7.9937,7.7153,7.2918,7.0061,6.8451,6.9863,7.1207,7.2358,7.3417,7.4679,7.6145,7.7514,7.8718,7.9677,7.8893,7.8964,7.9913,7.8964,7.7989,7.739,7.5027,7.362,7.3513,0.0,0.0,0.0,0.0,0.0,0.0,0.0,0.0,0.0,0.0,0.0,0.0,0.0,0.0,0.0,8.2972,0.0,8.8897,8.7759,0.0,0.0,0.0,9.1055,9.3339,9.6598,9.8516,9.8443,0.0,0.0,10.0178,9.907,9.8068,9.7334,9.6729,9.6391,9.646,9.5888,9.5749,9.6415,9.612,9.5769,9.5855,9.6559,9.72,9.7099,9.7366,9.68,9.568,9.5391,9.5398,9.5385,9.5338,9.4883,9.3626,9.3245,9.238,8.9439,8.7717,8.6145,8.4543,8.3373,8.2972,9.2485,8.5706,8.2738,8.1648,8.1859,8.0649,8.1984,8.5158,8.469,8.3945,8.2913,8.2913,8.0317,7.589,7.5451,0.0,0.0,0.0,8.0472,7.9994,8.1245,8.0748,7.8807,7.9443,7.9293,7.8469,7.9198,7.8867,7.7476,7.7476,7.4126,6.7584,0.0,0.0,6.335,6.7321,6.9388,6.9512,7.1669,7.3143,7.3871,7.4423,7.4945,7.5288,7.5692,7.5534,7.4968,7.5181,7.414,7.1355,7.0573,6.9325,0.0,0.0,0.0,0.0,0.0,0.0,0.0,0.0,0.0,0.0,0.0,7.1859,6.8143,0.0,0.0,0.0,7.5133,7.7252,7.9222,8.1255,0.0,0.0,0.0,0.0,0.0,0.0,0.0,9.4034,9.5112,9.6154,9.6973,9.3528,9.159,9.3258,9.2099,9.1321,9.1842,0.0,9.3215,9.3358,9.4375,9.4733,9.3691,9.4116,9.4311,9.3532,9.4171,9.4481,9.4028,9.4692,9.4889,9.4172,9.3969,9.3508,9.2062,8.9354,8.6802,8.479,8.3848,8.2977,8.133,8.1011,8.0786,8.5211,0.0,0.0,0.0,0.0,7.316,7.4496,7.8063,7.7604,7.685,7.5917,7.6137,0.0,0.0,0.0,0.0,0.0,0.0,7.4576,7.4749,7.6488,7.655,7.5157,7.591,7.58,7.4987,7.5604,7.5004,7.3294,7.1837,6.7247,5.9916,0.0,0.0,0.0,0.0,6.4985,6.4957,6.7624,6.923,6.9527,6.9887,7.0066,7.0002,7.138,7.1562,7.0544,7.0783,6.9767,6.7186,6.5953,0.0,0.0,0.0,0.0,0.0,0.0,0.0,0.0,0.0,0.0,0.0,0.0,0.0,0.0,0.0,0.0,0.0,0.0,0.0,7.2574,7.5452,7.6806,0.0,0.0,0.0,0.0,0.0,0.0,0.0,0.0,0.0,9.1465,8.8131,8.6552,0.0,0.0,8.675,8.7135,8.8551,8.9492,8.9309,9.0944,0.0,9.0494,9.0253,8.9868,8.8936,8.9434,9.0101,9.0431,9.15,9.1993,9.105,9.0919,9.002,8.7466,8.4461,8.2103,8.0049,7.9554,7.88,7.675,7.6517,7.6754,0.0,0.0,0.0,0.0,0.0,0.0,0.0,0.0,6.925,6.8586,0.0,6.8162,0.0,0.0,0.0,0.0,0.0,6.6727,0.0,0.0,7.1866,7.1836,7.0701,7.0371,7.0549,7.1018,7.0281,6.9587,6.8776,6.4193,0.0,0.0,0.0,0.0,0.0,0.0,5.5783,5.7103,5.962,6.1221,6.2307,6.339,6.3823,6.3852,6.5238,6.6567,6.7392,6.5381,6.4725,6.5972,6.0972,0.0,0.0,0.0,0.0,0.0,0.0,0.0,0.0,0.0,0.0,0.0,0.0,0.0,0.0,0.0,0.0,0.0,0.0,0.0,0.0,7.0832,0.0,0.0,0.0,0.0,0.0,0.0,0.0,0.0,0.0,0.0,8.2971,8.344,8.4198,8.4046,0.0,0.0,0.0,0.0,8.4091,8.4071,8.487,8.533,8.5057,8.4335,8.3741,8.3682,0.0,0.0,8.4103,8.4887,8.552,8.5715,8.5784,8.3965,7.8313,7.838,7.8324,7.5164,7.4414,7.3296,7.0019,6.9029,6.8581,0.0,0.0,0.0,0.0,0.0,0.0,0.0,0.0,0.0,6.1367,0.0,6.0841,0.0,0.0,0.0,0.0,0.0,0.0,0.0,0.0,6.2819,6.3311,6.1046,6.4309,6.4521,0.0,6.3721,6.1734,0.0,0.0,0.0,0.0,0.0,0.0,0.0,0.0,5.4759,5.4696,5.8373,6.0785,6.1785,6.2198,6.2674,6.3302,6.3892,6.3876,6.3316,6.1908,6.1043,0.0,0.0,0.0,0.0,0.0,0.0,0.0,0.0,0.0,0.0,0.0,0.0,0.0,0.0,0.0,0.0,0.0,0.0,0.0,0.0,0.0,0.0,0.0,6.6794,0.0,0.0,0.0,0.0,0.0,0.0,0.0,0.0,0.0,7.9084,7.8152,7.8318,8.0311,8.0841,8.0989,8.0561,0.0,0.0,0.0,0.0,0.0,0.0,0.0,7.9541,8.0782,8.0359,8.0797,8.335,8.3102,8.2535,8.2415,0.0,0.0,7.0526,6.9306,6.902,6.7749,6.8715,6.9098,6.721,6.752,6.8129,0.0,0.0,0.0,0.0,0.0,0.0,0.0,0.0,0.0,5.4529,5.4147,0.0,0.0,0.0,0.0,0.0,0.0,0.0,0.0,0.0,0.0,0.0,5.4895,5.8089,0.0,0.0,0.0,0.0,0.0,0.0,0.0,0.0,0.0,0.0,0.0,0.0,5.1645,5.0039,5.408,5.6547,5.6887,5.7223,5.771,5.8541,5.9304,5.9258,5.8219,0.0,0.0,0.0,0.0,0.0,0.0,0.0,0.0,0.0,0.0,0.0,0.0,0.0,0.0,0.0,0.0,0.0,0.0,0.0,0.0,0.0,0.0,0.0,0.0,0.0,6.3219,0.0,0.0,0.0,0.0,0.0,0.0,0.0,0.0,0.0,0.0,0.0,7.3185,7.577,7.6845,7.7295,7.7114,7.7649,7.7908,0.0,0.0,0.0,0.0,0.0,0.0,0.0,0.0,0.0,0.0,0.0,0.0,0.0,0.0,6.869,6.3731,6.2385,6.1946,6.1233,0.0,0.0,0.0,0.0,0.0,0.0,0.0,0.0,0.0,0.0,0.0,0.0,0.0,0.0,0.0,4.8038,0.0,0.0,4.6933,0.0,0.0,0.0,0.0,0.0,0.0,0.0,0.0,0.0,0.0,0.0,0.0,0.0,0.0,0.0,0.0,0.0,0.0,0.0,0.0,0.0,0.0,4.6434,4.277,4.6767,4.8248,4.7461,4.8157,4.8951,4.9265,5.1247,5.2437,5.2417,0.0,0.0,0.0,0.0,0.0,0.0,0.0,0.0,0.0,0.0,0.0,0.0,0.0,0.0,0.0,0.0,0.0,0.0,0.0,0.0,0.0,0.0,0.0,0.0,0.0,0.0,6.0122,6.2006,6.3457,0.0,0.0,0.0,0.0,0.0,0.0,0.0,0.0,0.0,0.0,7.157,7.243,7.2733,7.4043,7.4515,7.3374,7.4469,7.5259,7.4482,7.2592,7.1087,0.0,0.0,0.0,0.0,0.0,0.0,0.0,0.0,0.0,0.0,0.0,0.0,0.0,0.0,0.0,0.0,0.0,0.0,0.0,0.0,0.0,0.0,0.0,0.0,0.0,0.0,0.0,0.0,0.0,0.0,0.0,0.0,0.0,0.0,0.0,0.0,0.0,0.0,0.0,0.0,0.0,0.0,0.0,0.0,0.0,0.0,0.0,0.0,0.0,0.0,0.0,0.0,0.0,0.0,4.4766,4.1913,4.498,4.6266,4.5592,4.6252,4.7051,4.7994,4.8604,4.8953,0.0,0.0,0.0,0.0,0.0,0.0,0.0,0.0,0.0,0.0,0.0,0.0,0.0,0.0,0.0,0.0,0.0,0.0,0.0,0.0,0.0,0.0,0.0,0.0,0.0,0.0,0.0,0.0,6.1803,6.2654,6.2903,0.0,0.0,0.0,0.0,0.0,0.0,0.0,0.0,0.0,0.0,7.0596,7.2316,7.2296,7.1502,6.9525,6.9371,6.8964,6.7089,6.5832,6.5299,6.5765,0.0,0.0,0.0,0.0,0.0,0.0,0.0,0.0,0.0,0.0,0.0,0.0,0.0,0.0,0.0,0.0,0.0,0.0,0.0,0.0,0.0,0.0,0.0,0.0,0.0,0.0,0.0,0.0,0.0,0.0,0.0,0.0,0.0,0.0,0.0,0.0,0.0,0.0,0.0,0.0,0.0,0.0,0.0,0.0,0.0,0.0,0.0,0.0,0.0,0.0,0.0,0.0,0.0,4.3053,3.8571,4.1698,4.2679,4.1275,4.1607,4.2209,4.2863,4.4031,4.4032,0.0,0.0,0.0,0.0,0.0,0.0,0.0,0.0,0.0,0.0,0.0,0.0,0.0,0.0,0.0,0.0,0.0,0.0,0.0,0.0,0.0,0.0,0.0,0.0,0.0,0.0,0.0,0.0,5.8685,5.9687,6.1545,0.0,0.0,0.0,0.0,0.0,0.0,0.0,0.0,0.0,0.0,6.7055,6.8725,6.8772,0.0,0.0,6.5834,6.5299,6.3293,6.2273,6.2047,6.2821,6.187,0.0,0.0,0.0,0.0,0.0,0.0,0.0,0.0,0.0,0.0,0.0,0.0,0.0,0.0,0.0,0.0,0.0,0.0,0.0,0.0,0.0,0.0,0.0,0.0,0.0,0.0,0.0,0.0,0.0,0.0,0.0,0.0,0.0,0.0,0.0,0.0,0.0,0.0,0.0,0.0,0.0,0.0,0.0,0.0,0.0,0.0,0.0,0.0,0.0,0.0,0.0,0.0,0.0,3.3777,3.7395,3.806,3.5127,3.5293,3.5341,3.5288,3.7825,3.7865,0.0,0.0,0.0,0.0,0.0,0.0,0.0,0.0,0.0,0.0,0.0,0.0,0.0,0.0,0.0,0.0,0.0,0.0,0.0,0.0,0.0,0.0,0.0,0.0,0.0,0.0,0.0,0.0,0.0,0.0,0.0,0.0,0.0,0.0,0.0,0.0,0.0,0.0,0.0,0.0,0.0,6.2364,6.287,6.4077,6.4309,0.0,6.3314,6.3645,6.2218,6.1014,6.0437,6.1126,0.0,0.0,0.0,0.0,0.0,0.0,0.0,0.0,0.0,0.0,0.0,0.0,0.0,0.0,0.0,0.0,0.0,0.0,0.0,0.0,0.0,0.0,0.0,0.0,0.0,0.0,0.0,0.0,0.0,0.0,0.0,0.0,0.0,0.0,0.0,0.0,0.0,0.0,0.0,0.0,0.0,0.0,0.0,0.0,0.0,0.0,0.0,0.0,0.0,0.0,0.0,0.0,0.0,0.0,3.2494,3.6172,3.6455,3.2985,3.1858,3.2226,3.3793,3.1629,0.0,0.0,0.0,0.0,0.0,0.0,0.0,0.0,0.0,0.0,0.0,0.0,0.0,0.0,0.0,0.0,0.0,0.0,0.0,0.0,0.0,0.0,0.0,0.0,0.0,0.0,0.0,5.0468,0.0,0.0,0.0,0.0,0.0,0.0,0.0,0.0,0.0,0.0,0.0,0.0,0.0,0.0,5.9567,5.8953,6.1928,6.2738,0.0,0.0,5.9476,5.7966,5.5812,5.4839,0.0,0.0,0.0,0.0,0.0,0.0,0.0,0.0,0.0,0.0,0.0,0.0,0.0,0.0,0.0,0.0,0.0,0.0,0.0,0.0,0.0,0.0,0.0,0.0,0.0,0.0,0.0,0.0,0.0,0.0,0.0,0.0,0.0,0.0,0.0,0.0,0.0,0.0,0.0,0.0,0.0,0.0,0.0,0.0,0.0,0.0,0.0,0.0,0.0,0.0,0.0,0.0,0.0,0.0,3.646,3.1434,3.3942,3.3549,2.9947,2.8806,2.8494,2.8949,2.7354,2.6952,0.0,0.0,0.0,0.0,0.0,0.0,0.0,0.0,0.0,0.0,0.0,0.0,0.0,0.0,0.0,0.0,0.0,0.0,0.0,0.0,0.0,0.0,0.0,0.0,0.0,0.0,0.0,0.0,0.0,0.0,0.0,0.0,0.0,0.0,0.0,0.0,0.0,0.0,0.0,0.0,0.0,0.0,5.5711,5.7852,0.0,0.0,0.0,5.4836,5.2801,0.0,0.0,0.0,0.0,0.0,0.0,0.0,0.0,0.0,0.0,0.0,0.0,0.0,0.0,0.0,0.0,0.0,0.0,0.0,0.0,0.0,0.0,0.0,0.0,0.0,0.0,0.0,0.0,0.0,0.0,0.0,0.0,0.0,0.0,0.0,0.0,0.0,0.0,0.0,0.0,0.0,0.0,0.0,0.0,0.0,0.0,0.0,0.0,0.0,0.0,0.0,0.0,0.0,0.0,0.0,0.0,0.0,3.0367,3.1486,3.0389,2.6957,2.6008,2.4875,2.3095,2.3755,2.3398,0.0,0.0,0.0,0.0,0.0,0.0,0.0,0.0,0.0,0.0,0.0,0.0,0.0,0.0,0.0,0.0,0.0,0.0,0.0,0.0,0.0,0.0,0.0,0.0,0.0,0.0,0.0,0.0,0.0,0.0,0.0,0.0,0.0,0.0,0.0,0.0,0.0,0.0,0.0,0.0,0.0,5.1067,5.2307,5.2846,5.2977,0.0,0.0,5.0336,4.7721,4.8438,0.0,0.0,0.0,0.0,0.0,0.0,0.0,0.0,0.0,0.0,0.0,0.0,0.0,0.0,0.0,0.0,0.0,0.0,0.0,0.0,0.0,0.0,0.0,0.0,0.0,0.0,0.0,0.0,0.0,0.0,0.0,0.0,0.0,0.0,0.0,0.0,0.0,0.0,0.0,0.0,0.0,0.0,0.0,0.0,0.0,0.0,0.0,0.0,0.0,0.0,0.0,0.0,0.0,0.0,0.0,0.0,2.9896,3.0941,2.9876,2.628,2.4311,2.3037,2.2642,1.9436,1.8605,0.0,0.0,0.0,0.0,0.0,0.0,0.0,0.0,0.0,0.0,0.0,0.0,0.0,0.0,0.0,0.0,0.0,0.0,0.0,0.0,0.0,0.0,0.0,0.0,0.0,0.0,0.0,0.0,0.0,0.0,0.0,0.0,0.0,0.0,0.0,0.0,0.0,0.0,0.0,0.0,0.0,4.8496,4.6394,4.8902,0.0,0.0,0.0,0.0,4.5695,4.6453,0.0,0.0,0.0,0.0,0.0,0.0,0.0,0.0,0.0,0.0,0.0,0.0,0.0,0.0,0.0,0.0,0.0,0.0,0.0,0.0,0.0,0.0,0.0,0.0,0.0,0.0,0.0,0.0,0.0,0.0,0.0,0.0,0.0,0.0,0.0,0.0,0.0,0.0,0.0,0.0,0.0,0.0,0.0,0.0,0.0,0.0,0.0,0.0,0.0,0.0,0.0,0.0,0.0,0.0,0.0,0.0,3.0105,2.9947,2.8109,2.4392,2.2904,2.0441,1.7067,1.5001,1.4577,0.0,0.0,0.0,0.0,0.0,0.0,0.0,0.0,0.0,0.0,0.0,0.0,0.0,0.0,0.0,0.0,0.0,0.0,0.0,0.0,0.0,0.0,0.0,0.0,0.0,0.0,0.0,0.0,0.0,0.0,0.0,0.0,0.0,0.0,0.0,0.0,0.0,0.0,0.0,0.0,4.69,4.6591,4.4592,0.0,0.0,0.0,0.0,0.0,0.0,4.2191,4.4023,0.0,0.0,0.0,0.0,0.0,0.0,0.0,0.0,0.0,0.0,0.0,0.0,0.0,0.0,0.0,0.0,0.0,0.0,0.0,0.0,0.0,0.0,0.0,0.0,0.0,0.0,0.0,0.0,0.0,0.0,0.0,0.0,0.0,0.0,0.0,0.0,0.0,0.0,0.0,0.0,0.0,0.0,0.0,0.0,0.0,0.0,0.0,0.0,0.0,0.0,0.0,0.0,0.0,0.0,0.0,3.0196,2.8488,2.5818,2.2075,2.1053,1.7546,1.1201,1.1031,1.066,1.0016,0.0,0.0,0.0,0.0,0.0,0.0,0.0,0.0,0.0,0.0,0.0,0.0,0.0,0.0,0.0,0.0,0.0,0.0,0.0,0.0,0.0,0.0,0.0,0.0,0.0,0.0,0.0,0.0,0.0,0.0,0.0,0.0,0.0,0.0,0.0,0.0,0.0,0.0,0.0,4.5225,4.4754,0.0,0.0,0.0,0.0,0.0,0.0,0.0,0.0,4.0847,0.0,0.0,0.0,0.0,0.0,0.0,0.0,0.0,0.0,0.0,0.0,0.0,0.0,0.0,0.0,0.0,0.0,0.0,0.0,0.0,0.0,0.0,0.0,0.0,0.0,0.0,0.0,0.0,0.0,0.0,0.0,0.0,0.0,0.0,0.0,0.0,0.0,0.0,0.0,0.0,0.0,0.0,0.0,0.0,0.0,0.0,0.0,0.0,0.0,0.0,0.0,0.0,0.0,0.0,0.0,0.0,2.5858,2.3152,2.057,1.7507,1.4294,1.1016,0.8896,0.5897,0.2235,0.0,0.0,0.0,0.0,0.0,0.0,0.0,0.0,0.0,0.0,0.0,0.0,0.0,0.0,0.0,0.0,0.0,0.0,0.0,0.0,0.0,0.0,0.0,0.0,0.0,0.0,0.0,0.0,0.0,0.0,0.0,0.0,0.0,0.0,0.0,0.0,0.0,0.0,4.5623,4.3546,0.0,0.0,0.0,0.0,0.0,0.0,0.0,0.0,3.7613,0.0,0.0,0.0,0.0,0.0,0.0,0.0,0.0,0.0,0.0,0.0,0.0,0.0,0.0,0.0,0.0,0.0,0.0,0.0,0.0,0.0,0.0,0.0,0.0,0.0,0.0,0.0,0.0,0.0,0.0,0.0,0.0,0.0,0.0,0.0,0.0,0.0,0.0,0.0,0.0,0.0,0.0,0.0,0.0,0.0,0.0,0.0,0.0,0.0,0.0,0.0,0.0,0.0,0.0,0.0,0.0,0.0,0.0,2.195,1.9484,1.616,1.2449,0.8483,0.504,0.1757,0.0,0.0,0.0,0.0,0.0,0.0,0.0,0.0,0.0,0.0,0.0,0.0,0.0,0.0,0.0,0.0,0.0,0.0,0.0,0.0,0.0,0.0,0.0,0.0,0.0,0.0,0.0,0.0,0.0,0.0,0.0,0.0,0.0,0.0,0.0,0.0,0.0,0.0,0.0,0.0,0.0,0.0,0.0,0.0,0.0,0.0,0.0,0.0,0.0,0.0,0.0,0.0,0.0,0.0,0.0,0.0,0.0,0.0,0.0,0.0,0.0,0.0,0.0,0.0,0.0,0.0,0.0,0.0,0.0,0.0,0.0,0.0,0.0,0.0,0.0,0.0,0.0,0.0,0.0,0.0,0.0,0.0,0.0,0.0,0.0,0.0,0.0,0.0,0.0,0.0,0.0,0.0,0.0,0.0,0.0,0.0,0.0,0.0,0.0,0.0,0.0,0.0,0.0,0.0,0.0,0.0,0.0,0.0,2.1773,1.8405,1.5109,1.1095,0.6358,0.2216,-0.1152,0.0,0.0,0.0,0.0,0.0,0.0,0.0,0.0,0.0,0.0,0.0,0.0,0.0,0.0,0.0,0.0,0.0,0.0,0.0,0.0,0.0,0.0,0.0,0.0,0.0,0.0,0.0,0.0,0.0,0.0,0.0,0.0,0.0,0.0,0.0,0.0,0.0,0.0,0.0,0.0,0.0,0.0,0.0,0.0,0.0,0.0,0.0,0.0,3.1551,0.0,0.0,0.0,0.0,0.0,0.0,0.0,0.0,0.0,0.0,0.0,0.0,0.0,0.0,0.0,0.0,0.0,0.0,0.0,0.0,0.0,0.0,0.0,0.0,0.0,0.0,0.0,0.0,0.0,0.0,0.0,0.0,0.0,0.0,0.0,0.0,0.0,0.0,0.0,0.0,0.0,0.0,0.0,0.0,0.0,0.0,0.0,0.0,0.0,0.0,0.0,0.0,0.0,0.0,0.0,0.0,0.0,0.0,0.0,2.2583,1.6912,1.3132,0.9641,0.625,0.2188,-0.1922,0.0,0.0,0.0,0.0,0.0,0.0,0.0,0.0,0.0,0.0,0.0,0.0,0.0,0.0,0.0,0.0,0.0,0.0,0.0,0.0,0.0,0.0,0.0,0.0,0.0,0.0,0.0,0.0,0.0,0.0,0.0,0.0,0.0,0.0,0.0,0.0,0.0,0.0,0.0,0.0,0.0,0.0,0.0,0.0,0.0,0.0,0.0,0.0,0.0,0.0,0.0,0.0,0.0,0.0,0.0,0.0,0.0,0.0,0.0,0.0,0.0,0.0,0.0,0.0,0.0,0.0,0.0,0.0,0.0,0.0,0.0,0.0,0.0,0.0,0.0,0.0,0.0,0.0,0.0,0.0,0.0,0.0,0.0,0.0,0.0,0.0,0.0,0.0,0.0,0.0,0.0,0.0,0.0,0.0,0.0,0.0,0.0,0.0,0.0,0.0,0.0,0.0,0.0,0.0,0.0,0.0,0.0,0.0,2.125,1.6295,1.1934,0.8203,0.5208,0.1331,-0.2532,0.0,0.0,0.0,0.0,0.0,0.0,0.0,0.0,0.0,0.0,0.0,0.0,0.0,0.0,0.0,0.0,0.0,0.0,0.0,0.0,0.0,0.0,0.0,0.0,0.0,0.0,0.0,0.0,0.0,0.0,0.0,0.0,0.0,0.0,0.0,0.0,0.0,0.0,0.0,0.0,0.0,0.0,0.0,0.0,0.0,0.0,0.0,0.0,0.0,0.0,0.0,0.0,0.0,0.0,0.0,0.0,0.0,0.0,0.0,0.0,0.0,0.0,0.0,0.0,0.0,0.0,0.0,0.0,0.0,0.0,0.0,0.0,0.0,0.0,0.0,0.0,0.0,0.0,0.0,0.0,0.0,0.0,0.0,0.0,0.0,0.0,0.0,0.0,0.0,0.0,0.0,0.0,0.0,0.0,0.0,0.0,0.0,0.0,0.0,0.0,0.0,0.0,0.0,0.0,0.0,0.0,0.0,0.0,0.0,1.588,1.1328,0.7387,0.4174,0.0692,-0.2804,0.0,0.0,0.0,0.0,0.0,0.0,0.0,0.0,0.0,0.0,0.0,0.0,0.0,0.0,0.0,0.0,0.0,0.0,0.0,0.0,0.0,0.0,0.0,0.0,0.0,0.0,0.0,0.0,0.0,0.0,0.0,0.0,0.0,0.0,0.0,0.0,0.0,0.0,0.0,0.0,0.0,0.0,0.0,0.0,0.0,0.0,0.0,0.0,0.0,0.0,0.0,0.0,0.0,0.0,0.0,0.0,0.0,0.0,0.0,0.0,0.0,0.0,0.0,0.0,0.0,0.0,0.0,0.0,0.0,0.0,0.0,0.0,0.0,0.0,0.0,0.0,0.0,0.0,0.0,0.0,0.0,0.0,0.0,0.0,0.0,0.0,0.0,0.0,0.0,0.0,0.0,0.0,0.0,0.0,0.0,0.0,0.0,0.0,0.0,0.0,0.0,0.0,0.0,0.0,0.0,0.0,0.0,0.0,0.0,1.5298,1.1622,0.7743,0.3662,0.0512,-0.2559,0.0,0.0,0.0,0.0,0.0,0.0,0.0,0.0,0.0,0.0,0.0,0.0,0.0,0.0,0.0,0.0,0.0,0.0,0.0,0.0,0.0,0.0,0.0,0.0,0.0,0.0,0.0,0.0,0.0,0.0,0.0,0.0,0.0,0.0,0.0,0.0,0.0,0.0,0.0,0.0,0.0,0.0,0.0,0.0,0.0,0.0,0.0,0.0,0.0,0.0,0.0,0.0,0.0,0.0,0.0,0.0,0.0,0.0,0.0,0.0,0.0,0.0,0.0,0.0,0.0,0.0,0.0,0.0,0.0,0.0,0.0,0.0,0.0,0.0,0.0,0.0,0.0,0.0,0.0,0.0,0.0,0.0,0.0,0.0,0.0,0.0,0.0,0.0,0.0,0.0,0.0,0.0,0.0,0.0,0.0,0.0,0.0,0.0,0.0,0.0,0.0,0.0,0.0,0.0,0.0,0.0,0.0,0.0,0.0,1.7176,1.4072,0.9364,0.2642,0.0493,-0.2277,-0.5554,0.0,0.0,0.0,0.0,0.0,0.0,0.0,0.0,0.0,0.0,0.0,0.0,0.0,0.0,0.0,0.0,0.0,0.0,0.0,0.0,0.0,0.0,0.0,0.0,0.0,0.0,0.0,0.0,0.0,0.0,0.0,0.0,0.0,0.0,0.0,0.0,0.0,0.0,0.0,0.0,0.0,0.0,0.0,0.0,0.0,0.0,0.0,0.0,0.0,0.0,0.0,0.0,0.0,0.0,0.0,0.0,0.0,0.0,0.0,0.0,0.0,0.0,0.0,0.0,0.0,0.0,0.0,0.0,0.0,0.0,0.0,0.0,0.0,0.0,0.0,0.0,0.0,0.0,0.0,0.0,0.0,0.0,0.0,0.0,0.0,0.0,0.0,0.0,0.0,0.0,0.0,0.0,0.0,0.0,0.0,0.0,0.0,0.0,0.0,0.0,0.0,0.0,0.0,0.0,0.0,0.0,0.0,0.0,1.8413,1.493,0.9693,0.2554,0.073,-0.1555,0.0,0.0,0.0,0.0,0.0,0.0,0.0,0.0,0.0,0.0,0.0,0.0,0.0,0.0,0.0,0.0,0.0,0.0,0.0,0.0,0.0,0.0,0.0,0.0,0.0,0.0,0.0,0.0,0.0,0.0,0.0,0.0,0.0,0.0,0.0,0.0,0.0,0.0,0.0,0.0,0.0,0.0,0.0,0.0,0.0,0.0,0.0,0.0,0.0,0.0,0.0,0.0,0.0,0.0,0.0,0.0,0.0,0.0,0.0,0.0,0.0,0.0,0.0,0.0,0.0,0.0,0.0,0.0,0.0,0.0,0.0,0.0,0.0,0.0,0.0,0.0,0.0,0.0,0.0,0.0,0.0,0.0,0.0,0.0,0.0,0.0,0.0,0.0,0.0,0.0,0.0,0.0,0.0,0.0,0.0,0.0,0.0,0.0,0.0,0.0,0.0,0.0,0.0,0.0,0.0,0.0,0.0,0.0,2.8553,1.9057,1.388,0.8653,0.3005,0.1563,-0.0245,0.0,0.0,0.0,0.0,0.0,0.0,0.0,0.0,0.0,0.0,0.0,0.0,0.0,0.0,0.0,0.0,0.0,0.0,0.0,0.0,0.0,0.0,0.0,0.0,0.0,0.0,0.0,0.0,0.0,0.0,0.0,0.0,0.0,0.0,0.0,0.0,0.0,0.0,0.0,0.0,0.0,0.0,0.0,0.0,0.0,0.0,0.0,0.0,0.0,0.0,0.0,0.0,0.0,0.0,0.0,0.0,0.0,0.0,0.0,0.0,0.0,0.0,0.0,0.0,0.0,0.0,0.0,0.0,0.0,0.0,0.0,0.0,0.0,0.0,0.0,0.0,0.0,0.0,0.0,0.0,0.0,0.0,0.0,0.0,0.0,0.0,0.0,0.0,0.0,0.0,0.0,0.0,0.0,0.0,0.0,0.0,0.0,0.0,0.0,0.0,0.0,0.0,0.0,0.0,0.0,0.0,0.0,0.0,0.0,2.461,0.0,1.1217,0.0,0.4083,0.232,0.0,0.0,0.0,0.0,0.0,0.0,0.0,0.0,0.0,0.0,0.0,0.0,0.0,0.0,0.0,0.0,0.0,0.0,0.0,0.0,0.0,0.0,0.0,0.0,0.0,0.0,0.0,0.0,0.0,0.0,0.0,0.0,0.0,0.0,0.0,0.0,0.0,0.0,0.0,0.0,0.0,0.0,0.0,0.0,0.0,0.0,0.0,0.0,0.0,0.0,0.0,0.0,0.0,0.0,0.0,0.0,0.0,0.0,0.0,0.0,0.0,0.0,0.0,0.0,0.0,0.0,0.0,0.0,0.0,0.0,0.0,0.0,0.0,0.0,0.0,0.0,0.0,0.0,0.0,0.0,0.0,0.0,0.0,0.0,0.0,0.0,0.0,0.0,0.0,0.0,0.0,0.0,0.0,0.0,0.0,0.0,0.0,0.0,0.0,0.0,0.0,0.0,0.0,0.0,0.0,0.0,0.0,0.0,0.0,2.5767,2.0028,1.3766,0.7213,0.6987,0.5416,0.0,0.0,0.0,0.0,0.0,0.0,0.0,0.0,0.0,0.0,0.0,0.0,0.0,0.0,0.0,0.0,0.0,0.0,0.0,0.0,0.0,0.0,0.0,0.0,0.0,0.0,0.0,0.0,0.0,0.0,0.0,0.0,0.0,0.0,0.0,0.0,0.0,0.0,0.0,0.0,0.0,0.0,0.0,0.0,0.0,0.0,0.0,0.0,0.0,0.0,0.0,0.0,0.0,0.0,0.0,0.0,0.0,0.0,0.0,0.0,0.0,0.0,0.0,0.0,0.0,0.0,0.0,0.0,0.0,0.0,0.0,0.0,0.0,0.0,0.0,0.0,0.0,0.0,0.0,0.0,0.0,0.0,0.0,0.0,0.0,0.0,0.0,0.0,0.0,0.0,0.0,0.0,0.0,0.0,0.0,0.0,0.0,0.0,0.0,0.0,0.0,0.0,0.0,0.0,0.0,0.0,0.0,0.0,0.0,0.0,2.0595,1.6039,0.971,1.0157,0.8854,0.0,0.0,0.0,0.0,0.0,0.0,0.0,0.0,0.0,0.0,0.0,0.0,0.0,0.0,0.0,0.0,0.0,0.0,0.0,0.0,0.0,0.0,0.0,0.0,0.0,0.0,0.0,0.0,0.0,0.0,0.0,0.0,0.0,0.0,0.0,0.0,0.0,0.0,0.0,0.0,0.0,0.0,0.0,0.0,0.0,0.0,0.0,0.0,0.0,0.0,0.0,0.0,0.0,0.0,0.0,0.0,0.0,0.0,0.0,0.0,0.0,0.0,0.0,0.0,0.0,0.0,0.0,0.0,0.0,0.0,0.0,0.0,0.0,0.0,0.0,0.0,0.0,0.0,0.0,0.0,0.0,0.0,0.0,0.0,0.0,0.0,0.0,0.0,0.0,0.0,0.0,0.0,0.0,0.0,0.0,0.0,0.0,0.0,0.0,0.0,0.0,0.0,0.0,0.0,0.0,0.0,0.0,0.0,0.0,0.0,2.1826,0.0,1.5501,1.3036,1.083,0.8702,0.0,0.0,0.0,0.0,0.0,0.0,0.0,0.0,0.0,0.0,0.0,0.0,0.0,0.0,0.0,0.0,0.0,0.0,0.0,0.0,0.0,0.0,0.0,0.0,0.0,0.0,0.0,0.0,0.0,0.0,0.0,0.0,0.0,0.0,0.0,0.0,0.0,0.0,0.0,0.0,0.0,0.0,0.0,0.0,0.0,0.0,0.0,0.0,0.0,0.0,0.0,0.0,0.0,0.0,0.0,0.0,0.0,0.0,0.0,0.0,0.0,0.0,0.0,0.0,0.0,0.0,0.0,0.0,0.0,0.0,0.0,0.0,0.0,0.0,0.0,0.0,0.0,0.0,0.0,0.0,0.0,0.0,0.0,0.0,0.0,0.0,0.0,0.0,0.0,0.0,0.0,0.0,0.0,0.0,0.0,0.0,0.0,0.0,0.0,0.0,0.0,0.0,0.0,0.0,0.0,0.0,0.0,0.0,0.0,0.0,0.0,1.7972,1.4875,1.2606,0.0,0.0,0.0,0.0,0.0,0.0,0.0,0.0,0.0,0.0,0.0,0.0,0.0,0.0,0.0,0.0,0.0,0.0,0.0,0.0,0.0,0.0,0.0,0.0,0.0,0.0,0.0,0.0,0.0,0.0,0.0,0.0,0.0,0.0,0.0,0.0,0.0,0.0,0.0,0.0,0.0,0.0,0.0,0.0,0.0,0.0,0.0,0.0,0.0,0.0,0.0,0.0,0.0,0.0,0.0,0.0,0.0,0.0,0.0,0.0,0.0,0.0,0.0,0.0,0.0,0.0,0.0,0.0,0.0,0.0,0.0,0.0,0.0,0.0,0.0,0.0,0.0,0.0,0.0,0.0,0.0,0.0,0.0,0.0,0.0,0.0,0.0,0.0,0.0,0.0,0.0,0.0,0.0,0.0,0.0,0.0,0.0,0.0,0.0,0.0,0.0,0.0,0.0,0.0,0.0,0.0,0.0,0.0,0.0,0.0,0.0,1.796,1.7954,1.5871,0.0,1.3582,0.0,0.0,0.0,0.0,0.0,0.0,0.0,0.0,0.0,0.0,0.0,0.0,0.0,0.0,0.0,0.0,0.0,0.0,0.0,0.0,0.0,0.0,0.0,0.0,0.0,0.0,0.0,0.0,0.0,0.0,0.0,0.0,0.0,0.0,0.0,0.0,0.0,0.0,0.0,0.0,0.0,0.0,0.0,0.0,0.0,0.0,0.0,0.0,0.0,0.0,0.0,0.0,0.0,0.0,0.0,0.0,0.0,0.0,0.0,0.0,0.0,0.0,0.0,0.0,0.0,0.0,0.0,0.0,0.0,0.0,0.0,0.0,0.0,0.0,0.0,0.0,0.0,0.0,0.0,0.0,0.0,0.0,0.0,0.0,0.0,0.0,0.0,0.0,0.0,0.0,0.0,0.0,0.0,0.0,0.0,0.0,0.0,0.0,0.0,0.0,0.0,0.0,0.0,0.0,0.0,0.0,0.0,0.0,0.0,0.0,0.0,0.0,1.6896,1.5966,1.651,0.0,0.0,0.0,0.0,0.0,0.0,0.0,0.0,0.0,0.0,0.0,0.0,0.0,0.0,0.0,0.0,0.0,0.0,0.0,0.0,0.0,0.0,0.0,0.0,0.0,0.0,0.0,0.0,0.0,0.0,0.0,0.0,0.0,0.0,0.0,0.0,0.0,0.0,0.0,0.0,0.0,0.0,0.0,0.0,0.0,0.0,0.0,0.0,0.0,0.0,0.0,0.0,0.0,0.0,0.0,0.0,0.0,0.0,0.0,0.0,0.0,0.0,0.0,0.0,0.0,0.0,0.0,0.0,0.0,0.0,0.0,0.0,0.0,0.0,0.0,0.0,0.0,0.0,0.0,0.0,0.0,0.0,0.0,0.0,0.0,0.0,0.0,0.0,0.0,0.0,0.0,0.0,0.0,0.0,0.0,0.0,0.0,0.0,0.0,0.0,0.0,0.0,0.0,0.0,0.0,0.0,0.0,0.0,0.0,0.0,1.904,1.9987,1.8167,1.7251,1.7488,0.0,0.0,0.0,0.0,0.0,0.0,0.0,0.0,0.0,0.0,0.0,0.0,0.0,0.0,0.0,0.0,0.0,0.0,0.0,0.0,0.0,0.0,0.0,0.0,0.0,0.0,0.0,0.0,0.0,0.0,0.0,0.0,0.0,0.0,0.0,0.0,0.0,0.0,0.0,0.0,0.0,0.0,0.0,0.0,0.0,0.0,0.0,0.0,0.0,0.0,0.0,0.0,0.0,0.0,0.0,0.0,0.0,0.0,0.0,0.0,0.0,0.0,0.0,0.0,0.0,0.0,0.0,0.0,0.0,0.0,0.0,0.0,0.0,0.0,0.0,0.0,0.0,0.0,0.0,0.0,0.0,0.0,0.0,0.0,0.0,0.0,0.0,0.0,0.0,0.0,0.0,0.0,0.0,0.0,0.0,0.0,0.0,0.0,0.0,0.0,0.0,0.0,0.0,0.0,0.0,0.0,0.0,0.0,0.0,0.0,0.0,0.0,0.0,0.0,1.7985,0.0,0.0,0.0,0.0,0.0,0.0,0.0,0.0,0.0,0.0,0.0,0.0,0.0,0.0,0.0,0.0,0.0,0.0,0.0,0.0,0.0,0.0,0.0,0.0,0.0,0.0,0.0,0.0,0.0,0.0,0.0,0.0,0.0,0.0,0.0,0.0,0.0,0.0,0.0,0.0,0.0,0.0,0.0,0.0,0.0,0.0,0.0,0.0,0.0,0.0,0.0,0.0,0.0,0.0,0.0,0.0,0.0,0.0,0.0,0.0,0.0,0.0,0.0,0.0,0.0,0.0,0.0,0.0,0.0,0.0,0.0,0.0,0.0,0.0,0.0,0.0,0.0,0.0,0.0,0.0,0.0,0.0,0.0,0.0,0.0,0.0,0.0,0.0,0.0,0.0,0.0,0.0,0.0,0.0,0.0,0.0,0.0,0.0,0.0,0.0,0.0,0.0,0.0,0.0,0.0,0.0,0.0,0.0,0.0,0.0,0.0,0.0,0.0,0.0,0.0,0.0,0.0,0.0,0.0,0.0,0.0,0.0,0.0,0.0,0.0,0.0,0.0,0.0,0.0,0.0,0.0,0.0,0.0,0.0,0.0,0.0,0.0,0.0,0.0,0.0,0.0,0.0,0.0,0.0,0.0,0.0,0.0,0.0,0.0,0.0,0.0,0.0,0.0,0.0,0.0,0.0,0.0,0.0,0.0,0.0,0.0,0.0,0.0,0.0,0.0,0.0,0.0,0.0,0.0,0.0,0.0,0.0,0.0,0.0,0.0,0.0,0.0,0.0,0.0,0.0,0.0,0.0,0.0,0.0,0.0,0.0,0.0,0.0,0.0,0.0,0.0,0.0,0.0,0.0,0.0,0.0,0.0,0.0,0.0,0.0,0.0,0.0,0.0,0.0,0.0,0.0,0.0,0.0,0.0,0.0,0.0,0.0,0.0,0.0,0.0,0.0,0.0,0.0,0.0,0.0,0.0,0.0,0.0,0.0,0.0,0.0,0.0,0.0,0.0,0.0,0.0,0.0,0.0,0.0,0.0,0.0,0.0,0.0,0.0,0.0,0.0,0.0,0.0,0.0,0.0,0.0,0.0,0.0,0.0,0.0,0.0,0.0,0.0,0.0,0.0,0.0,0.0,0.0,0.0,0.0,0.0,0.0,0.0,0.0,0.0,0.0,0.0,0.0,0.0,0.0,0.0,0.0,0.0,0.0,0.0,0.0,0.0,0.0,0.0,0.0,0.0,0.0,0.0,0.0,0.0,0.0,0.0,0.0,0.0,0.0,0.0,0.0,0.0,0.0,0.0,0.0,0.0,0.0,0.0,0.0,0.0,0.0,0.0,0.0,0.0,0.0,0.0,0.0,0.0,0.0,0.0,0.0,0.0,0.0,0.0,0.0,0.0,0.0,0.0,0.0,0.0,0.0,0.0,0.0,0.0,0.0,0.0,0.0,0.0,0.0,0.0,0.0,0.0,0.0,0.0,0.0,0.0,0.0,0.0,0.0,0.0,0.0,0.0,0.0,0.0,0.0,0.0,0.0,0.0,0.0,0.0,0.0,0.0,0.0,0.0,0.0,0.0,0.0,0.0,0.0,0.0,0.0,0.0,0.0,0.0,0.0,0.0,0.0,0.0,0.0,0.0,0.0,0.0,0.0,0.0,0.0,0.0,0.0,0.0,0.0,0.0,0.0,0.0,0.0,0.0,0.0,0.0,0.0,0.0,0.0,0.0,0.0,0.0,0.0,0.0,0.0,0.0,0.0,0.0,0.0,0.0,0.0,0.0,0.0,0.0,0.0,0.0,0.0,0.0,0.0,0.0,0.0,0.0,0.0,0.0,0.0,0.0,0.0,0.0,0.0,0.0,0.0,0.0,0.0,0.0,0.0,0.0,0.0,0.0,0.0,0.0,0.0,0.0,0.0,0.0,0.0,0.0,0.0,0.0,0.0,0.0,0.0,0.0,0.0,0.0,0.0,0.0,0.0,0.0,0.0,0.0,0.0,0.0,0.0,0.0,0.0,0.0,0.0,0.0,0.0,0.0,0.0,0.0,0.0,0.0,0.0,0.0,0.0,0.0,0.0,0.0,0.0,0.0,0.0,0.0,0.0,0.0,0.0,0.0,0.0,0.0,0.0,0.0,0.0,0.0,0.0,0.0,0.0,0.0,0.0,0.0,0.0,0.0,0.0,0.0,0.0,0.0,0.0,0.0,0.0,0.0,0.0,0.0,0.0,0.0,0.0,0.0,0.0,0.0,0.0,0.0,0.0,0.0,0.0,0.0,0.0,0.0,0.0,0.0,0.0,0.0,0.0,0.0,0.0,0.0,0.0,0.0,0.0,0.0,0.0,0.0,0.0,0.0,0.0,0.0,0.0,0.0,0.0,0.0,0.0,0.0,0.0,0.0,0.0,0.0,0.0,0.0,0.0,0.0,0.0,0.0,0.0,0.0,0.0,0.0,0.0,0.0,0.0,0.0,0.0,0.0,0.0,0.0,0.0,0.0,0.0,0.0,0.0,0.0,0.0,0.0,0.0,0.0,0.0,0.0,0.0,0.0,0.0,0.0,0.0,0.0,0.0,0.0,0.0,0.0,0.0,0.0,0.0,0.0,0.0,0.0,0.0,0.0,0.0,0.0,0.0,0.0,0.0,0.0,0.0,0.0,0.0,0.0,0.0,0.0,0.0,0.0,0.0,0.0,0.0,0.0,0.0,0.0,0.0,0.0,0.0,0.0,0.0,0.0,0.0,0.0,0.0,0.0,0.0,0.0,0.0,0.0,0.0,0.0,0.0,0.0,0.0,0.0,0.0,0.0,0.0,0.0,0.0,0.0,0.0,0.0,0.0,0.0,0.0,0.0,0.0,0.0,0.0,0.0,0.0,0.0,0.0,0.0,0.0,0.0,0.0,0.0,0.0,0.0,0.0,0.0,0.0,0.0,0.0,0.0,0.0,0.0,0.0,0.0,0.0,0.0,0.0,0.0,0.0,0.0,0.0,0.0,0.0,0.0,0.0,0.0,0.0,0.0,0.0,0.0,0.0,0.0,0.0,0.0,0.0,0.0,0.0,0.0,0.0,0.0,0.0,0.0,0.0,0.0,0.0,0.0,0.0,0.0,0.0,0.0,0.0,0.0,0.0,0.0,0.0,0.0,0.0,0.0,0.0,0.0,0.0,0.0,0.0,0.0,0.0,0.0,0.0,0.0,0.0,0.0,0.0,0.0,0.0,0.0,0.0,0.0,0.0,0.0,0.0,0.0,0.0,0.0,0.0,0.0,0.0,0.0,0.0,0.0,0.0,0.0,0.0,0.0,0.0,0.0,0.0,0.0,0.0,0.0,0.0,0.0,0.0,0.0,0.0,0.0,0.0,0.0,0.0,0.0,0.0,0.0,0.0,0.0,0.0,0.0,0.0,0.0,0.0,0.0,0.0,0.0,0.0,0.0,0.0,0.0,0.0,0.0,0.0,0.0,0.0,0.0,0.0,0.0,0.0,0.0,0.0,0.0,0.0,0.0,0.0,0.0,0.0,0.0,0.0,0.0,0.0,0.0,0.0,0.0,0.0,0.0,0.0,0.0,0.0,0.0,0.0,0.0,0.0,0.0,0.0,0.0,0.0,0.0,0.0,0.0,0.0,0.0,0.0,0.0,0.0,0.0,0.0,0.0,0.0,0.0,0.0,0.0,0.0,0.0,0.0,0.0,0.0,0.0,0.0,0.0,0.0,0.0,0.0,0.0,0.0,0.0,0.0,0.0,0.0,0.0,0.0,0.0,0.0,0.0,0.0,0.0,0.0,0.0,0.0,0.0,0.0,0.0,0.0,0.0,0.0,0.0,0.0,0.0,0.0,0.0,0.0,0.0,0.0,0.0,0.0,0.0,0.0,0.0,0.0,0.0,0.0,0.0,0.0,0.0,0.0,0.0,0.0,0.0,0.0,0.0,0.0,0.0,0.0,0.0,0.0,0.0,0.0,0.0,0.0,0.0,0.0,0.0,0.0,0.0,0.0,0.0,0.0,0.0,0.0,0.0,0.0,0.0,0.0,0.0,0.0,0.0,0.0,0.0,0.0,0.0,0.0,0.0,0.0,0.0,0.0,0.0,0.0,0.0,0.0,0.0,0.0,0.0,0.0,0.0,0.0,0.0,0.0,0.0,0.0,0.0,0.0,0.0,0.0,0.0,0.0,0.0,0.0,0.0,0.0,0.0,0.0,0.0,0.0,0.0,0.0,0.0,0.0,0.0,0.0,0.0,0.0,0.0,0.0,0.0,0.0,0.0,0.0,0.0,0.0,0.0,0.0,0.0,0.0,0.0,0.0,0.0,0.0,0.0,0.0,0.0,0.0,0.0,0.0,0.0,0.0,0.0,0.0,0.0,0.0]}]]]